GEFSMA_prec_meanprecacc_132.txt.gz
Total_Precipitation_Accumulation
0.99 1.09 1.06 1.03 0.98 1.04 1.00 0.86 0.74 0.79 0.77 0.65 0.53 0.47 0.46 0.51 0.49 0.54 0.65 0.62 0.67 0.83 1.05 1.12 1.15 1.04 0.99 0.99 0.97 0.87 0.75 0.67 0.61 0.54 0.45 0.40 0.38 0.38 0.38 0.40 0.40 0.37 0.37
1.35 1.39 1.44 1.40 1.28 1.29 1.29 1.18 1.09 1.08 1.00 0.92 0.83 0.71 0.61 0.71 0.72 0.71 0.83 0.84 0.83 0.91 1.13 1.37 1.46 1.37 1.27 1.24 1.13 1.02 0.94 0.86 0.80 0.75 0.69 0.59 0.51 0.48 0.48 0.47 0.47 0.44 0.40
1.78 1.78 1.80 1.70 1.61 1.60 1.65 1.58 1.47 1.38 1.19 1.06 1.00 0.95 0.89 0.85 0.90 0.92 1.13 1.35 1.26 1.20 1.25 1.31 1.38 1.43 1.46 1.49 1.43 1.29 1.22 1.09 0.99 0.95 0.91 0.83 0.74 0.65 0.60 0.57 0.56 0.52 0.47
2.03 2.14 2.17 2.06 1.93 1.84 1.96 2.00 1.86 1.73 1.57 1.48 1.42 1.33 1.18 1.15 1.20 1.33 1.44 1.60 1.71 1.59 1.54 1.38 1.26 1.30 1.45 1.57 1.57 1.50 1.35 1.18 1.11 1.09 1.08 1.04 0.93 0.84 0.76 0.73 0.72 0.67 0.60
2.53 2.53 2.49 2.48 2.41 2.40 2.39 2.22 2.16 2.02 2.00 1.91 1.63 1.54 1.39 1.36 1.43 1.46 1.56 1.62 1.70 1.69 1.63 1.45 1.30 1.26 1.35 1.56 1.62 1.64 1.56 1.45 1.35 1.24 1.15 1.14 1.11 1.02 0.88 0.81 0.78 0.74 0.69
3.04 3.09 3.03 2.95 2.89 2.83 2.65 2.55 2.46 2.28 2.13 2.00 1.70 1.56 1.45 1.41 1.40 1.44 1.46 1.41 1.38 1.34 1.32 1.33 1.39 1.29 1.29 1.35 1.36 1.47 1.57 1.57 1.44 1.34 1.27 1.24 1.18 1.06 0.92 0.85 0.80 0.79 0.78
3.72 3.70 3.56 3.31 3.15 3.11 2.99 2.90 2.69 2.48 2.23 2.05 1.97 1.72 1.42 1.29 1.27 1.20 1.18 1.18 1.18 1.17 1.19 1.20 1.21 1.19 1.18 1.24 1.22 1.27 1.36 1.41 1.40 1.41 1.41 1.33 1.24 1.13 1.02 0.95 0.90 0.86 0.82
4.04 4.00 3.97 3.88 3.63 3.42 3.21 2.96 2.82 2.66 2.29 2.06 2.01 1.93 1.64 1.39 1.14 0.96 0.91 0.92 0.95 1.02 1.05 1.03 1.02 1.08 1.11 1.18 1.25 1.34 1.34 1.33 1.37 1.38 1.37 1.34 1.30 1.25 1.19 1.14 1.07 1.02 0.95
4.39 4.24 4.07 3.81 3.61 3.45 3.31 3.09 2.84 2.69 2.40 2.15 2.01 2.02 1.85 1.60 1.29 1.06 0.90 0.84 0.82 0.85 0.89 0.89 0.90 0.94 0.97 1.05 1.12 1.27 1.33 1.29 1.31 1.28 1.28 1.28 1.28 1.25 1.23 1.20 1.17 1.17 1.14
4.08 3.81 3.65 3.52 3.32 3.02 2.78 2.65 2.51 2.27 2.10 1.96 1.88 1.73 1.60 1.45 1.43 1.36 1.22 1.07 0.99 0.99 0.98 0.91 0.90 0.95 0.96 1.02 1.20 1.31 1.30 1.28 1.36 1.32 1.25 1.22 1.22 1.25 1.26 1.27 1.27 1.27 1.27
3.51 3.23 3.07 2.88 2.63 2.29 1.95 1.85 1.87 1.89 1.82 1.72 1.69 1.65 1.59 1.47 1.37 1.36 1.36 1.27 1.21 1.17 1.14 1.14 1.12 1.10 1.07 1.06 1.13 1.30 1.27 1.15 1.21 1.25 1.27 1.26 1.24 1.21 1.20 1.21 1.20 1.17 1.17
2.91 2.55 2.24 1.94 1.71 1.56 1.37 1.31 1.33 1.39 1.51 1.55 1.58 1.58 1.53 1.49 1.45 1.43 1.41 1.39 1.36 1.28 1.19 1.16 1.15 1.13 1.11 1.10 1.13 1.25 1.06 0.98 0.96 0.97 1.01 1.01 1.00 0.97 0.96 1.00 1.05 1.08 1.11
2.20 1.91 1.61 1.42 1.29 1.21 1.14 1.07 1.03 1.05 1.15 1.26 1.34 1.40 1.45 1.46 1.42 1.45 1.55 1.60 1.50 1.40 1.29 1.23 1.16 1.12 1.13 1.12 1.14 1.19 1.04 0.95 0.86 0.79 0.76 0.75 0.73 0.74 0.76 0.79 0.80 0.81 0.83
1.61 1.35 1.14 0.97 0.88 0.86 0.86 0.84 0.85 0.88 0.92 0.99 1.10 1.19 1.27 1.30 1.29 1.29 1.33 1.39 1.50 1.49 1.33 1.23 1.14 1.05 0.99 0.91 0.94 0.92 0.83 0.86 0.77 0.70 0.65 0.61 0.57 0.53 0.50 0.47 0.47 0.46 0.46
1.01 0.86 0.74 0.67 0.63 0.61 0.60 0.58 0.60 0.66 0.73 0.79 0.84 0.91 1.00 1.05 1.07 1.09 1.13 1.17 1.25 1.32 1.25 1.09 1.02 0.94 0.79 0.70 0.73 0.59 0.57 0.62 0.56 0.50 0.48 0.45 0.42 0.39 0.36 0.34 0.33 0.33 0.33
0.68 0.61 0.53 0.47 0.44 0.42 0.39 0.37 0.39 0.42 0.46 0.54 0.61 0.67 0.76 0.83 0.90 0.93 0.98 1.01 1.00 1.03 1.05 0.93 0.82 0.75 0.66 0.56 0.57 0.45 0.44 0.46 0.41 0.39 0.38 0.37 0.36 0.36 0.34 0.31 0.30 0.30 0.30
0.45 0.40 0.34 0.32 0.30 0.28 0.28 0.30 0.34 0.38 0.41 0.43 0.46 0.49 0.54 0.58 0.66 0.69 0.69 0.70 0.74 0.75 0.79 0.76 0.68 0.60 0.55 0.52 0.50 0.45 0.41 0.39 0.36 0.38 0.36 0.35 0.34 0.32 0.31 0.30 0.29 0.30 0.31
0.33 0.28 0.24 0.24 0.24 0.25 0.24 0.24 0.27 0.33 0.38 0.38 0.36 0.38 0.40 0.42 0.48 0.51 0.53 0.55 0.59 0.63 0.67 0.71 0.68 0.62 0.56 0.52 0.49 0.47 0.35 0.29 0.29 0.32 0.30 0.27 0.27 0.27 0.25 0.24 0.23 0.23 0.22
0.30 0.26 0.23 0.22 0.21 0.20 0.20 0.20 0.21 0.26 0.33 0.35 0.33 0.32 0.32 0.33 0.35 0.34 0.38 0.43 0.47 0.54 0.64 0.67 0.63 0.57 0.51 0.44 0.45 0.38 0.33 0.38 0.27 0.23 0.21 0.19 0.18 0.17 0.16 0.14 0.14 0.13 0.12
0.21 0.20 0.19 0.18 0.17 0.15 0.15 0.16 0.17 0.21 0.25 0.28 0.26 0.25 0.25 0.25 0.26 0.30 0.31 0.37 0.43 0.55 0.62 0.62 0.54 0.47 0.43 0.39 0.45 0.43 0.39 0.39 0.32 0.21 0.19 0.15 0.14 0.13 0.13 0.13 0.12 0.10 0.08
0.19 0.15 0.12 0.12 0.09 0.08 0.08 0.08 0.11 0.14 0.19 0.21 0.21 0.20 0.19 0.18 0.19 0.22 0.25 0.32 0.41 0.52 0.55 0.55 0.51 0.46 0.41 0.43 0.43 0.41 0.43 0.38 0.31 0.24 0.25 0.22 0.24 0.29 0.32 0.26 0.19 0.15 0.09
0.14 0.11 0.10 0.09 0.08 0.06 0.05 0.05 0.07 0.10 0.13 0.17 0.20 0.19 0.16 0.14 0.14 0.16 0.21 0.27 0.35 0.42 0.47 0.50 0.48 0.47 0.44 0.45 0.48 0.47 0.50 0.48 0.44 0.31 0.33 0.28 0.24 0.35 0.41 0.37 0.29 0.19 0.11
0.16 0.14 0.13 0.11 0.11 0.07 0.03 0.03 0.04 0.09 0.13 0.17 0.19 0.20 0.17 0.15 0.18 0.20 0.19 0.19 0.22 0.23 0.32 0.46 0.53 0.52 0.53 0.56 0.63 0.61 0.58 0.58 0.54 0.42 0.49 0.47 0.36 0.42 0.34 0.32 0.35 0.28 0.21
0.18 0.18 0.16 0.14 0.13 0.07 0.03 0.02 0.03 0.08 0.13 0.14 0.15 0.18 0.23 0.24 0.20 0.18 0.16 0.19 0.25 0.28 0.32 0.40 0.54 0.56 0.53 0.55 0.62 0.65 0.63 0.62 0.59 0.55 0.60 0.62 0.44 0.43 0.37 0.54 0.55 0.47 0.36
0.20 0.20 0.19 0.19 0.18 0.11 0.03 0.01 0.02 0.08 0.12 0.10 0.10 0.10 0.12 0.15 0.14 0.15 0.19 0.28 0.32 0.36 0.30 0.39 0.50 0.54 0.55 0.57 0.58 0.61 0.70 0.77 0.73 0.62 0.57 0.62 0.55 0.47 0.49 0.70 0.67 0.67 0.55
0.20 0.18 0.20 0.24 0.21 0.14 0.04 0.02 0.02 0.07 0.12 0.12 0.13 0.15 0.11 0.09 0.12 0.13 0.17 0.28 0.36 0.37 0.45 0.65 0.77 0.77 0.73 0.70 0.64 0.68 0.78 0.81 0.82 0.80 0.64 0.64 0.70 0.62 0.65 0.74 0.80 0.75 0.70

GEFSMA_prec_meanprecacc_138.txt.gz
Total_Precipitation_Accumulation
1.21 1.30 1.26 1.21 1.15 1.20 1.14 0.98 0.84 0.87 0.83 0.70 0.57 0.52 0.52 0.57 0.54 0.61 0.76 0.71 0.72 0.87 1.08 1.18 1.22 1.12 1.08 1.07 1.06 0.98 0.85 0.75 0.69 0.61 0.51 0.45 0.41 0.40 0.41 0.43 0.43 0.41 0.40
1.60 1.62 1.63 1.57 1.44 1.46 1.42 1.29 1.19 1.18 1.08 1.01 0.90 0.77 0.67 0.79 0.81 0.79 0.94 0.99 0.93 0.95 1.17 1.43 1.54 1.46 1.37 1.34 1.24 1.13 1.04 0.97 0.90 0.84 0.77 0.65 0.57 0.52 0.51 0.50 0.51 0.48 0.43
2.02 1.99 1.97 1.84 1.73 1.71 1.76 1.67 1.55 1.48 1.29 1.16 1.10 1.05 0.99 0.94 0.97 0.99 1.20 1.45 1.34 1.26 1.31 1.36 1.44 1.51 1.54 1.60 1.55 1.44 1.37 1.24 1.12 1.05 1.01 0.92 0.83 0.72 0.66 0.62 0.60 0.57 0.52
2.25 2.32 2.33 2.20 2.04 1.94 2.05 2.10 1.97 1.83 1.67 1.58 1.53 1.42 1.26 1.22 1.25 1.38 1.49 1.65 1.78 1.67 1.61 1.43 1.31 1.35 1.52 1.67 1.70 1.66 1.52 1.35 1.25 1.22 1.21 1.16 1.04 0.94 0.84 0.80 0.77 0.71 0.64
2.68 2.69 2.62 2.59 2.51 2.50 2.48 2.30 2.27 2.11 2.09 2.00 1.72 1.62 1.46 1.42 1.48 1.50 1.59 1.65 1.75 1.74 1.69 1.51 1.34 1.31 1.43 1.66 1.76 1.82 1.73 1.62 1.53 1.40 1.30 1.28 1.24 1.14 0.99 0.91 0.86 0.81 0.75
3.16 3.22 3.15 3.04 2.97 2.91 2.73 2.64 2.57 2.38 2.22 2.10 1.78 1.63 1.51 1.46 1.44 1.47 1.49 1.44 1.41 1.38 1.38 1.41 1.49 1.38 1.39 1.47 1.51 1.63 1.73 1.75 1.62 1.50 1.43 1.40 1.34 1.20 1.05 0.96 0.91 0.89 0.87
3.81 3.78 3.63 3.37 3.21 3.18 3.06 2.97 2.77 2.58 2.34 2.15 2.07 1.83 1.51 1.33 1.30 1.24 1.22 1.21 1.21 1.21 1.24 1.28 1.30 1.27 1.26 1.33 1.33 1.40 1.50 1.58 1.56 1.55 1.54 1.48 1.42 1.32 1.20 1.11 1.04 0.99 0.95
4.13 4.06 4.03 3.94 3.69 3.50 3.28 3.03 2.90 2.74 2.39 2.16 2.11 2.03 1.73 1.46 1.20 1.00 0.94 0.96 0.98 1.06 1.09 1.08 1.10 1.15 1.18 1.26 1.35 1.45 1.48 1.49 1.53 1.51 1.48 1.46 1.44 1.43 1.41 1.36 1.28 1.20 1.13
4.45 4.28 4.10 3.85 3.65 3.50 3.35 3.13 2.90 2.75 2.48 2.24 2.11 2.12 1.95 1.69 1.36 1.11 0.93 0.87 0.85 0.89 0.94 0.95 0.97 1.01 1.04 1.12 1.19 1.36 1.45 1.43 1.46 1.44 1.43 1.41 1.41 1.42 1.42 1.42 1.40 1.39 1.35
4.10 3.83 3.67 3.55 3.36 3.06 2.82 2.69 2.56 2.33 2.15 2.03 1.96 1.81 1.69 1.55 1.53 1.43 1.26 1.10 1.03 1.04 1.02 0.96 0.95 1.00 1.02 1.09 1.26 1.37 1.39 1.39 1.47 1.47 1.42 1.40 1.41 1.43 1.46 1.48 1.49 1.51 1.53
3.53 3.26 3.11 2.91 2.67 2.33 1.99 1.89 1.93 1.94 1.87 1.78 1.76 1.71 1.66 1.55 1.47 1.44 1.42 1.32 1.25 1.21 1.19 1.19 1.17 1.15 1.14 1.15 1.22 1.40 1.38 1.25 1.31 1.36 1.41 1.44 1.44 1.42 1.43 1.46 1.46 1.44 1.45
2.97 2.57 2.26 1.96 1.74 1.59 1.40 1.34 1.35 1.42 1.56 1.60 1.63 1.62 1.58 1.54 1.51 1.50 1.48 1.44 1.40 1.32 1.24 1.21 1.21 1.20 1.18 1.17 1.22 1.36 1.18 1.11 1.07 1.09 1.15 1.18 1.20 1.19 1.20 1.25 1.32 1.37 1.44
2.27 1.94 1.63 1.44 1.31 1.23 1.16 1.09 1.05 1.07 1.17 1.29 1.37 1.43 1.48 1.49 1.47 1.50 1.60 1.64 1.54 1.43 1.33 1.27 1.22 1.18 1.19 1.17 1.20 1.27 1.13 1.06 0.98 0.91 0.88 0.88 0.89 0.92 0.96 1.02 1.05 1.11 1.16
1.67 1.39 1.16 0.99 0.89 0.88 0.87 0.86 0.87 0.90 0.94 1.01 1.12 1.22 1.30 1.33 1.33 1.33 1.38 1.42 1.54 1.51 1.36 1.27 1.18 1.10 1.04 0.95 0.99 0.98 0.88 0.93 0.84 0.78 0.75 0.72 0.69 0.67 0.66 0.66 0.66 0.66 0.66
1.05 0.90 0.76 0.68 0.64 0.62 0.61 0.59 0.61 0.67 0.75 0.81 0.85 0.93 1.02 1.08 1.11 1.13 1.17 1.21 1.29 1.36 1.29 1.13 1.06 0.98 0.83 0.73 0.77 0.62 0.60 0.67 0.61 0.56 0.54 0.53 0.51 0.49 0.46 0.46 0.47 0.47 0.46
0.70 0.63 0.54 0.48 0.45 0.43 0.40 0.39 0.41 0.43 0.48 0.57 0.63 0.69 0.78 0.84 0.91 0.95 1.01 1.04 1.04 1.06 1.09 0.97 0.85 0.79 0.68 0.59 0.61 0.48 0.47 0.50 0.45 0.43 0.43 0.44 0.46 0.47 0.45 0.42 0.40 0.39 0.40
0.46 0.41 0.35 0.33 0.31 0.30 0.30 0.32 0.36 0.41 0.43 0.45 0.48 0.51 0.56 0.60 0.67 0.71 0.71 0.73 0.77 0.78 0.82 0.79 0.71 0.64 0.59 0.55 0.54 0.50 0.46 0.43 0.40 0.42 0.40 0.39 0.40 0.41 0.41 0.39 0.37 0.37 0.38
0.35 0.29 0.25 0.25 0.25 0.26 0.25 0.26 0.29 0.34 0.40 0.40 0.38 0.40 0.42 0.44 0.50 0.53 0.55 0.57 0.61 0.67 0.70 0.75 0.71 0.65 0.60 0.56 0.52 0.52 0.40 0.33 0.33 0.36 0.34 0.30 0.30 0.30 0.31 0.30 0.29 0.28 0.26
0.31 0.28 0.24 0.23 0.22 0.21 0.20 0.21 0.23 0.27 0.35 0.37 0.35 0.34 0.35 0.35 0.36 0.36 0.41 0.46 0.51 0.58 0.68 0.71 0.66 0.60 0.55 0.48 0.49 0.43 0.38 0.43 0.31 0.28 0.25 0.21 0.20 0.20 0.20 0.19 0.18 0.17 0.15
0.22 0.21 0.21 0.19 0.18 0.16 0.15 0.17 0.18 0.22 0.28 0.31 0.28 0.26 0.26 0.26 0.27 0.31 0.34 0.40 0.48 0.60 0.67 0.67 0.58 0.50 0.47 0.43 0.49 0.47 0.43 0.43 0.36 0.24 0.21 0.17 0.17 0.15 0.15 0.15 0.14 0.13 0.11
0.20 0.16 0.14 0.14 0.10 0.09 0.08 0.09 0.13 0.17 0.22 0.24 0.23 0.21 0.19 0.18 0.19 0.23 0.27 0.34 0.44 0.57 0.61 0.61 0.56 0.50 0.46 0.47 0.47 0.44 0.46 0.41 0.34 0.26 0.27 0.24 0.24 0.29 0.33 0.27 0.21 0.17 0.12
0.15 0.12 0.11 0.11 0.09 0.06 0.05 0.06 0.08 0.12 0.16 0.20 0.22 0.20 0.17 0.15 0.15 0.18 0.23 0.29 0.38 0.47 0.53 0.56 0.53 0.52 0.49 0.48 0.51 0.50 0.53 0.51 0.47 0.32 0.35 0.29 0.25 0.36 0.41 0.38 0.30 0.20 0.13
0.17 0.16 0.15 0.14 0.13 0.08 0.04 0.03 0.05 0.10 0.16 0.19 0.21 0.22 0.19 0.16 0.20 0.24 0.23 0.23 0.25 0.26 0.35 0.50 0.57 0.56 0.57 0.60 0.67 0.64 0.61 0.60 0.56 0.43 0.50 0.48 0.36 0.43 0.34 0.32 0.36 0.29 0.22
0.21 0.20 0.19 0.17 0.17 0.09 0.04 0.03 0.04 0.12 0.17 0.16 0.16 0.20 0.26 0.26 0.22 0.22 0.22 0.25 0.29 0.32 0.35 0.42 0.57 0.59 0.56 0.59 0.66 0.68 0.65 0.64 0.60 0.56 0.61 0.63 0.45 0.43 0.37 0.54 0.55 0.48 0.36
0.24 0.22 0.21 0.22 0.21 0.13 0.05 0.03 0.05 0.14 0.17 0.14 0.12 0.13 0.14 0.17 0.16 0.19 0.25 0.35 0.39 0.42 0.34 0.42 0.53 0.58 0.59 0.60 0.61 0.64 0.73 0.79 0.75 0.63 0.58 0.63 0.56 0.48 0.50 0.70 0.67 0.67 0.55
0.23 0.20 0.22 0.28 0.25 0.16 0.07 0.05 0.06 0.13 0.18 0.17 0.18 0.18 0.14 0.12 0.15 0.17 0.23 0.35 0.43 0.44 0.50 0.69 0.81 0.81 0.76 0.72 0.66 0.70 0.80 0.82 0.83 0.81 0.65 0.64 0.71 0.63 0.66 0.75 0.81 0.76 0.70

GEFSMA_prec_meanprecacc_144.txt.gz
Total_Precipitation_Accumulation
1.47 1.59 1.52 1.40 1.31 1.34 1.24 1.06 0.91 0.94 0.91 0.76 0.65 0.63 0.66 0.70 0.67 0.72 0.85 0.80 0.80 0.94 1.17 1.27 1.31 1.20 1.14 1.14 1.13 1.04 0.90 0.80 0.74 0.66 0.54 0.47 0.44 0.43 0.44 0.46 0.46 0.43 0.42
1.83 1.93 1.91 1.76 1.59 1.62 1.54 1.41 1.27 1.26 1.16 1.10 1.01 0.89 0.79 0.89 0.90 0.87 1.01 1.04 0.98 1.01 1.24 1.52 1.63 1.56 1.46 1.41 1.31 1.20 1.12 1.03 0.97 0.89 0.80 0.68 0.61 0.56 0.55 0.53 0.53 0.51 0.46
2.22 2.20 2.19 2.01 1.86 1.85 1.89 1.79 1.67 1.57 1.36 1.25 1.19 1.13 1.06 0.99 1.01 1.03 1.25 1.49 1.38 1.32 1.37 1.42 1.50 1.58 1.63 1.69 1.63 1.51 1.44 1.32 1.20 1.14 1.08 0.98 0.87 0.76 0.70 0.66 0.64 0.61 0.56
2.39 2.48 2.47 2.34 2.17 2.06 2.18 2.25 2.11 1.97 1.78 1.67 1.61 1.48 1.31 1.25 1.28 1.42 1.53 1.70 1.82 1.72 1.66 1.48 1.36 1.42 1.60 1.77 1.80 1.75 1.60 1.44 1.34 1.31 1.28 1.22 1.08 0.98 0.88 0.84 0.81 0.76 0.69
2.79 2.79 2.72 2.71 2.66 2.64 2.62 2.45 2.40 2.24 2.20 2.09 1.78 1.68 1.50 1.46 1.52 1.54 1.65 1.70 1.79 1.77 1.73 1.54 1.38 1.36 1.50 1.75 1.85 1.94 1.88 1.75 1.64 1.49 1.37 1.34 1.29 1.19 1.04 0.95 0.92 0.87 0.80
3.28 3.34 3.26 3.18 3.14 3.07 2.88 2.80 2.72 2.50 2.31 2.18 1.85 1.70 1.57 1.50 1.48 1.50 1.52 1.47 1.44 1.41 1.41 1.44 1.52 1.41 1.44 1.54 1.59 1.72 1.84 1.86 1.72 1.62 1.54 1.48 1.41 1.27 1.10 1.01 0.96 0.95 0.94
3.94 3.92 3.76 3.51 3.34 3.33 3.20 3.09 2.88 2.68 2.42 2.23 2.14 1.89 1.58 1.40 1.35 1.27 1.25 1.24 1.23 1.24 1.28 1.31 1.33 1.31 1.30 1.38 1.38 1.45 1.58 1.66 1.65 1.66 1.65 1.57 1.48 1.37 1.26 1.17 1.10 1.06 1.02
4.21 4.18 4.18 4.06 3.78 3.59 3.36 3.11 2.97 2.81 2.46 2.23 2.18 2.10 1.80 1.53 1.26 1.05 0.98 0.98 1.01 1.09 1.12 1.11 1.13 1.18 1.22 1.30 1.39 1.51 1.54 1.57 1.62 1.63 1.58 1.54 1.52 1.51 1.49 1.43 1.35 1.28 1.20
4.49 4.35 4.20 3.95 3.73 3.58 3.42 3.19 2.95 2.80 2.53 2.29 2.15 2.17 2.00 1.75 1.41 1.16 0.97 0.90 0.88 0.91 0.96 0.98 1.01 1.05 1.08 1.16 1.23 1.40 1.49 1.48 1.53 1.55 1.56 1.53 1.51 1.51 1.52 1.52 1.50 1.48 1.44
4.14 3.87 3.73 3.62 3.44 3.14 2.89 2.75 2.60 2.37 2.19 2.06 1.99 1.85 1.73 1.59 1.56 1.47 1.30 1.14 1.08 1.07 1.06 0.99 0.98 1.03 1.05 1.12 1.29 1.40 1.41 1.41 1.52 1.52 1.49 1.50 1.52 1.55 1.57 1.58 1.58 1.60 1.62
3.56 3.29 3.14 2.94 2.71 2.38 2.04 1.94 1.97 1.98 1.90 1.81 1.78 1.74 1.69 1.59 1.50 1.47 1.45 1.34 1.28 1.24 1.22 1.22 1.20 1.17 1.16 1.17 1.24 1.42 1.40 1.27 1.34 1.40 1.45 1.49 1.51 1.53 1.54 1.56 1.56 1.53 1.54
3.00 2.63 2.31 2.01 1.78 1.62 1.43 1.37 1.38 1.44 1.58 1.61 1.65 1.64 1.60 1.56 1.54 1.54 1.50 1.46 1.41 1.34 1.25 1.23 1.24 1.22 1.20 1.20 1.24 1.39 1.21 1.13 1.10 1.13 1.19 1.22 1.24 1.27 1.31 1.38 1.46 1.52 1.59
2.30 2.02 1.75 1.56 1.38 1.28 1.20 1.12 1.07 1.08 1.18 1.30 1.38 1.45 1.49 1.51 1.50 1.53 1.63 1.66 1.56 1.45 1.34 1.28 1.23 1.20 1.21 1.19 1.22 1.29 1.16 1.09 1.01 0.95 0.93 0.93 0.93 0.97 1.05 1.15 1.22 1.28 1.32
1.69 1.43 1.21 1.06 0.97 0.95 0.91 0.88 0.88 0.90 0.94 1.02 1.12 1.22 1.31 1.35 1.36 1.36 1.39 1.45 1.55 1.53 1.37 1.28 1.19 1.11 1.05 0.97 1.00 0.99 0.89 0.95 0.86 0.81 0.78 0.76 0.74 0.73 0.74 0.75 0.77 0.78 0.79
1.08 0.93 0.80 0.73 0.68 0.66 0.64 0.61 0.62 0.68 0.75 0.81 0.86 0.93 1.02 1.09 1.13 1.15 1.19 1.23 1.31 1.38 1.30 1.13 1.07 0.99 0.84 0.74 0.79 0.63 0.61 0.69 0.63 0.58 0.56 0.56 0.55 0.53 0.52 0.52 0.55 0.56 0.57
0.73 0.65 0.56 0.50 0.47 0.44 0.41 0.40 0.41 0.44 0.49 0.57 0.63 0.69 0.78 0.85 0.92 0.97 1.03 1.06 1.06 1.08 1.11 0.98 0.86 0.80 0.70 0.60 0.63 0.49 0.48 0.52 0.47 0.45 0.45 0.46 0.48 0.50 0.49 0.47 0.47 0.48 0.50
0.47 0.41 0.36 0.33 0.32 0.31 0.31 0.33 0.37 0.41 0.44 0.46 0.48 0.52 0.57 0.61 0.68 0.72 0.72 0.74 0.80 0.82 0.85 0.81 0.72 0.65 0.60 0.57 0.55 0.52 0.48 0.45 0.42 0.44 0.42 0.41 0.42 0.43 0.43 0.43 0.42 0.44 0.46
0.35 0.30 0.26 0.25 0.26 0.27 0.26 0.27 0.29 0.35 0.40 0.40 0.39 0.41 0.43 0.46 0.51 0.54 0.57 0.59 0.64 0.70 0.73 0.77 0.73 0.66 0.61 0.57 0.54 0.53 0.42 0.35 0.35 0.39 0.36 0.32 0.32 0.32 0.34 0.34 0.34 0.33 0.33
0.32 0.28 0.25 0.25 0.23 0.22 0.22 0.22 0.23 0.28 0.35 0.38 0.36 0.36 0.36 0.37 0.38 0.37 0.42 0.48 0.54 0.61 0.71 0.73 0.69 0.63 0.57 0.50 0.50 0.44 0.40 0.45 0.33 0.31 0.28 0.24 0.23 0.23 0.22 0.22 0.23 0.22 0.21
0.24 0.23 0.22 0.21 0.19 0.17 0.16 0.17 0.19 0.23 0.28 0.31 0.29 0.28 0.27 0.27 0.28 0.32 0.35 0.42 0.50 0.62 0.69 0.69 0.61 0.53 0.50 0.46 0.51 0.50 0.46 0.46 0.38 0.26 0.24 0.19 0.19 0.18 0.17 0.18 0.18 0.16 0.14
0.20 0.17 0.15 0.15 0.11 0.10 0.09 0.10 0.14 0.18 0.24 0.25 0.24 0.22 0.20 0.19 0.20 0.24 0.28 0.36 0.46 0.60 0.64 0.63 0.58 0.53 0.49 0.50 0.50 0.46 0.48 0.44 0.37 0.27 0.29 0.25 0.26 0.30 0.34 0.29 0.22 0.19 0.14
0.16 0.14 0.12 0.12 0.09 0.07 0.06 0.07 0.09 0.14 0.19 0.23 0.23 0.21 0.18 0.15 0.16 0.19 0.24 0.30 0.40 0.49 0.56 0.60 0.58 0.56 0.52 0.51 0.53 0.52 0.55 0.53 0.48 0.33 0.36 0.30 0.26 0.37 0.42 0.38 0.31 0.21 0.14
0.19 0.19 0.18 0.15 0.14 0.09 0.05 0.04 0.06 0.12 0.17 0.20 0.22 0.22 0.19 0.16 0.21 0.25 0.24 0.24 0.27 0.28 0.38 0.54 0.61 0.60 0.60 0.62 0.68 0.66 0.63 0.61 0.57 0.43 0.51 0.49 0.37 0.43 0.34 0.32 0.36 0.29 0.22
0.24 0.23 0.22 0.20 0.18 0.09 0.04 0.03 0.05 0.13 0.18 0.17 0.17 0.20 0.26 0.26 0.22 0.22 0.23 0.25 0.30 0.33 0.36 0.44 0.59 0.61 0.57 0.60 0.67 0.69 0.67 0.65 0.61 0.57 0.61 0.64 0.45 0.44 0.37 0.54 0.55 0.48 0.36
0.26 0.25 0.24 0.24 0.22 0.13 0.05 0.04 0.07 0.16 0.19 0.16 0.14 0.14 0.15 0.18 0.17 0.19 0.25 0.36 0.40 0.43 0.35 0.44 0.55 0.60 0.60 0.61 0.62 0.66 0.75 0.81 0.76 0.65 0.59 0.63 0.56 0.48 0.50 0.70 0.67 0.67 0.55
0.24 0.22 0.25 0.30 0.26 0.17 0.08 0.06 0.10 0.16 0.21 0.21 0.21 0.20 0.15 0.13 0.15 0.18 0.24 0.36 0.44 0.45 0.51 0.70 0.83 0.83 0.78 0.74 0.68 0.72 0.82 0.84 0.84 0.82 0.65 0.65 0.71 0.63 0.66 0.75 0.81 0.76 0.70

GEFSMA_prec_meanprecacc_150.txt.gz
Total_Precipitation_Accumulation
1.54 1.67 1.60 1.48 1.40 1.43 1.32 1.13 0.97 0.99 0.97 0.82 0.69 0.68 0.71 0.74 0.72 0.76 0.89 0.83 0.84 1.01 1.28 1.41 1.46 1.35 1.29 1.27 1.23 1.14 1.01 0.90 0.83 0.72 0.59 0.51 0.48 0.48 0.49 0.50 0.50 0.48 0.47
1.93 2.04 2.02 1.86 1.69 1.72 1.63 1.48 1.34 1.34 1.24 1.17 1.07 0.95 0.86 0.95 0.94 0.90 1.03 1.06 1.01 1.06 1.33 1.64 1.77 1.69 1.59 1.53 1.41 1.29 1.22 1.15 1.08 1.00 0.89 0.75 0.66 0.61 0.61 0.59 0.59 0.57 0.51
2.31 2.30 2.30 2.12 1.97 1.97 2.00 1.91 1.77 1.68 1.46 1.33 1.26 1.19 1.12 1.05 1.06 1.08 1.28 1.51 1.40 1.36 1.44 1.51 1.60 1.69 1.76 1.83 1.78 1.64 1.54 1.41 1.31 1.25 1.18 1.07 0.95 0.84 0.77 0.73 0.71 0.68 0.63
2.47 2.57 2.54 2.41 2.25 2.13 2.27 2.36 2.23 2.09 1.88 1.77 1.69 1.55 1.36 1.31 1.33 1.47 1.58 1.74 1.86 1.75 1.71 1.55 1.44 1.51 1.71 1.89 1.95 1.92 1.76 1.58 1.46 1.44 1.39 1.31 1.17 1.07 0.96 0.92 0.89 0.83 0.76
2.87 2.87 2.79 2.76 2.71 2.69 2.68 2.53 2.51 2.35 2.32 2.19 1.86 1.76 1.57 1.51 1.56 1.59 1.71 1.77 1.86 1.83 1.78 1.60 1.45 1.43 1.57 1.84 1.96 2.07 2.03 1.91 1.78 1.62 1.49 1.45 1.38 1.27 1.10 1.02 0.99 0.95 0.89
3.34 3.40 3.32 3.24 3.19 3.12 2.95 2.88 2.82 2.61 2.44 2.31 1.98 1.80 1.64 1.57 1.53 1.55 1.57 1.53 1.50 1.47 1.47 1.49 1.56 1.46 1.51 1.62 1.67 1.82 1.99 2.06 1.90 1.76 1.68 1.61 1.51 1.36 1.19 1.10 1.04 1.02 1.01
4.00 3.98 3.82 3.56 3.40 3.39 3.29 3.20 3.00 2.82 2.57 2.36 2.27 2.01 1.67 1.46 1.41 1.31 1.29 1.28 1.27 1.29 1.33 1.36 1.37 1.34 1.34 1.43 1.43 1.53 1.68 1.83 1.84 1.84 1.81 1.72 1.62 1.47 1.35 1.25 1.18 1.13 1.10
4.26 4.23 4.23 4.12 3.86 3.67 3.45 3.21 3.08 2.94 2.59 2.36 2.29 2.23 1.91 1.60 1.31 1.10 1.02 1.02 1.05 1.13 1.16 1.15 1.18 1.21 1.24 1.32 1.41 1.55 1.61 1.65 1.72 1.77 1.73 1.67 1.61 1.59 1.58 1.51 1.43 1.36 1.28
4.57 4.42 4.26 4.01 3.79 3.63 3.50 3.27 3.04 2.91 2.63 2.39 2.26 2.29 2.11 1.83 1.45 1.20 1.01 0.94 0.91 0.94 0.99 1.01 1.04 1.08 1.10 1.18 1.25 1.43 1.54 1.55 1.60 1.64 1.66 1.64 1.60 1.59 1.61 1.61 1.58 1.56 1.51
4.20 3.94 3.78 3.67 3.47 3.17 2.95 2.82 2.67 2.46 2.29 2.14 2.08 1.95 1.82 1.67 1.63 1.52 1.32 1.17 1.10 1.09 1.08 1.01 1.01 1.06 1.08 1.15 1.32 1.42 1.45 1.46 1.58 1.58 1.55 1.56 1.58 1.61 1.63 1.65 1.64 1.66 1.69
3.59 3.33 3.18 2.98 2.74 2.40 2.07 1.97 2.02 2.04 1.97 1.87 1.84 1.81 1.77 1.65 1.56 1.52 1.48 1.36 1.30 1.25 1.24 1.24 1.22 1.20 1.18 1.19 1.26 1.44 1.42 1.30 1.38 1.45 1.51 1.54 1.55 1.57 1.60 1.61 1.61 1.59 1.60
3.01 2.64 2.33 2.03 1.81 1.65 1.46 1.39 1.41 1.48 1.63 1.67 1.69 1.68 1.64 1.61 1.60 1.59 1.53 1.47 1.43 1.35 1.27 1.25 1.26 1.24 1.22 1.21 1.26 1.40 1.23 1.16 1.12 1.16 1.25 1.29 1.29 1.29 1.34 1.42 1.52 1.58 1.66
2.31 2.03 1.76 1.58 1.42 1.32 1.24 1.15 1.11 1.12 1.21 1.33 1.42 1.47 1.52 1.54 1.53 1.56 1.66 1.69 1.57 1.46 1.35 1.30 1.25 1.22 1.22 1.21 1.23 1.31 1.17 1.10 1.03 0.99 0.97 0.98 0.99 1.01 1.08 1.19 1.28 1.36 1.42
1.70 1.44 1.22 1.08 1.00 0.99 0.96 0.94 0.93 0.94 0.97 1.04 1.14 1.25 1.32 1.36 1.38 1.38 1.41 1.47 1.57 1.54 1.39 1.30 1.21 1.13 1.06 0.97 1.01 1.01 0.91 0.96 0.88 0.83 0.81 0.79 0.78 0.76 0.77 0.78 0.80 0.84 0.88
1.09 0.94 0.81 0.74 0.69 0.68 0.69 0.68 0.68 0.72 0.78 0.83 0.87 0.94 1.03 1.10 1.14 1.16 1.21 1.24 1.33 1.40 1.31 1.15 1.08 1.01 0.86 0.75 0.80 0.64 0.62 0.69 0.64 0.60 0.58 0.58 0.58 0.56 0.54 0.55 0.57 0.61 0.63
0.75 0.67 0.58 0.52 0.48 0.45 0.44 0.44 0.46 0.48 0.52 0.59 0.64 0.69 0.79 0.86 0.93 0.97 1.04 1.08 1.08 1.10 1.12 0.99 0.87 0.81 0.71 0.61 0.63 0.50 0.49 0.53 0.48 0.46 0.47 0.48 0.50 0.52 0.51 0.49 0.49 0.51 0.54
0.51 0.44 0.37 0.34 0.33 0.31 0.31 0.35 0.40 0.44 0.46 0.47 0.48 0.52 0.57 0.61 0.69 0.72 0.72 0.76 0.82 0.84 0.87 0.82 0.74 0.66 0.61 0.57 0.56 0.53 0.49 0.46 0.43 0.46 0.44 0.44 0.44 0.45 0.44 0.44 0.44 0.47 0.49
0.37 0.32 0.28 0.26 0.27 0.28 0.27 0.28 0.30 0.36 0.42 0.41 0.39 0.41 0.43 0.46 0.52 0.54 0.57 0.61 0.67 0.73 0.75 0.79 0.75 0.68 0.63 0.58 0.55 0.55 0.43 0.36 0.36 0.41 0.38 0.34 0.33 0.34 0.35 0.35 0.35 0.34 0.34
0.33 0.30 0.27 0.27 0.24 0.23 0.23 0.23 0.24 0.28 0.35 0.38 0.36 0.36 0.37 0.38 0.39 0.38 0.43 0.49 0.56 0.64 0.73 0.75 0.71 0.64 0.58 0.52 0.52 0.46 0.41 0.46 0.35 0.33 0.30 0.26 0.25 0.24 0.24 0.24 0.24 0.23 0.22
0.25 0.23 0.22 0.22 0.21 0.18 0.18 0.19 0.20 0.24 0.29 0.32 0.29 0.28 0.28 0.28 0.30 0.33 0.36 0.43 0.52 0.65 0.71 0.70 0.63 0.55 0.52 0.48 0.53 0.51 0.47 0.47 0.39 0.27 0.25 0.22 0.22 0.20 0.20 0.20 0.19 0.18 0.16
0.22 0.18 0.16 0.16 0.13 0.12 0.11 0.11 0.15 0.20 0.25 0.26 0.24 0.23 0.21 0.20 0.22 0.26 0.30 0.37 0.48 0.62 0.66 0.65 0.60 0.55 0.51 0.52 0.51 0.48 0.49 0.45 0.38 0.29 0.30 0.27 0.27 0.32 0.35 0.30 0.24 0.21 0.16
0.18 0.15 0.14 0.15 0.13 0.09 0.09 0.09 0.11 0.15 0.20 0.24 0.24 0.22 0.19 0.17 0.17 0.21 0.27 0.34 0.43 0.51 0.58 0.62 0.60 0.59 0.54 0.53 0.54 0.53 0.56 0.54 0.50 0.35 0.37 0.31 0.27 0.38 0.42 0.39 0.33 0.23 0.16
0.22 0.20 0.20 0.20 0.20 0.13 0.07 0.05 0.07 0.14 0.19 0.21 0.22 0.23 0.20 0.17 0.22 0.26 0.26 0.26 0.29 0.30 0.40 0.56 0.64 0.62 0.62 0.64 0.70 0.68 0.64 0.63 0.58 0.45 0.52 0.50 0.38 0.44 0.35 0.33 0.37 0.31 0.24
0.25 0.25 0.26 0.26 0.25 0.14 0.07 0.05 0.07 0.15 0.20 0.18 0.18 0.21 0.27 0.27 0.23 0.23 0.23 0.26 0.31 0.35 0.38 0.46 0.61 0.63 0.59 0.62 0.68 0.71 0.69 0.66 0.62 0.58 0.63 0.65 0.46 0.44 0.38 0.54 0.56 0.48 0.37
0.27 0.27 0.29 0.31 0.28 0.18 0.09 0.07 0.10 0.18 0.20 0.18 0.15 0.15 0.16 0.19 0.17 0.20 0.26 0.37 0.41 0.45 0.36 0.45 0.55 0.61 0.62 0.64 0.64 0.67 0.76 0.82 0.77 0.65 0.60 0.64 0.57 0.48 0.51 0.71 0.68 0.67 0.55
0.26 0.23 0.27 0.34 0.30 0.20 0.10 0.09 0.13 0.18 0.22 0.23 0.23 0.22 0.17 0.14 0.16 0.18 0.25 0.36 0.45 0.46 0.52 0.71 0.84 0.84 0.79 0.75 0.69 0.73 0.83 0.85 0.85 0.83 0.65 0.65 0.72 0.64 0.67 0.75 0.81 0.76 0.70

GEFSMA_prec_meanprecacc_156.txt.gz
Total_Precipitation_Accumulation
1.60 1.73 1.67 1.55 1.48 1.53 1.42 1.22 1.08 1.11 1.09 0.94 0.80 0.78 0.81 0.83 0.78 0.82 0.95 0.87 0.87 1.05 1.34 1.51 1.56 1.46 1.39 1.38 1.36 1.27 1.13 1.02 0.91 0.80 0.67 0.58 0.53 0.53 0.54 0.55 0.55 0.53 0.52
1.99 2.11 2.09 1.94 1.76 1.78 1.70 1.56 1.44 1.44 1.36 1.31 1.20 1.06 0.95 1.05 1.02 0.98 1.09 1.10 1.04 1.10 1.38 1.72 1.87 1.80 1.70 1.66 1.54 1.43 1.36 1.29 1.20 1.10 0.97 0.81 0.71 0.65 0.65 0.64 0.64 0.62 0.57
2.37 2.37 2.38 2.19 2.04 2.03 2.06 1.97 1.84 1.77 1.58 1.45 1.38 1.30 1.23 1.16 1.15 1.15 1.34 1.57 1.45 1.41 1.50 1.57 1.68 1.77 1.86 1.96 1.93 1.79 1.70 1.56 1.46 1.41 1.32 1.17 1.02 0.90 0.83 0.79 0.77 0.73 0.68
2.54 2.63 2.60 2.46 2.29 2.18 2.34 2.44 2.31 2.18 1.99 1.90 1.81 1.66 1.47 1.42 1.43 1.55 1.66 1.81 1.93 1.82 1.77 1.60 1.50 1.59 1.80 2.00 2.08 2.05 1.90 1.73 1.62 1.59 1.55 1.47 1.29 1.15 1.03 0.98 0.96 0.89 0.81
2.94 2.94 2.84 2.81 2.76 2.75 2.74 2.59 2.58 2.45 2.44 2.33 1.99 1.85 1.64 1.59 1.65 1.67 1.79 1.85 1.94 1.92 1.87 1.67 1.53 1.51 1.65 1.93 2.05 2.18 2.15 2.04 1.92 1.77 1.66 1.62 1.52 1.37 1.19 1.10 1.06 1.01 0.93
3.38 3.44 3.36 3.27 3.23 3.17 2.99 2.94 2.89 2.71 2.54 2.41 2.07 1.88 1.72 1.63 1.59 1.62 1.64 1.60 1.57 1.55 1.55 1.58 1.67 1.55 1.58 1.68 1.74 1.89 2.09 2.18 2.04 1.91 1.82 1.76 1.64 1.49 1.31 1.19 1.12 1.09 1.07
4.03 4.01 3.85 3.59 3.43 3.43 3.33 3.25 3.06 2.89 2.65 2.44 2.36 2.11 1.75 1.52 1.47 1.37 1.35 1.35 1.34 1.37 1.41 1.45 1.46 1.42 1.41 1.48 1.47 1.58 1.75 1.94 2.00 2.03 2.02 1.91 1.78 1.64 1.48 1.34 1.26 1.22 1.16
4.30 4.26 4.26 4.15 3.89 3.70 3.49 3.26 3.15 3.01 2.68 2.46 2.42 2.36 2.03 1.69 1.38 1.15 1.07 1.07 1.09 1.18 1.21 1.20 1.23 1.28 1.30 1.37 1.45 1.59 1.66 1.73 1.83 1.89 1.86 1.81 1.77 1.74 1.70 1.60 1.49 1.42 1.33
4.59 4.44 4.28 4.03 3.81 3.66 3.54 3.33 3.10 2.98 2.74 2.51 2.38 2.44 2.27 1.98 1.57 1.28 1.07 0.99 0.95 0.98 1.03 1.06 1.09 1.13 1.15 1.22 1.29 1.47 1.58 1.60 1.67 1.70 1.73 1.72 1.69 1.67 1.69 1.68 1.65 1.61 1.56
4.21 3.96 3.81 3.69 3.51 3.22 3.00 2.86 2.71 2.52 2.39 2.26 2.18 2.06 1.94 1.81 1.78 1.64 1.42 1.24 1.16 1.15 1.13 1.06 1.05 1.11 1.13 1.20 1.38 1.48 1.50 1.51 1.63 1.64 1.61 1.62 1.64 1.67 1.70 1.71 1.70 1.72 1.74
3.61 3.35 3.21 3.01 2.77 2.45 2.14 2.03 2.06 2.09 2.05 1.98 1.95 1.91 1.88 1.75 1.67 1.65 1.62 1.47 1.38 1.31 1.28 1.29 1.27 1.24 1.22 1.23 1.31 1.49 1.47 1.34 1.41 1.48 1.55 1.59 1.61 1.62 1.65 1.67 1.67 1.65 1.66
3.05 2.68 2.36 2.06 1.84 1.68 1.49 1.43 1.46 1.53 1.68 1.74 1.80 1.80 1.75 1.70 1.69 1.70 1.65 1.58 1.52 1.43 1.32 1.29 1.29 1.28 1.25 1.24 1.29 1.43 1.26 1.19 1.15 1.18 1.27 1.34 1.36 1.37 1.42 1.50 1.57 1.63 1.72
2.33 2.05 1.79 1.60 1.45 1.35 1.26 1.18 1.15 1.17 1.26 1.39 1.49 1.56 1.63 1.65 1.61 1.65 1.75 1.76 1.63 1.52 1.41 1.34 1.28 1.25 1.25 1.24 1.26 1.32 1.18 1.11 1.04 1.00 0.99 1.02 1.04 1.08 1.16 1.27 1.34 1.40 1.46
1.72 1.45 1.24 1.10 1.02 1.00 0.98 0.97 0.97 0.99 1.03 1.11 1.21 1.31 1.40 1.45 1.46 1.45 1.48 1.54 1.62 1.59 1.44 1.34 1.25 1.16 1.09 1.00 1.04 1.03 0.92 0.97 0.89 0.85 0.83 0.82 0.82 0.82 0.84 0.85 0.87 0.89 0.90
1.10 0.95 0.83 0.77 0.71 0.70 0.70 0.70 0.71 0.76 0.84 0.90 0.93 0.99 1.09 1.15 1.19 1.21 1.26 1.30 1.39 1.45 1.36 1.18 1.11 1.04 0.89 0.77 0.82 0.66 0.64 0.71 0.65 0.60 0.59 0.59 0.60 0.61 0.60 0.62 0.63 0.66 0.66
0.76 0.67 0.59 0.54 0.50 0.47 0.45 0.46 0.49 0.52 0.57 0.65 0.69 0.74 0.83 0.89 0.96 1.00 1.07 1.13 1.13 1.16 1.18 1.03 0.89 0.82 0.72 0.62 0.65 0.51 0.50 0.54 0.48 0.46 0.47 0.49 0.52 0.55 0.55 0.54 0.54 0.54 0.57
0.53 0.45 0.39 0.36 0.35 0.33 0.33 0.37 0.42 0.46 0.49 0.51 0.53 0.55 0.59 0.63 0.70 0.74 0.75 0.79 0.86 0.89 0.92 0.87 0.76 0.68 0.62 0.58 0.57 0.53 0.50 0.47 0.43 0.46 0.44 0.45 0.46 0.47 0.48 0.47 0.47 0.49 0.52
0.39 0.34 0.30 0.29 0.29 0.30 0.28 0.29 0.31 0.37 0.43 0.44 0.42 0.44 0.45 0.47 0.54 0.57 0.60 0.63 0.70 0.77 0.80 0.83 0.78 0.69 0.64 0.59 0.56 0.56 0.44 0.37 0.36 0.41 0.38 0.35 0.35 0.36 0.37 0.37 0.36 0.35 0.36
0.35 0.31 0.29 0.28 0.26 0.24 0.24 0.24 0.25 0.30 0.37 0.40 0.38 0.39 0.39 0.40 0.41 0.40 0.45 0.51 0.58 0.67 0.77 0.79 0.75 0.66 0.60 0.53 0.53 0.47 0.42 0.47 0.35 0.34 0.31 0.27 0.27 0.26 0.27 0.25 0.25 0.24 0.22
0.26 0.25 0.24 0.24 0.23 0.21 0.21 0.22 0.22 0.26 0.31 0.34 0.31 0.30 0.30 0.30 0.32 0.36 0.37 0.45 0.54 0.67 0.75 0.74 0.66 0.57 0.54 0.50 0.54 0.52 0.48 0.48 0.40 0.28 0.27 0.23 0.24 0.22 0.22 0.22 0.20 0.19 0.17
0.24 0.20 0.17 0.18 0.15 0.14 0.14 0.16 0.20 0.23 0.27 0.28 0.26 0.25 0.22 0.21 0.24 0.29 0.32 0.39 0.51 0.65 0.69 0.68 0.63 0.57 0.53 0.54 0.53 0.49 0.51 0.46 0.39 0.29 0.31 0.28 0.29 0.34 0.37 0.32 0.26 0.22 0.17
0.19 0.16 0.15 0.17 0.15 0.12 0.14 0.15 0.15 0.19 0.24 0.27 0.26 0.23 0.20 0.17 0.18 0.23 0.28 0.35 0.44 0.54 0.61 0.66 0.63 0.61 0.57 0.55 0.57 0.55 0.57 0.55 0.51 0.36 0.38 0.33 0.29 0.40 0.44 0.41 0.35 0.24 0.17
0.23 0.22 0.22 0.22 0.24 0.19 0.13 0.12 0.12 0.17 0.22 0.24 0.25 0.25 0.21 0.18 0.22 0.27 0.27 0.27 0.30 0.32 0.43 0.60 0.67 0.65 0.65 0.67 0.73 0.70 0.67 0.65 0.61 0.46 0.53 0.52 0.40 0.46 0.37 0.35 0.39 0.32 0.25
0.28 0.27 0.28 0.28 0.29 0.21 0.13 0.09 0.10 0.18 0.22 0.20 0.20 0.23 0.29 0.28 0.24 0.24 0.24 0.28 0.33 0.36 0.40 0.48 0.63 0.65 0.61 0.64 0.71 0.74 0.72 0.70 0.65 0.60 0.64 0.67 0.48 0.46 0.39 0.56 0.57 0.49 0.38
0.30 0.30 0.32 0.36 0.35 0.25 0.14 0.11 0.14 0.21 0.23 0.20 0.17 0.17 0.18 0.20 0.19 0.21 0.27 0.39 0.43 0.46 0.37 0.45 0.56 0.61 0.62 0.65 0.66 0.69 0.79 0.85 0.80 0.68 0.61 0.66 0.59 0.50 0.52 0.71 0.68 0.67 0.56
0.30 0.26 0.31 0.39 0.35 0.25 0.15 0.13 0.17 0.22 0.26 0.26 0.25 0.24 0.18 0.15 0.18 0.20 0.26 0.38 0.47 0.48 0.52 0.72 0.85 0.84 0.79 0.76 0.70 0.75 0.85 0.87 0.87 0.85 0.67 0.66 0.73 0.65 0.68 0.76 0.82 0.76 0.70

GEFSMA_prec_meanprecacc_162.txt.gz
Total_Precipitation_Accumulation
1.68 1.82 1.75 1.65 1.57 1.62 1.54 1.36 1.20 1.22 1.19 1.03 0.87 0.88 0.91 0.93 0.93 1.04 1.17 1.02 0.97 1.14 1.40 1.56 1.63 1.53 1.46 1.46 1.44 1.34 1.20 1.09 0.98 0.85 0.71 0.62 0.56 0.56 0.56 0.58 0.59 0.57 0.56
2.10 2.22 2.19 2.04 1.86 1.88 1.80 1.67 1.55 1.55 1.47 1.42 1.28 1.15 1.05 1.12 1.11 1.14 1.30 1.29 1.17 1.18 1.45 1.77 1.93 1.87 1.77 1.74 1.61 1.49 1.42 1.36 1.30 1.20 1.05 0.87 0.75 0.70 0.69 0.68 0.68 0.66 0.62
2.49 2.49 2.50 2.32 2.15 2.12 2.15 2.05 1.93 1.88 1.67 1.56 1.49 1.40 1.32 1.25 1.25 1.27 1.47 1.71 1.59 1.51 1.57 1.62 1.73 1.84 1.94 2.05 2.02 1.86 1.76 1.62 1.54 1.50 1.41 1.27 1.12 0.99 0.90 0.84 0.82 0.78 0.73
2.63 2.73 2.73 2.59 2.41 2.28 2.44 2.54 2.42 2.29 2.11 2.03 1.94 1.78 1.59 1.53 1.53 1.64 1.75 1.91 2.07 1.97 1.88 1.68 1.56 1.66 1.89 2.10 2.18 2.15 1.98 1.80 1.69 1.67 1.64 1.57 1.40 1.25 1.12 1.05 1.01 0.95 0.86
3.00 3.01 2.94 2.92 2.87 2.86 2.84 2.68 2.69 2.55 2.55 2.46 2.10 1.95 1.74 1.68 1.75 1.74 1.87 1.94 2.05 2.07 2.04 1.80 1.63 1.62 1.76 2.03 2.14 2.27 2.24 2.13 2.01 1.85 1.74 1.72 1.63 1.48 1.28 1.17 1.13 1.07 0.99
3.43 3.51 3.44 3.35 3.31 3.26 3.09 3.04 2.98 2.80 2.65 2.52 2.17 1.97 1.81 1.70 1.67 1.70 1.72 1.69 1.67 1.67 1.69 1.74 1.85 1.73 1.74 1.81 1.83 1.97 2.16 2.26 2.13 1.99 1.90 1.84 1.72 1.56 1.39 1.27 1.19 1.16 1.14
4.08 4.07 3.92 3.67 3.51 3.51 3.41 3.32 3.14 2.98 2.75 2.55 2.46 2.20 1.83 1.60 1.55 1.46 1.44 1.44 1.44 1.47 1.55 1.60 1.62 1.58 1.56 1.60 1.57 1.65 1.82 2.01 2.08 2.10 2.09 2.00 1.87 1.72 1.58 1.44 1.36 1.30 1.24
4.36 4.32 4.33 4.24 3.98 3.79 3.58 3.35 3.23 3.10 2.77 2.57 2.54 2.48 2.12 1.77 1.45 1.23 1.15 1.14 1.17 1.25 1.29 1.29 1.36 1.41 1.43 1.50 1.56 1.67 1.73 1.79 1.91 1.97 1.93 1.90 1.86 1.83 1.80 1.70 1.58 1.49 1.40
4.64 4.49 4.34 4.10 3.89 3.75 3.62 3.41 3.18 3.06 2.82 2.62 2.50 2.57 2.40 2.09 1.68 1.37 1.15 1.06 1.02 1.05 1.09 1.11 1.16 1.22 1.25 1.32 1.39 1.57 1.67 1.66 1.73 1.77 1.78 1.76 1.74 1.73 1.76 1.77 1.73 1.68 1.62
4.25 3.99 3.84 3.73 3.56 3.29 3.08 2.92 2.77 2.59 2.46 2.35 2.29 2.17 2.06 1.92 1.89 1.76 1.53 1.34 1.23 1.21 1.19 1.11 1.11 1.19 1.23 1.31 1.48 1.57 1.58 1.57 1.68 1.69 1.67 1.66 1.67 1.70 1.74 1.76 1.76 1.77 1.79
3.66 3.39 3.26 3.05 2.82 2.51 2.20 2.09 2.13 2.16 2.11 2.05 2.04 2.00 1.96 1.85 1.76 1.75 1.72 1.59 1.48 1.39 1.34 1.35 1.35 1.32 1.29 1.31 1.39 1.55 1.53 1.39 1.46 1.53 1.60 1.64 1.64 1.65 1.68 1.70 1.71 1.69 1.71
3.13 2.74 2.41 2.11 1.89 1.73 1.53 1.48 1.51 1.60 1.75 1.82 1.89 1.89 1.83 1.78 1.77 1.79 1.74 1.68 1.62 1.51 1.39 1.34 1.35 1.33 1.30 1.30 1.34 1.48 1.30 1.23 1.18 1.21 1.30 1.36 1.38 1.39 1.44 1.53 1.61 1.68 1.76
2.41 2.12 1.85 1.67 1.50 1.40 1.30 1.23 1.21 1.23 1.33 1.46 1.56 1.63 1.71 1.74 1.72 1.75 1.86 1.87 1.73 1.59 1.47 1.38 1.32 1.29 1.29 1.27 1.28 1.35 1.21 1.14 1.06 1.02 1.01 1.03 1.06 1.10 1.18 1.30 1.39 1.46 1.51
1.79 1.52 1.30 1.16 1.07 1.05 1.02 1.04 1.04 1.06 1.09 1.17 1.27 1.38 1.48 1.53 1.55 1.56 1.60 1.67 1.73 1.66 1.49 1.37 1.29 1.20 1.13 1.04 1.07 1.06 0.94 0.99 0.91 0.86 0.85 0.83 0.83 0.83 0.86 0.87 0.91 0.94 0.95
1.16 1.00 0.86 0.81 0.76 0.74 0.75 0.75 0.77 0.82 0.90 0.95 0.98 1.06 1.16 1.23 1.27 1.31 1.37 1.42 1.51 1.54 1.42 1.22 1.15 1.07 0.92 0.80 0.85 0.69 0.66 0.73 0.67 0.62 0.61 0.61 0.62 0.62 0.62 0.64 0.68 0.71 0.71
0.82 0.73 0.63 0.58 0.53 0.50 0.49 0.51 0.54 0.56 0.61 0.69 0.74 0.80 0.88 0.95 1.04 1.09 1.16 1.22 1.23 1.26 1.27 1.10 0.94 0.85 0.76 0.65 0.68 0.54 0.53 0.56 0.50 0.48 0.48 0.50 0.53 0.56 0.56 0.56 0.58 0.61 0.62
0.57 0.49 0.43 0.39 0.38 0.36 0.37 0.42 0.46 0.49 0.51 0.54 0.57 0.61 0.66 0.70 0.79 0.85 0.84 0.87 0.94 0.98 1.01 0.94 0.81 0.71 0.65 0.61 0.60 0.56 0.52 0.49 0.45 0.47 0.45 0.45 0.46 0.48 0.49 0.48 0.49 0.53 0.57
0.42 0.36 0.33 0.31 0.31 0.32 0.31 0.32 0.35 0.39 0.44 0.46 0.46 0.49 0.52 0.54 0.61 0.64 0.66 0.69 0.76 0.84 0.87 0.90 0.84 0.73 0.67 0.62 0.58 0.59 0.46 0.39 0.38 0.43 0.40 0.36 0.36 0.36 0.37 0.37 0.37 0.37 0.38
0.39 0.34 0.30 0.30 0.29 0.27 0.27 0.27 0.28 0.32 0.38 0.42 0.41 0.43 0.45 0.45 0.47 0.46 0.51 0.57 0.65 0.73 0.84 0.86 0.81 0.72 0.63 0.56 0.56 0.50 0.44 0.49 0.37 0.35 0.32 0.29 0.28 0.27 0.27 0.26 0.25 0.25 0.25
0.30 0.28 0.26 0.26 0.25 0.23 0.23 0.24 0.25 0.29 0.32 0.35 0.33 0.33 0.33 0.34 0.38 0.42 0.44 0.52 0.60 0.74 0.81 0.81 0.72 0.64 0.59 0.53 0.58 0.56 0.51 0.50 0.41 0.28 0.28 0.24 0.24 0.23 0.22 0.23 0.22 0.20 0.18
0.27 0.23 0.20 0.20 0.17 0.16 0.16 0.17 0.22 0.26 0.32 0.31 0.29 0.27 0.24 0.23 0.26 0.31 0.35 0.44 0.56 0.70 0.74 0.74 0.68 0.62 0.58 0.58 0.56 0.52 0.54 0.50 0.41 0.31 0.32 0.29 0.30 0.34 0.38 0.34 0.28 0.23 0.18
0.22 0.19 0.18 0.19 0.18 0.14 0.16 0.16 0.18 0.24 0.31 0.32 0.29 0.27 0.22 0.19 0.20 0.25 0.30 0.37 0.48 0.58 0.66 0.71 0.67 0.65 0.61 0.59 0.61 0.58 0.61 0.58 0.55 0.38 0.39 0.34 0.30 0.41 0.46 0.44 0.37 0.25 0.18
0.26 0.25 0.25 0.25 0.27 0.21 0.14 0.13 0.15 0.20 0.26 0.27 0.28 0.28 0.24 0.20 0.25 0.29 0.29 0.28 0.32 0.33 0.45 0.63 0.72 0.69 0.69 0.71 0.78 0.75 0.72 0.70 0.66 0.49 0.55 0.53 0.41 0.47 0.38 0.37 0.42 0.34 0.26
0.32 0.31 0.31 0.31 0.33 0.24 0.15 0.11 0.13 0.20 0.25 0.22 0.23 0.26 0.32 0.32 0.26 0.26 0.26 0.30 0.36 0.38 0.41 0.49 0.66 0.69 0.64 0.67 0.75 0.78 0.78 0.75 0.69 0.63 0.66 0.69 0.50 0.48 0.40 0.58 0.61 0.53 0.40
0.35 0.34 0.37 0.40 0.39 0.28 0.16 0.13 0.16 0.24 0.27 0.24 0.20 0.19 0.21 0.24 0.21 0.23 0.30 0.42 0.46 0.50 0.39 0.46 0.56 0.62 0.63 0.66 0.67 0.71 0.83 0.89 0.85 0.72 0.64 0.69 0.61 0.52 0.54 0.74 0.73 0.72 0.58
0.33 0.30 0.35 0.43 0.39 0.29 0.17 0.14 0.19 0.25 0.30 0.30 0.31 0.29 0.21 0.18 0.20 0.22 0.29 0.41 0.50 0.51 0.55 0.73 0.85 0.85 0.79 0.76 0.70 0.77 0.90 0.92 0.91 0.88 0.70 0.69 0.75 0.68 0.71 0.79 0.85 0.80 0.73

GEFSMA_prec_meanprecacc_168.txt.gz
Total_Precipitation_Accumulation
1.71 1.87 1.80 1.70 1.62 1.67 1.60 1.45 1.28 1.29 1.25 1.08 0.95 0.96 0.99 1.02 1.02 1.14 1.28 1.15 1.09 1.24 1.52 1.69 1.77 1.69 1.61 1.60 1.54 1.43 1.28 1.15 1.03 0.90 0.76 0.66 0.60 0.58 0.59 0.60 0.61 0.59 0.59
2.13 2.27 2.25 2.10 1.91 1.93 1.85 1.72 1.62 1.61 1.53 1.48 1.36 1.24 1.13 1.21 1.21 1.24 1.42 1.41 1.26 1.26 1.54 1.88 2.03 1.99 1.90 1.85 1.71 1.58 1.50 1.45 1.38 1.27 1.11 0.93 0.81 0.74 0.72 0.71 0.71 0.68 0.64
2.53 2.54 2.56 2.37 2.21 2.17 2.21 2.11 2.01 1.95 1.73 1.62 1.55 1.46 1.39 1.32 1.33 1.36 1.56 1.81 1.68 1.61 1.67 1.73 1.82 1.93 2.03 2.15 2.11 1.95 1.83 1.71 1.63 1.58 1.48 1.33 1.17 1.04 0.95 0.89 0.86 0.81 0.75
2.68 2.78 2.78 2.64 2.47 2.35 2.50 2.60 2.49 2.36 2.16 2.08 1.98 1.82 1.63 1.59 1.61 1.73 1.82 1.98 2.14 2.04 1.98 1.79 1.67 1.75 1.98 2.19 2.28 2.24 2.07 1.88 1.77 1.75 1.72 1.64 1.45 1.30 1.17 1.11 1.07 1.00 0.91
3.04 3.06 3.00 2.98 2.93 2.93 2.91 2.75 2.77 2.62 2.60 2.51 2.14 1.99 1.78 1.73 1.82 1.83 1.96 2.01 2.11 2.12 2.10 1.89 1.74 1.70 1.85 2.12 2.24 2.37 2.33 2.22 2.09 1.93 1.83 1.80 1.70 1.54 1.34 1.23 1.18 1.12 1.03
3.46 3.55 3.49 3.41 3.38 3.33 3.17 3.12 3.06 2.87 2.70 2.57 2.21 2.02 1.84 1.74 1.72 1.78 1.82 1.80 1.76 1.75 1.76 1.82 1.95 1.82 1.84 1.90 1.91 2.06 2.26 2.37 2.23 2.07 1.97 1.91 1.79 1.64 1.47 1.35 1.27 1.22 1.18
4.14 4.12 3.97 3.73 3.57 3.57 3.47 3.40 3.22 3.05 2.82 2.62 2.52 2.25 1.87 1.64 1.63 1.59 1.59 1.58 1.56 1.58 1.63 1.66 1.68 1.66 1.67 1.71 1.65 1.74 1.91 2.12 2.19 2.20 2.17 2.08 1.95 1.79 1.64 1.51 1.44 1.38 1.31
4.44 4.38 4.38 4.29 4.04 3.86 3.64 3.42 3.32 3.18 2.84 2.64 2.60 2.53 2.16 1.81 1.51 1.32 1.28 1.27 1.30 1.40 1.39 1.36 1.41 1.49 1.53 1.59 1.62 1.74 1.81 1.88 2.02 2.09 2.04 1.99 1.93 1.90 1.86 1.75 1.64 1.56 1.48
4.73 4.57 4.42 4.17 3.97 3.83 3.69 3.48 3.26 3.12 2.88 2.69 2.58 2.63 2.44 2.13 1.71 1.42 1.24 1.16 1.12 1.17 1.18 1.18 1.21 1.27 1.33 1.38 1.44 1.61 1.72 1.72 1.81 1.86 1.86 1.84 1.82 1.80 1.82 1.82 1.79 1.74 1.68
4.33 4.08 3.94 3.84 3.69 3.40 3.16 3.00 2.84 2.65 2.51 2.39 2.34 2.23 2.11 1.97 1.92 1.79 1.58 1.44 1.34 1.31 1.26 1.17 1.17 1.25 1.29 1.36 1.51 1.60 1.62 1.63 1.74 1.75 1.73 1.73 1.74 1.77 1.80 1.83 1.82 1.83 1.84
3.76 3.49 3.36 3.18 2.96 2.62 2.28 2.16 2.19 2.22 2.18 2.10 2.07 2.04 2.00 1.88 1.80 1.78 1.75 1.64 1.54 1.46 1.39 1.39 1.40 1.40 1.36 1.36 1.42 1.58 1.56 1.43 1.51 1.59 1.66 1.70 1.70 1.72 1.74 1.75 1.75 1.74 1.76
3.23 2.85 2.52 2.22 2.00 1.83 1.61 1.55 1.57 1.67 1.81 1.87 1.94 1.93 1.87 1.82 1.81 1.82 1.77 1.72 1.67 1.58 1.45 1.38 1.39 1.40 1.35 1.34 1.37 1.52 1.33 1.26 1.20 1.23 1.34 1.41 1.43 1.44 1.49 1.58 1.66 1.72 1.82
2.55 2.26 1.95 1.75 1.58 1.47 1.37 1.30 1.28 1.29 1.38 1.51 1.61 1.69 1.75 1.78 1.76 1.79 1.90 1.92 1.77 1.65 1.53 1.43 1.36 1.34 1.33 1.31 1.32 1.39 1.24 1.16 1.08 1.03 1.02 1.06 1.09 1.14 1.21 1.34 1.43 1.49 1.55
1.87 1.60 1.38 1.23 1.14 1.12 1.09 1.09 1.09 1.10 1.13 1.20 1.30 1.41 1.51 1.57 1.59 1.60 1.64 1.72 1.78 1.71 1.53 1.43 1.34 1.25 1.17 1.08 1.11 1.09 0.97 1.02 0.93 0.88 0.86 0.86 0.86 0.87 0.89 0.91 0.95 0.97 0.98
1.20 1.04 0.93 0.90 0.84 0.81 0.81 0.80 0.81 0.85 0.92 0.97 1.01 1.07 1.17 1.24 1.30 1.34 1.40 1.45 1.56 1.59 1.47 1.27 1.21 1.14 0.98 0.85 0.89 0.73 0.69 0.75 0.68 0.64 0.63 0.63 0.65 0.65 0.65 0.67 0.71 0.74 0.73
0.84 0.77 0.69 0.64 0.59 0.56 0.55 0.56 0.58 0.59 0.64 0.72 0.76 0.81 0.90 0.97 1.06 1.12 1.21 1.27 1.28 1.31 1.32 1.14 0.98 0.91 0.82 0.71 0.75 0.59 0.56 0.59 0.51 0.49 0.49 0.51 0.54 0.59 0.59 0.59 0.61 0.63 0.65
0.59 0.52 0.47 0.44 0.43 0.43 0.43 0.48 0.51 0.53 0.54 0.56 0.59 0.63 0.68 0.72 0.81 0.88 0.89 0.92 1.00 1.04 1.07 1.00 0.85 0.75 0.70 0.66 0.64 0.60 0.56 0.52 0.47 0.48 0.46 0.47 0.48 0.49 0.51 0.51 0.51 0.55 0.60
0.44 0.39 0.36 0.35 0.36 0.36 0.36 0.37 0.39 0.42 0.47 0.48 0.49 0.51 0.53 0.57 0.63 0.67 0.70 0.74 0.82 0.89 0.91 0.94 0.87 0.76 0.71 0.68 0.63 0.63 0.49 0.41 0.40 0.44 0.41 0.37 0.38 0.37 0.39 0.39 0.39 0.39 0.42
0.41 0.37 0.33 0.32 0.31 0.30 0.29 0.29 0.30 0.33 0.39 0.43 0.42 0.44 0.46 0.47 0.49 0.49 0.54 0.62 0.70 0.79 0.88 0.89 0.84 0.76 0.68 0.61 0.61 0.54 0.47 0.51 0.38 0.36 0.33 0.30 0.30 0.29 0.28 0.27 0.27 0.27 0.28
0.31 0.30 0.28 0.28 0.27 0.25 0.24 0.25 0.26 0.29 0.33 0.36 0.34 0.34 0.34 0.36 0.39 0.44 0.47 0.57 0.66 0.79 0.86 0.85 0.76 0.68 0.64 0.60 0.66 0.63 0.56 0.53 0.43 0.30 0.29 0.26 0.26 0.25 0.24 0.25 0.23 0.21 0.21
0.28 0.24 0.21 0.21 0.18 0.17 0.17 0.19 0.23 0.27 0.33 0.32 0.30 0.27 0.24 0.24 0.28 0.34 0.39 0.48 0.61 0.75 0.78 0.77 0.71 0.66 0.61 0.63 0.63 0.58 0.60 0.55 0.44 0.33 0.34 0.30 0.31 0.35 0.40 0.36 0.29 0.25 0.20
0.23 0.20 0.18 0.20 0.19 0.15 0.17 0.18 0.19 0.25 0.32 0.33 0.31 0.27 0.22 0.19 0.21 0.26 0.32 0.39 0.50 0.61 0.69 0.74 0.69 0.67 0.63 0.63 0.65 0.63 0.66 0.65 0.60 0.41 0.41 0.35 0.30 0.41 0.46 0.45 0.38 0.27 0.20
0.27 0.25 0.25 0.26 0.28 0.22 0.15 0.14 0.16 0.22 0.28 0.29 0.29 0.30 0.25 0.21 0.26 0.31 0.30 0.30 0.33 0.36 0.48 0.65 0.74 0.71 0.71 0.74 0.82 0.79 0.75 0.74 0.71 0.53 0.58 0.55 0.43 0.49 0.39 0.38 0.43 0.35 0.27
0.33 0.32 0.32 0.32 0.34 0.25 0.16 0.11 0.14 0.21 0.26 0.24 0.24 0.27 0.33 0.33 0.27 0.28 0.28 0.32 0.38 0.40 0.43 0.50 0.67 0.71 0.67 0.70 0.79 0.82 0.81 0.78 0.73 0.67 0.69 0.71 0.51 0.49 0.42 0.59 0.62 0.53 0.41
0.36 0.35 0.38 0.41 0.41 0.29 0.18 0.14 0.17 0.25 0.28 0.25 0.21 0.21 0.22 0.25 0.22 0.25 0.32 0.44 0.49 0.52 0.41 0.47 0.58 0.64 0.65 0.68 0.69 0.74 0.86 0.93 0.88 0.75 0.67 0.70 0.62 0.53 0.55 0.75 0.74 0.73 0.60
0.35 0.32 0.37 0.45 0.42 0.32 0.21 0.17 0.20 0.25 0.30 0.31 0.32 0.30 0.22 0.18 0.21 0.24 0.32 0.45 0.54 0.54 0.57 0.75 0.87 0.86 0.81 0.78 0.72 0.78 0.92 0.95 0.95 0.91 0.72 0.71 0.76 0.69 0.72 0.80 0.86 0.82 0.75

GEFSMA_prec_meanprecacc_174.txt.gz
Total_Precipitation_Accumulation
1.72 1.88 1.82 1.73 1.65 1.70 1.63 1.48 1.31 1.33 1.29 1.12 0.99 0.99 1.02 1.04 1.05 1.17 1.31 1.19 1.16 1.33 1.65 1.84 1.93 1.86 1.79 1.77 1.70 1.59 1.44 1.28 1.14 1.00 0.85 0.74 0.66 0.64 0.64 0.65 0.66 0.63 0.63
2.15 2.29 2.27 2.12 1.93 1.95 1.88 1.75 1.66 1.67 1.59 1.53 1.40 1.28 1.17 1.25 1.23 1.27 1.45 1.45 1.33 1.36 1.68 2.03 2.21 2.18 2.11 2.05 1.90 1.73 1.65 1.59 1.51 1.38 1.23 1.04 0.91 0.82 0.79 0.76 0.76 0.73 0.68
2.56 2.57 2.59 2.40 2.23 2.20 2.24 2.15 2.05 2.00 1.79 1.68 1.61 1.53 1.45 1.36 1.36 1.39 1.59 1.84 1.73 1.69 1.78 1.85 1.96 2.09 2.20 2.34 2.31 2.12 1.99 1.86 1.77 1.70 1.58 1.43 1.27 1.12 1.04 0.97 0.94 0.88 0.81
2.72 2.82 2.81 2.69 2.52 2.39 2.55 2.66 2.55 2.42 2.23 2.14 2.04 1.89 1.70 1.64 1.65 1.77 1.87 2.03 2.20 2.11 2.07 1.89 1.77 1.86 2.11 2.33 2.42 2.40 2.23 2.01 1.90 1.88 1.83 1.74 1.55 1.39 1.25 1.20 1.16 1.07 0.98
3.10 3.13 3.07 3.07 3.01 2.99 2.98 2.81 2.85 2.70 2.68 2.59 2.22 2.07 1.84 1.79 1.87 1.87 2.01 2.07 2.18 2.18 2.15 1.95 1.82 1.80 1.97 2.25 2.35 2.49 2.48 2.36 2.22 2.05 1.95 1.91 1.80 1.64 1.43 1.33 1.28 1.20 1.09
3.56 3.66 3.60 3.51 3.49 3.43 3.25 3.19 3.13 2.96 2.79 2.67 2.30 2.08 1.90 1.78 1.77 1.83 1.87 1.85 1.84 1.82 1.82 1.88 2.02 1.89 1.92 1.99 2.01 2.16 2.36 2.49 2.36 2.20 2.09 2.02 1.89 1.72 1.55 1.44 1.37 1.32 1.26
4.24 4.23 4.07 3.82 3.68 3.69 3.58 3.51 3.32 3.14 2.92 2.72 2.61 2.33 1.93 1.69 1.67 1.63 1.63 1.63 1.63 1.66 1.71 1.74 1.76 1.72 1.73 1.77 1.71 1.81 1.99 2.23 2.30 2.31 2.29 2.19 2.06 1.89 1.73 1.59 1.54 1.50 1.42
4.51 4.46 4.46 4.37 4.14 3.95 3.76 3.55 3.45 3.29 2.94 2.75 2.70 2.61 2.22 1.86 1.53 1.35 1.32 1.31 1.36 1.51 1.51 1.47 1.51 1.57 1.60 1.64 1.68 1.80 1.88 1.97 2.13 2.20 2.15 2.10 2.04 2.01 1.96 1.84 1.71 1.65 1.58
4.79 4.64 4.49 4.26 4.07 3.94 3.81 3.61 3.39 3.24 2.99 2.80 2.68 2.72 2.52 2.18 1.73 1.44 1.26 1.19 1.17 1.25 1.30 1.32 1.32 1.36 1.42 1.47 1.50 1.68 1.78 1.79 1.90 1.96 1.97 1.95 1.94 1.92 1.93 1.91 1.87 1.81 1.76
4.40 4.16 4.04 3.94 3.78 3.50 3.27 3.12 2.98 2.78 2.63 2.50 2.45 2.32 2.20 2.03 1.97 1.82 1.60 1.46 1.38 1.36 1.34 1.29 1.26 1.33 1.36 1.44 1.57 1.67 1.69 1.70 1.82 1.83 1.81 1.80 1.83 1.88 1.93 1.96 1.94 1.93 1.92
3.82 3.56 3.44 3.27 3.05 2.71 2.37 2.25 2.29 2.33 2.28 2.20 2.17 2.14 2.09 1.95 1.86 1.82 1.78 1.66 1.58 1.49 1.45 1.48 1.47 1.47 1.44 1.44 1.47 1.63 1.62 1.49 1.57 1.64 1.72 1.76 1.75 1.79 1.83 1.87 1.88 1.87 1.88
3.28 2.92 2.59 2.30 2.08 1.90 1.68 1.62 1.65 1.74 1.90 1.97 2.04 2.02 1.95 1.88 1.86 1.86 1.81 1.78 1.73 1.62 1.50 1.45 1.46 1.45 1.43 1.41 1.44 1.57 1.38 1.30 1.25 1.27 1.39 1.47 1.49 1.49 1.56 1.67 1.76 1.82 1.91
2.59 2.29 1.99 1.82 1.65 1.55 1.46 1.39 1.35 1.36 1.45 1.58 1.69 1.78 1.83 1.83 1.81 1.85 1.95 1.98 1.83 1.71 1.59 1.49 1.42 1.39 1.40 1.38 1.38 1.44 1.28 1.20 1.12 1.07 1.06 1.10 1.13 1.17 1.26 1.40 1.52 1.60 1.66
1.88 1.61 1.40 1.25 1.17 1.16 1.14 1.16 1.15 1.16 1.19 1.25 1.35 1.47 1.60 1.66 1.66 1.66 1.69 1.77 1.83 1.76 1.57 1.47 1.38 1.30 1.24 1.14 1.16 1.14 1.01 1.06 0.97 0.92 0.89 0.88 0.89 0.89 0.92 0.94 0.99 1.04 1.06
1.21 1.05 0.94 0.91 0.86 0.84 0.85 0.85 0.86 0.90 0.97 1.02 1.05 1.11 1.20 1.29 1.35 1.40 1.45 1.50 1.61 1.65 1.51 1.30 1.24 1.19 1.05 0.93 0.96 0.77 0.73 0.80 0.73 0.68 0.65 0.65 0.66 0.67 0.67 0.71 0.75 0.78 0.78
0.86 0.79 0.71 0.66 0.61 0.58 0.59 0.61 0.62 0.63 0.69 0.77 0.80 0.85 0.93 1.00 1.10 1.16 1.24 1.31 1.32 1.36 1.36 1.17 1.00 0.96 0.89 0.78 0.82 0.65 0.62 0.64 0.56 0.54 0.52 0.54 0.57 0.61 0.61 0.62 0.64 0.67 0.69
0.60 0.54 0.49 0.45 0.45 0.45 0.47 0.53 0.58 0.59 0.59 0.61 0.64 0.68 0.72 0.75 0.83 0.90 0.90 0.94 1.03 1.09 1.12 1.04 0.89 0.79 0.76 0.72 0.70 0.68 0.62 0.58 0.51 0.52 0.49 0.49 0.50 0.52 0.53 0.53 0.53 0.58 0.64
0.45 0.40 0.37 0.36 0.38 0.39 0.39 0.41 0.44 0.48 0.53 0.54 0.53 0.55 0.58 0.60 0.66 0.69 0.72 0.75 0.83 0.91 0.95 1.00 0.93 0.82 0.75 0.72 0.68 0.69 0.56 0.47 0.45 0.48 0.44 0.40 0.40 0.40 0.41 0.40 0.40 0.41 0.43
0.41 0.37 0.34 0.33 0.32 0.31 0.31 0.32 0.33 0.36 0.42 0.47 0.46 0.49 0.51 0.52 0.53 0.52 0.57 0.64 0.72 0.81 0.92 0.93 0.88 0.80 0.71 0.64 0.65 0.59 0.54 0.59 0.44 0.41 0.37 0.32 0.32 0.31 0.30 0.29 0.28 0.28 0.29
0.32 0.31 0.29 0.30 0.29 0.27 0.27 0.27 0.28 0.30 0.35 0.39 0.38 0.38 0.40 0.42 0.45 0.49 0.50 0.59 0.68 0.82 0.90 0.89 0.80 0.72 0.67 0.62 0.70 0.68 0.63 0.61 0.51 0.36 0.34 0.29 0.28 0.26 0.26 0.26 0.24 0.23 0.23
0.30 0.26 0.23 0.24 0.20 0.19 0.19 0.20 0.24 0.29 0.35 0.35 0.33 0.31 0.30 0.29 0.34 0.40 0.42 0.50 0.63 0.78 0.81 0.80 0.75 0.69 0.65 0.66 0.67 0.63 0.67 0.63 0.52 0.39 0.39 0.35 0.34 0.37 0.41 0.37 0.30 0.26 0.22
0.25 0.22 0.21 0.23 0.21 0.16 0.18 0.19 0.20 0.26 0.33 0.35 0.32 0.29 0.25 0.23 0.25 0.31 0.35 0.42 0.54 0.64 0.72 0.77 0.73 0.70 0.66 0.66 0.69 0.69 0.72 0.72 0.67 0.47 0.47 0.40 0.34 0.44 0.47 0.45 0.39 0.28 0.21
0.29 0.27 0.27 0.27 0.29 0.23 0.16 0.15 0.17 0.22 0.29 0.31 0.31 0.31 0.27 0.24 0.29 0.34 0.33 0.32 0.36 0.39 0.50 0.68 0.77 0.75 0.76 0.79 0.88 0.86 0.82 0.81 0.77 0.59 0.63 0.59 0.46 0.51 0.41 0.39 0.44 0.36 0.28
0.34 0.33 0.33 0.34 0.35 0.26 0.16 0.12 0.14 0.22 0.27 0.25 0.25 0.29 0.35 0.36 0.30 0.32 0.31 0.35 0.40 0.42 0.44 0.52 0.69 0.73 0.70 0.75 0.84 0.88 0.88 0.86 0.79 0.73 0.75 0.75 0.54 0.51 0.43 0.60 0.63 0.55 0.43
0.38 0.37 0.39 0.42 0.41 0.30 0.19 0.16 0.18 0.26 0.30 0.26 0.23 0.22 0.23 0.26 0.24 0.27 0.33 0.46 0.50 0.54 0.42 0.49 0.60 0.66 0.68 0.72 0.74 0.79 0.92 1.00 0.95 0.81 0.72 0.74 0.66 0.56 0.57 0.77 0.75 0.75 0.62
0.37 0.33 0.38 0.46 0.42 0.33 0.22 0.18 0.21 0.26 0.31 0.32 0.33 0.31 0.22 0.19 0.21 0.24 0.32 0.46 0.55 0.54 0.59 0.77 0.89 0.88 0.83 0.81 0.75 0.82 0.96 1.01 1.00 0.96 0.77 0.75 0.80 0.73 0.76 0.83 0.89 0.84 0.77

GEFSMA_prec_meanprecacc_180.txt.gz
Total_Precipitation_Accumulation
1.76 1.92 1.86 1.78 1.72 1.79 1.72 1.56 1.37 1.38 1.34 1.17 1.04 1.05 1.10 1.13 1.13 1.25 1.36 1.22 1.21 1.40 1.76 1.98 2.07 1.99 1.93 1.91 1.86 1.75 1.59 1.43 1.28 1.13 0.98 0.87 0.78 0.73 0.72 0.72 0.73 0.70 0.69
2.20 2.34 2.33 2.19 2.01 2.03 1.97 1.84 1.74 1.76 1.67 1.61 1.47 1.35 1.24 1.33 1.33 1.36 1.53 1.51 1.36 1.40 1.77 2.17 2.37 2.35 2.25 2.19 2.03 1.86 1.78 1.72 1.63 1.50 1.35 1.17 1.03 0.94 0.89 0.85 0.83 0.80 0.75
2.63 2.68 2.71 2.49 2.31 2.27 2.31 2.22 2.13 2.10 1.87 1.77 1.70 1.61 1.52 1.42 1.43 1.48 1.66 1.91 1.78 1.74 1.85 1.95 2.07 2.21 2.34 2.48 2.46 2.28 2.13 2.00 1.90 1.82 1.70 1.56 1.39 1.24 1.13 1.06 1.03 0.96 0.90
2.79 2.90 2.90 2.77 2.60 2.47 2.62 2.73 2.64 2.50 2.32 2.25 2.15 1.99 1.79 1.72 1.71 1.84 1.94 2.11 2.28 2.19 2.14 1.97 1.87 1.98 2.24 2.47 2.59 2.60 2.40 2.17 2.06 2.03 1.98 1.88 1.67 1.51 1.36 1.29 1.25 1.16 1.07
3.17 3.19 3.13 3.13 3.09 3.07 3.05 2.89 2.94 2.79 2.78 2.69 2.32 2.18 1.94 1.88 1.96 1.96 2.10 2.14 2.25 2.25 2.23 2.02 1.91 1.92 2.10 2.40 2.50 2.66 2.65 2.53 2.40 2.24 2.12 2.07 1.94 1.75 1.53 1.42 1.38 1.30 1.19
3.62 3.74 3.68 3.60 3.58 3.52 3.33 3.28 3.24 3.06 2.90 2.79 2.43 2.20 1.99 1.88 1.86 1.93 1.97 1.94 1.91 1.88 1.89 1.96 2.10 1.97 2.03 2.13 2.15 2.31 2.51 2.63 2.53 2.39 2.28 2.18 2.03 1.83 1.63 1.53 1.46 1.44 1.38
4.29 4.30 4.15 3.91 3.78 3.78 3.69 3.64 3.45 3.27 3.03 2.85 2.74 2.45 2.03 1.77 1.76 1.72 1.73 1.72 1.71 1.72 1.76 1.81 1.84 1.82 1.83 1.89 1.84 1.94 2.13 2.36 2.44 2.47 2.46 2.35 2.21 2.01 1.81 1.66 1.60 1.57 1.53
4.57 4.53 4.53 4.45 4.23 4.06 3.86 3.67 3.58 3.43 3.09 2.90 2.86 2.76 2.35 1.96 1.61 1.43 1.42 1.40 1.43 1.57 1.56 1.53 1.62 1.70 1.72 1.76 1.78 1.90 1.98 2.08 2.25 2.33 2.29 2.24 2.17 2.14 2.07 1.92 1.78 1.71 1.66
4.87 4.72 4.57 4.33 4.18 4.06 3.93 3.72 3.51 3.38 3.15 2.96 2.83 2.88 2.66 2.30 1.83 1.52 1.34 1.27 1.24 1.32 1.35 1.38 1.42 1.51 1.58 1.62 1.64 1.79 1.86 1.86 1.98 2.06 2.07 2.06 2.06 2.05 2.06 2.02 1.95 1.88 1.81
4.47 4.23 4.10 4.01 3.86 3.58 3.34 3.19 3.08 2.92 2.78 2.65 2.59 2.46 2.33 2.17 2.13 1.95 1.69 1.53 1.44 1.41 1.38 1.35 1.37 1.45 1.49 1.58 1.71 1.76 1.75 1.75 1.87 1.89 1.89 1.90 1.93 1.99 2.05 2.10 2.06 2.02 2.00
3.87 3.62 3.49 3.31 3.09 2.74 2.42 2.31 2.38 2.43 2.39 2.32 2.29 2.28 2.23 2.08 2.00 1.97 1.90 1.76 1.64 1.53 1.48 1.54 1.54 1.54 1.52 1.53 1.56 1.70 1.68 1.54 1.61 1.69 1.78 1.82 1.83 1.87 1.94 2.00 2.03 2.00 2.00
3.31 2.93 2.61 2.32 2.10 1.92 1.72 1.68 1.71 1.81 1.99 2.07 2.15 2.15 2.11 2.03 2.00 1.99 1.93 1.90 1.82 1.69 1.55 1.50 1.51 1.50 1.50 1.50 1.51 1.63 1.44 1.35 1.29 1.32 1.43 1.51 1.53 1.55 1.63 1.76 1.90 1.98 2.05
2.60 2.31 2.01 1.83 1.67 1.57 1.48 1.43 1.40 1.41 1.51 1.65 1.77 1.87 1.95 1.95 1.93 1.96 2.07 2.09 1.93 1.80 1.68 1.56 1.48 1.44 1.45 1.45 1.44 1.50 1.33 1.24 1.15 1.11 1.10 1.16 1.18 1.22 1.30 1.45 1.59 1.70 1.77
1.89 1.62 1.41 1.26 1.18 1.17 1.16 1.20 1.22 1.23 1.24 1.31 1.41 1.55 1.69 1.75 1.75 1.74 1.77 1.86 1.91 1.83 1.64 1.53 1.44 1.36 1.30 1.20 1.22 1.20 1.05 1.10 1.00 0.96 0.93 0.93 0.95 0.94 0.96 0.98 1.05 1.10 1.14
1.22 1.06 0.94 0.92 0.87 0.85 0.87 0.88 0.92 0.99 1.07 1.10 1.13 1.20 1.29 1.36 1.43 1.49 1.54 1.59 1.69 1.72 1.58 1.36 1.29 1.24 1.10 0.98 1.01 0.83 0.79 0.85 0.78 0.72 0.70 0.70 0.71 0.72 0.73 0.76 0.80 0.84 0.85
0.87 0.80 0.72 0.66 0.61 0.59 0.60 0.63 0.66 0.70 0.78 0.87 0.91 0.95 1.03 1.07 1.16 1.24 1.33 1.39 1.40 1.44 1.43 1.22 1.04 0.99 0.93 0.83 0.87 0.70 0.68 0.71 0.63 0.60 0.57 0.59 0.62 0.66 0.67 0.67 0.68 0.71 0.74
0.61 0.55 0.50 0.46 0.45 0.46 0.48 0.54 0.60 0.62 0.65 0.70 0.75 0.81 0.86 0.85 0.91 0.97 0.98 1.02 1.11 1.16 1.19 1.10 0.93 0.83 0.80 0.77 0.75 0.73 0.67 0.64 0.58 0.57 0.55 0.54 0.56 0.57 0.59 0.58 0.57 0.61 0.67
0.46 0.42 0.38 0.37 0.38 0.39 0.40 0.42 0.46 0.51 0.57 0.61 0.64 0.68 0.73 0.73 0.76 0.79 0.81 0.84 0.91 0.99 1.03 1.07 0.99 0.87 0.79 0.77 0.74 0.74 0.60 0.51 0.50 0.52 0.47 0.44 0.44 0.44 0.47 0.47 0.46 0.45 0.47
0.43 0.39 0.35 0.34 0.33 0.32 0.32 0.33 0.35 0.38 0.45 0.51 0.54 0.59 0.63 0.63 0.62 0.60 0.65 0.72 0.79 0.87 0.98 0.98 0.93 0.84 0.76 0.69 0.71 0.64 0.57 0.63 0.48 0.46 0.42 0.37 0.36 0.34 0.34 0.34 0.34 0.33 0.33
0.33 0.32 0.30 0.31 0.30 0.28 0.28 0.28 0.29 0.32 0.37 0.41 0.42 0.45 0.51 0.55 0.55 0.55 0.57 0.68 0.76 0.88 0.95 0.94 0.85 0.76 0.70 0.66 0.75 0.75 0.69 0.66 0.55 0.40 0.40 0.34 0.33 0.30 0.30 0.30 0.29 0.26 0.26
0.31 0.27 0.25 0.25 0.21 0.20 0.19 0.21 0.25 0.30 0.36 0.37 0.36 0.35 0.36 0.42 0.48 0.49 0.49 0.58 0.70 0.84 0.86 0.84 0.79 0.73 0.68 0.70 0.72 0.70 0.74 0.69 0.57 0.45 0.46 0.42 0.42 0.45 0.48 0.42 0.35 0.30 0.24
0.26 0.23 0.22 0.24 0.22 0.17 0.19 0.19 0.21 0.27 0.34 0.36 0.34 0.32 0.28 0.27 0.33 0.39 0.40 0.47 0.60 0.71 0.76 0.80 0.76 0.74 0.70 0.71 0.75 0.75 0.79 0.80 0.75 0.53 0.54 0.47 0.42 0.52 0.55 0.52 0.44 0.31 0.24
0.30 0.28 0.28 0.29 0.31 0.25 0.17 0.15 0.17 0.23 0.31 0.32 0.32 0.33 0.29 0.28 0.33 0.40 0.38 0.35 0.40 0.44 0.54 0.71 0.80 0.79 0.80 0.84 0.92 0.91 0.88 0.88 0.86 0.67 0.71 0.67 0.54 0.59 0.48 0.43 0.48 0.39 0.31
0.36 0.35 0.35 0.36 0.38 0.28 0.17 0.13 0.15 0.22 0.29 0.26 0.27 0.31 0.37 0.39 0.34 0.36 0.36 0.39 0.44 0.46 0.48 0.55 0.72 0.76 0.73 0.78 0.87 0.92 0.93 0.90 0.85 0.80 0.83 0.83 0.61 0.59 0.51 0.68 0.69 0.58 0.45
0.39 0.39 0.41 0.44 0.43 0.32 0.20 0.16 0.19 0.27 0.32 0.28 0.24 0.23 0.25 0.28 0.27 0.33 0.39 0.51 0.54 0.58 0.46 0.52 0.62 0.67 0.69 0.73 0.76 0.82 0.95 1.04 1.00 0.87 0.79 0.81 0.72 0.62 0.64 0.84 0.82 0.80 0.64
0.38 0.34 0.39 0.48 0.44 0.35 0.23 0.19 0.22 0.27 0.33 0.34 0.35 0.33 0.25 0.22 0.23 0.27 0.38 0.52 0.60 0.60 0.64 0.80 0.91 0.90 0.85 0.82 0.76 0.84 1.00 1.07 1.07 1.02 0.84 0.83 0.87 0.80 0.84 0.90 0.96 0.90 0.82

GEFSMA_prec_meanprecacc_186.txt.gz
Total_Precipitation_Accumulation
1.82 1.98 1.93 1.85 1.79 1.87 1.79 1.64 1.44 1.44 1.41 1.23 1.07 1.07 1.12 1.14 1.15 1.26 1.38 1.27 1.24 1.44 1.80 2.04 2.12 2.05 2.00 1.99 1.95 1.84 1.70 1.55 1.41 1.24 1.10 0.98 0.89 0.84 0.81 0.82 0.83 0.80 0.77
2.26 2.42 2.41 2.29 2.08 2.09 2.04 1.92 1.82 1.85 1.77 1.69 1.51 1.38 1.28 1.38 1.36 1.41 1.60 1.62 1.43 1.44 1.80 2.22 2.43 2.41 2.32 2.28 2.13 1.96 1.88 1.84 1.77 1.63 1.47 1.28 1.13 1.04 0.99 0.94 0.93 0.90 0.85
2.71 2.77 2.81 2.58 2.39 2.35 2.41 2.32 2.23 2.20 1.96 1.85 1.77 1.69 1.57 1.48 1.47 1.53 1.73 1.99 1.86 1.81 1.90 1.99 2.12 2.27 2.42 2.58 2.56 2.38 2.23 2.10 2.02 1.95 1.82 1.67 1.50 1.34 1.25 1.17 1.12 1.05 0.99
2.86 2.97 2.97 2.85 2.70 2.57 2.73 2.84 2.75 2.63 2.44 2.39 2.27 2.08 1.86 1.78 1.76 1.90 2.00 2.18 2.36 2.27 2.23 2.06 1.94 2.04 2.30 2.54 2.69 2.71 2.51 2.27 2.14 2.12 2.09 2.01 1.81 1.64 1.48 1.41 1.36 1.26 1.15
3.23 3.27 3.21 3.22 3.18 3.16 3.14 2.98 3.06 2.93 2.92 2.83 2.45 2.29 2.02 1.95 2.04 2.02 2.15 2.20 2.33 2.34 2.33 2.14 2.01 2.01 2.17 2.47 2.60 2.78 2.77 2.64 2.52 2.36 2.25 2.22 2.09 1.89 1.66 1.54 1.49 1.40 1.28
3.66 3.80 3.74 3.66 3.65 3.60 3.42 3.38 3.36 3.18 3.01 2.91 2.53 2.31 2.09 1.97 1.97 2.03 2.05 2.02 2.00 1.97 1.98 2.06 2.22 2.06 2.11 2.20 2.24 2.42 2.63 2.78 2.67 2.53 2.42 2.33 2.21 2.01 1.79 1.66 1.57 1.55 1.48
4.34 4.36 4.21 3.98 3.87 3.88 3.80 3.75 3.57 3.38 3.14 2.99 2.88 2.57 2.14 1.88 1.87 1.84 1.84 1.83 1.81 1.82 1.85 1.92 1.95 1.92 1.93 1.98 1.93 2.03 2.24 2.49 2.58 2.62 2.62 2.51 2.37 2.18 1.98 1.81 1.72 1.67 1.62
4.64 4.60 4.61 4.54 4.32 4.14 3.96 3.78 3.70 3.53 3.19 3.04 2.99 2.88 2.46 2.08 1.74 1.53 1.53 1.52 1.54 1.69 1.67 1.65 1.74 1.83 1.84 1.89 1.91 2.01 2.10 2.21 2.39 2.47 2.43 2.36 2.29 2.26 2.20 2.05 1.89 1.80 1.73
4.92 4.77 4.62 4.40 4.25 4.14 4.00 3.80 3.60 3.47 3.24 3.07 2.96 3.02 2.79 2.42 1.94 1.62 1.44 1.35 1.32 1.42 1.48 1.53 1.57 1.63 1.69 1.74 1.78 1.92 1.99 1.98 2.10 2.18 2.20 2.18 2.16 2.15 2.16 2.13 2.05 1.97 1.89
4.50 4.26 4.13 4.05 3.90 3.62 3.39 3.24 3.14 2.99 2.86 2.73 2.69 2.59 2.47 2.32 2.28 2.08 1.80 1.63 1.55 1.52 1.51 1.48 1.49 1.56 1.59 1.68 1.84 1.91 1.87 1.86 1.97 1.98 1.98 2.00 2.03 2.09 2.14 2.19 2.15 2.10 2.08
3.89 3.63 3.51 3.33 3.12 2.78 2.45 2.35 2.42 2.49 2.46 2.39 2.37 2.38 2.34 2.21 2.16 2.12 2.02 1.87 1.76 1.62 1.56 1.63 1.65 1.64 1.61 1.63 1.67 1.83 1.81 1.65 1.72 1.76 1.83 1.88 1.90 1.95 2.02 2.08 2.12 2.10 2.10
3.34 2.96 2.64 2.35 2.12 1.95 1.75 1.71 1.75 1.87 2.05 2.14 2.25 2.26 2.25 2.16 2.13 2.14 2.07 2.04 1.96 1.79 1.63 1.56 1.58 1.58 1.58 1.58 1.59 1.72 1.52 1.42 1.37 1.38 1.48 1.56 1.58 1.61 1.69 1.82 1.98 2.06 2.14
2.63 2.33 2.03 1.85 1.69 1.59 1.52 1.47 1.45 1.46 1.56 1.71 1.85 1.97 2.05 2.05 2.06 2.11 2.20 2.23 2.06 1.91 1.77 1.63 1.54 1.52 1.52 1.53 1.53 1.58 1.40 1.29 1.20 1.15 1.13 1.19 1.22 1.27 1.36 1.51 1.66 1.78 1.86
1.91 1.63 1.42 1.27 1.19 1.19 1.19 1.24 1.27 1.27 1.29 1.37 1.48 1.63 1.77 1.82 1.85 1.87 1.90 1.99 2.05 1.95 1.74 1.62 1.53 1.45 1.38 1.29 1.30 1.27 1.12 1.15 1.05 0.99 0.96 0.96 0.98 0.98 1.01 1.04 1.10 1.16 1.21
1.23 1.06 0.95 0.92 0.88 0.86 0.89 0.90 0.95 1.03 1.11 1.16 1.19 1.26 1.36 1.43 1.51 1.57 1.64 1.70 1.80 1.84 1.69 1.47 1.39 1.32 1.18 1.06 1.08 0.90 0.86 0.91 0.82 0.76 0.74 0.74 0.75 0.75 0.77 0.81 0.86 0.89 0.91
0.88 0.80 0.72 0.67 0.62 0.60 0.61 0.65 0.69 0.73 0.81 0.90 0.95 0.99 1.07 1.12 1.22 1.29 1.39 1.47 1.49 1.53 1.53 1.31 1.11 1.05 0.99 0.88 0.91 0.76 0.75 0.76 0.67 0.65 0.62 0.62 0.65 0.70 0.71 0.73 0.75 0.77 0.78
0.62 0.56 0.50 0.47 0.46 0.47 0.51 0.57 0.62 0.64 0.67 0.72 0.78 0.83 0.89 0.89 0.97 1.02 1.03 1.07 1.18 1.26 1.30 1.17 0.99 0.89 0.86 0.83 0.81 0.79 0.74 0.71 0.66 0.66 0.60 0.58 0.59 0.61 0.63 0.63 0.63 0.67 0.71
0.48 0.43 0.39 0.38 0.40 0.41 0.43 0.44 0.48 0.52 0.58 0.63 0.66 0.71 0.76 0.77 0.82 0.85 0.87 0.89 0.97 1.07 1.14 1.17 1.07 0.94 0.87 0.84 0.81 0.82 0.66 0.57 0.56 0.57 0.51 0.47 0.46 0.47 0.50 0.51 0.51 0.51 0.51
0.46 0.41 0.37 0.35 0.34 0.34 0.34 0.34 0.36 0.39 0.46 0.53 0.56 0.62 0.67 0.68 0.68 0.66 0.71 0.77 0.84 0.93 1.07 1.09 1.00 0.91 0.81 0.73 0.76 0.69 0.62 0.69 0.52 0.49 0.44 0.39 0.38 0.37 0.37 0.38 0.39 0.38 0.38
0.36 0.34 0.33 0.32 0.31 0.29 0.28 0.28 0.29 0.32 0.38 0.42 0.43 0.48 0.55 0.59 0.60 0.62 0.63 0.73 0.81 0.94 1.02 1.03 0.94 0.84 0.76 0.71 0.80 0.81 0.75 0.72 0.60 0.42 0.42 0.37 0.35 0.33 0.33 0.34 0.34 0.32 0.31
0.33 0.30 0.28 0.27 0.22 0.21 0.20 0.21 0.25 0.30 0.37 0.38 0.38 0.38 0.39 0.44 0.53 0.56 0.57 0.65 0.76 0.90 0.92 0.91 0.88 0.82 0.75 0.77 0.78 0.76 0.80 0.75 0.63 0.48 0.49 0.44 0.44 0.47 0.50 0.46 0.40 0.38 0.32
0.29 0.26 0.24 0.25 0.23 0.18 0.19 0.20 0.21 0.28 0.36 0.38 0.37 0.35 0.31 0.29 0.35 0.43 0.46 0.53 0.65 0.75 0.81 0.85 0.82 0.81 0.77 0.77 0.81 0.80 0.84 0.85 0.79 0.57 0.57 0.50 0.45 0.56 0.59 0.55 0.48 0.37 0.31
0.33 0.31 0.30 0.30 0.32 0.27 0.18 0.16 0.18 0.24 0.34 0.35 0.35 0.37 0.33 0.30 0.35 0.44 0.45 0.42 0.47 0.49 0.58 0.75 0.86 0.86 0.87 0.91 0.99 0.97 0.94 0.95 0.92 0.70 0.74 0.70 0.57 0.63 0.52 0.47 0.51 0.42 0.35
0.38 0.37 0.37 0.38 0.40 0.30 0.19 0.13 0.15 0.24 0.32 0.29 0.30 0.35 0.42 0.44 0.38 0.39 0.44 0.49 0.53 0.54 0.53 0.59 0.77 0.81 0.78 0.85 0.94 0.98 0.98 0.96 0.91 0.84 0.87 0.88 0.65 0.62 0.54 0.72 0.73 0.61 0.48
0.42 0.41 0.43 0.47 0.47 0.36 0.22 0.17 0.19 0.29 0.35 0.31 0.28 0.27 0.29 0.32 0.30 0.35 0.45 0.60 0.63 0.67 0.52 0.55 0.65 0.71 0.71 0.75 0.79 0.86 1.00 1.09 1.05 0.92 0.85 0.87 0.77 0.68 0.69 0.90 0.88 0.84 0.67
0.41 0.36 0.42 0.50 0.48 0.39 0.26 0.21 0.23 0.28 0.34 0.37 0.39 0.38 0.29 0.25 0.26 0.32 0.45 0.61 0.69 0.69 0.71 0.87 0.97 0.96 0.89 0.86 0.79 0.88 1.06 1.13 1.14 1.09 0.91 0.90 0.93 0.86 0.89 0.96 1.01 0.96 0.87

GEFSMA_prec_meanprecacc_192.txt.gz
Total_Precipitation_Accumulation
1.88 2.03 1.98 1.90 1.84 1.92 1.84 1.69 1.49 1.50 1.46 1.28 1.11 1.12 1.16 1.18 1.19 1.31 1.44 1.33 1.34 1.55 1.94 2.20 2.27 2.18 2.11 2.09 2.03 1.92 1.77 1.63 1.49 1.32 1.17 1.05 0.95 0.88 0.86 0.87 0.88 0.85 0.82
2.32 2.48 2.48 2.34 2.14 2.14 2.08 1.98 1.89 1.93 1.86 1.78 1.60 1.45 1.34 1.43 1.41 1.48 1.66 1.69 1.55 1.56 1.93 2.38 2.59 2.57 2.47 2.40 2.21 2.03 1.95 1.92 1.85 1.71 1.54 1.35 1.20 1.11 1.05 1.00 0.98 0.95 0.91
2.77 2.83 2.86 2.64 2.45 2.41 2.49 2.41 2.32 2.30 2.07 1.97 1.89 1.79 1.66 1.55 1.53 1.60 1.79 2.05 1.94 1.90 2.01 2.12 2.27 2.41 2.54 2.69 2.66 2.47 2.31 2.18 2.09 2.02 1.90 1.75 1.58 1.42 1.32 1.25 1.19 1.12 1.06
2.95 3.04 3.05 2.92 2.76 2.66 2.85 2.98 2.91 2.82 2.64 2.57 2.42 2.19 1.95 1.85 1.83 1.95 2.04 2.22 2.42 2.37 2.35 2.19 2.06 2.16 2.44 2.68 2.81 2.82 2.62 2.37 2.23 2.20 2.17 2.09 1.90 1.73 1.57 1.49 1.44 1.34 1.24
3.32 3.37 3.30 3.29 3.25 3.26 3.25 3.09 3.19 3.08 3.08 2.98 2.57 2.35 2.06 1.99 2.08 2.06 2.18 2.23 2.38 2.41 2.44 2.27 2.14 2.13 2.30 2.60 2.73 2.90 2.88 2.76 2.62 2.47 2.36 2.32 2.20 2.00 1.77 1.65 1.58 1.49 1.38
3.75 3.90 3.85 3.76 3.77 3.73 3.53 3.48 3.47 3.31 3.14 3.02 2.60 2.35 2.13 2.00 1.99 2.05 2.08 2.06 2.05 2.03 2.06 2.16 2.35 2.20 2.25 2.34 2.36 2.54 2.75 2.90 2.79 2.66 2.55 2.46 2.33 2.13 1.90 1.77 1.68 1.64 1.59
4.49 4.49 4.30 4.06 3.93 3.94 3.87 3.85 3.68 3.48 3.22 3.06 2.94 2.61 2.17 1.91 1.89 1.86 1.87 1.88 1.86 1.88 1.94 2.02 2.06 2.05 2.05 2.11 2.05 2.16 2.37 2.62 2.70 2.75 2.77 2.65 2.49 2.31 2.11 1.93 1.83 1.78 1.74
4.76 4.66 4.66 4.58 4.36 4.18 4.01 3.84 3.77 3.60 3.26 3.12 3.06 2.92 2.48 2.10 1.76 1.55 1.55 1.55 1.58 1.74 1.75 1.73 1.82 1.92 1.94 2.01 2.02 2.12 2.22 2.33 2.50 2.60 2.56 2.49 2.41 2.38 2.32 2.19 2.05 1.96 1.88
4.99 4.83 4.66 4.43 4.28 4.17 4.03 3.84 3.65 3.52 3.28 3.13 3.03 3.07 2.82 2.43 1.97 1.64 1.46 1.39 1.37 1.47 1.53 1.58 1.62 1.70 1.79 1.85 1.88 2.02 2.09 2.08 2.22 2.33 2.35 2.35 2.31 2.27 2.26 2.24 2.18 2.11 2.04
4.58 4.31 4.16 4.08 3.92 3.64 3.41 3.27 3.17 3.02 2.89 2.75 2.72 2.63 2.51 2.36 2.33 2.11 1.83 1.67 1.60 1.56 1.56 1.54 1.56 1.64 1.67 1.77 1.93 2.00 1.96 1.95 2.07 2.11 2.12 2.15 2.19 2.24 2.27 2.30 2.26 2.21 2.19
3.97 3.70 3.55 3.36 3.14 2.80 2.46 2.36 2.43 2.50 2.49 2.41 2.39 2.40 2.37 2.25 2.21 2.16 2.04 1.89 1.78 1.67 1.61 1.67 1.71 1.71 1.68 1.69 1.73 1.89 1.88 1.72 1.81 1.88 1.97 2.02 2.04 2.11 2.17 2.20 2.24 2.22 2.21
3.41 3.03 2.69 2.38 2.14 1.96 1.76 1.72 1.76 1.88 2.06 2.16 2.26 2.27 2.27 2.18 2.16 2.18 2.11 2.07 1.98 1.83 1.67 1.60 1.63 1.64 1.64 1.65 1.66 1.81 1.61 1.52 1.49 1.54 1.64 1.71 1.71 1.74 1.81 1.92 2.08 2.18 2.27
2.69 2.38 2.07 1.90 1.72 1.61 1.53 1.48 1.46 1.46 1.57 1.72 1.86 1.98 2.07 2.07 2.08 2.15 2.24 2.25 2.08 1.95 1.82 1.68 1.60 1.57 1.58 1.59 1.59 1.68 1.50 1.40 1.32 1.28 1.24 1.29 1.31 1.35 1.44 1.57 1.72 1.86 1.96
1.96 1.68 1.45 1.31 1.22 1.22 1.21 1.25 1.28 1.28 1.30 1.38 1.49 1.64 1.78 1.84 1.87 1.90 1.93 2.02 2.07 1.98 1.80 1.67 1.60 1.49 1.41 1.32 1.34 1.33 1.19 1.21 1.10 1.05 1.03 1.02 1.04 1.04 1.06 1.08 1.14 1.22 1.29
1.28 1.10 0.99 0.97 0.91 0.89 0.91 0.91 0.96 1.04 1.12 1.16 1.19 1.27 1.37 1.44 1.52 1.59 1.67 1.73 1.84 1.88 1.75 1.53 1.45 1.36 1.22 1.10 1.12 0.95 0.91 0.95 0.87 0.80 0.77 0.77 0.78 0.79 0.81 0.86 0.90 0.94 0.97
0.92 0.84 0.76 0.70 0.64 0.61 0.62 0.66 0.70 0.75 0.82 0.91 0.95 1.00 1.07 1.13 1.23 1.31 1.41 1.49 1.51 1.57 1.58 1.37 1.18 1.09 1.03 0.91 0.95 0.82 0.82 0.83 0.70 0.68 0.64 0.64 0.67 0.72 0.74 0.76 0.79 0.81 0.84
0.66 0.59 0.53 0.49 0.48 0.48 0.51 0.58 0.63 0.66 0.68 0.73 0.79 0.84 0.89 0.90 0.98 1.03 1.05 1.09 1.20 1.28 1.32 1.20 1.05 0.97 0.92 0.86 0.84 0.84 0.82 0.75 0.68 0.68 0.63 0.61 0.62 0.63 0.65 0.66 0.66 0.71 0.77
0.52 0.46 0.41 0.40 0.41 0.42 0.43 0.45 0.48 0.52 0.59 0.64 0.67 0.72 0.77 0.78 0.83 0.86 0.89 0.91 0.99 1.09 1.16 1.18 1.10 1.02 0.96 0.90 0.85 0.87 0.72 0.60 0.59 0.61 0.54 0.50 0.51 0.52 0.54 0.55 0.55 0.55 0.58
0.49 0.43 0.38 0.37 0.35 0.34 0.34 0.34 0.37 0.40 0.48 0.55 0.58 0.64 0.68 0.69 0.69 0.67 0.72 0.79 0.85 0.94 1.08 1.10 1.02 0.94 0.86 0.79 0.82 0.75 0.68 0.74 0.55 0.51 0.47 0.43 0.42 0.41 0.42 0.42 0.43 0.43 0.43
0.38 0.36 0.35 0.34 0.32 0.30 0.29 0.29 0.30 0.33 0.38 0.43 0.44 0.49 0.56 0.60 0.61 0.63 0.64 0.74 0.82 0.95 1.03 1.04 0.98 0.88 0.82 0.77 0.86 0.85 0.79 0.76 0.62 0.44 0.45 0.40 0.39 0.37 0.38 0.38 0.38 0.36 0.36
0.35 0.32 0.29 0.28 0.24 0.23 0.21 0.22 0.26 0.31 0.38 0.39 0.39 0.39 0.40 0.45 0.54 0.57 0.58 0.66 0.77 0.91 0.93 0.93 0.92 0.87 0.81 0.83 0.85 0.81 0.83 0.78 0.65 0.50 0.52 0.47 0.47 0.51 0.54 0.49 0.44 0.42 0.37
0.31 0.28 0.26 0.27 0.24 0.19 0.20 0.21 0.22 0.28 0.37 0.40 0.38 0.36 0.32 0.31 0.36 0.45 0.47 0.54 0.67 0.77 0.83 0.87 0.86 0.86 0.83 0.85 0.89 0.87 0.88 0.88 0.82 0.59 0.60 0.53 0.48 0.59 0.63 0.58 0.51 0.40 0.35
0.36 0.33 0.33 0.33 0.34 0.28 0.19 0.16 0.18 0.26 0.39 0.38 0.37 0.39 0.34 0.32 0.37 0.46 0.46 0.43 0.48 0.50 0.60 0.77 0.89 0.91 0.93 0.99 1.06 1.03 1.00 0.99 0.94 0.73 0.77 0.72 0.59 0.65 0.55 0.50 0.54 0.44 0.38
0.42 0.40 0.39 0.40 0.41 0.31 0.19 0.13 0.16 0.26 0.35 0.31 0.31 0.37 0.43 0.45 0.39 0.40 0.45 0.49 0.54 0.54 0.55 0.60 0.78 0.84 0.83 0.91 1.00 1.04 1.03 1.00 0.94 0.87 0.90 0.90 0.66 0.63 0.56 0.74 0.75 0.63 0.51
0.46 0.45 0.45 0.48 0.48 0.36 0.23 0.18 0.20 0.30 0.36 0.33 0.31 0.30 0.30 0.34 0.32 0.37 0.46 0.61 0.65 0.69 0.54 0.57 0.66 0.72 0.74 0.78 0.83 0.91 1.04 1.13 1.09 0.95 0.88 0.89 0.79 0.69 0.70 0.92 0.90 0.87 0.71
0.45 0.40 0.43 0.51 0.48 0.40 0.27 0.22 0.24 0.29 0.35 0.39 0.43 0.41 0.31 0.27 0.28 0.33 0.47 0.64 0.72 0.71 0.74 0.89 0.99 0.98 0.92 0.88 0.83 0.91 1.10 1.17 1.18 1.13 0.94 0.93 0.95 0.88 0.91 0.98 1.05 0.99 0.90

GEFSMA_prec_meanprecacc_198.txt.gz
Total_Precipitation_Accumulation
1.94 2.10 2.05 1.97 1.90 1.98 1.90 1.75 1.55 1.57 1.52 1.33 1.18 1.18 1.21 1.23 1.23 1.34 1.46 1.37 1.39 1.62 2.03 2.30 2.38 2.30 2.24 2.23 2.18 2.06 1.92 1.78 1.65 1.46 1.32 1.17 1.05 0.98 0.96 0.95 0.96 0.93 0.90
2.44 2.59 2.58 2.44 2.22 2.21 2.15 2.04 1.98 2.03 1.95 1.87 1.70 1.57 1.45 1.50 1.46 1.51 1.69 1.72 1.59 1.62 2.01 2.47 2.69 2.69 2.59 2.55 2.38 2.17 2.10 2.05 1.98 1.84 1.68 1.49 1.30 1.20 1.14 1.08 1.07 1.04 1.00
2.94 3.00 2.99 2.73 2.53 2.48 2.57 2.49 2.42 2.41 2.17 2.08 2.01 1.92 1.76 1.62 1.58 1.62 1.81 2.08 1.97 1.95 2.08 2.19 2.34 2.51 2.67 2.83 2.85 2.68 2.47 2.32 2.23 2.13 2.02 1.88 1.69 1.51 1.41 1.33 1.28 1.20 1.15
3.06 3.14 3.15 3.02 2.84 2.72 2.92 3.04 2.98 2.90 2.74 2.67 2.50 2.26 1.99 1.88 1.86 1.98 2.08 2.26 2.45 2.40 2.39 2.25 2.13 2.23 2.55 2.82 2.98 3.01 2.84 2.57 2.41 2.37 2.31 2.22 2.01 1.84 1.66 1.57 1.52 1.42 1.32
3.41 3.44 3.37 3.35 3.30 3.31 3.31 3.13 3.24 3.13 3.13 3.03 2.62 2.39 2.09 2.02 2.11 2.08 2.20 2.26 2.40 2.43 2.47 2.30 2.19 2.19 2.37 2.70 2.86 3.07 3.06 2.95 2.83 2.68 2.55 2.47 2.35 2.13 1.90 1.76 1.67 1.57 1.45
3.81 3.96 3.89 3.80 3.81 3.78 3.58 3.52 3.51 3.35 3.18 3.05 2.63 2.38 2.16 2.02 2.01 2.07 2.10 2.08 2.07 2.05 2.08 2.18 2.37 2.23 2.30 2.41 2.45 2.67 2.92 3.09 2.98 2.85 2.75 2.66 2.50 2.29 2.04 1.90 1.81 1.75 1.68
4.57 4.56 4.36 4.09 3.96 3.97 3.89 3.88 3.72 3.52 3.25 3.09 2.97 2.63 2.18 1.92 1.91 1.88 1.88 1.88 1.88 1.91 1.97 2.06 2.09 2.07 2.07 2.14 2.10 2.23 2.46 2.76 2.87 2.91 2.94 2.84 2.69 2.49 2.27 2.08 1.99 1.92 1.86
4.81 4.74 4.74 4.64 4.41 4.22 4.03 3.86 3.79 3.63 3.30 3.16 3.10 2.96 2.51 2.12 1.77 1.56 1.56 1.55 1.58 1.75 1.77 1.76 1.85 1.95 1.96 2.02 2.04 2.17 2.29 2.43 2.63 2.74 2.71 2.65 2.59 2.58 2.52 2.37 2.21 2.11 2.03
5.04 4.89 4.73 4.50 4.34 4.21 4.06 3.86 3.67 3.55 3.31 3.16 3.07 3.11 2.84 2.45 1.97 1.65 1.47 1.39 1.37 1.48 1.54 1.59 1.64 1.72 1.82 1.88 1.91 2.06 2.14 2.15 2.31 2.44 2.49 2.50 2.45 2.43 2.43 2.40 2.34 2.28 2.22
4.64 4.39 4.25 4.16 4.00 3.70 3.46 3.30 3.20 3.05 2.92 2.78 2.75 2.65 2.53 2.37 2.35 2.13 1.84 1.67 1.60 1.57 1.56 1.55 1.57 1.66 1.69 1.79 1.95 2.03 2.00 2.00 2.14 2.20 2.24 2.30 2.34 2.38 2.41 2.46 2.42 2.37 2.36
4.05 3.80 3.65 3.45 3.24 2.88 2.52 2.40 2.47 2.53 2.51 2.43 2.40 2.41 2.39 2.26 2.22 2.18 2.06 1.89 1.79 1.68 1.62 1.68 1.72 1.72 1.69 1.71 1.75 1.92 1.92 1.77 1.87 1.95 2.06 2.14 2.17 2.25 2.31 2.35 2.40 2.40 2.40
3.48 3.10 2.79 2.48 2.23 2.04 1.81 1.76 1.80 1.91 2.08 2.17 2.27 2.29 2.29 2.20 2.18 2.20 2.13 2.08 1.99 1.85 1.69 1.62 1.64 1.66 1.66 1.66 1.68 1.84 1.64 1.57 1.55 1.61 1.72 1.81 1.82 1.87 1.95 2.07 2.24 2.36 2.47
2.74 2.43 2.13 1.98 1.81 1.68 1.58 1.52 1.49 1.49 1.59 1.74 1.87 1.99 2.08 2.09 2.10 2.17 2.27 2.27 2.10 1.97 1.84 1.70 1.61 1.59 1.60 1.61 1.61 1.71 1.53 1.43 1.36 1.35 1.32 1.37 1.39 1.45 1.57 1.71 1.86 2.01 2.14
2.01 1.73 1.50 1.36 1.29 1.30 1.27 1.29 1.31 1.31 1.32 1.40 1.50 1.65 1.79 1.84 1.88 1.91 1.95 2.04 2.09 2.00 1.81 1.69 1.62 1.53 1.44 1.35 1.37 1.36 1.21 1.24 1.14 1.11 1.10 1.11 1.12 1.12 1.16 1.19 1.26 1.34 1.41
1.34 1.17 1.05 1.01 0.96 0.95 0.97 0.97 1.00 1.07 1.14 1.18 1.21 1.28 1.38 1.45 1.52 1.59 1.67 1.74 1.85 1.90 1.77 1.56 1.51 1.42 1.26 1.13 1.15 0.98 0.93 0.98 0.90 0.85 0.82 0.84 0.85 0.86 0.88 0.93 0.98 1.01 1.04
0.97 0.90 0.84 0.76 0.67 0.65 0.66 0.70 0.74 0.77 0.84 0.93 0.97 1.01 1.08 1.14 1.24 1.32 1.42 1.50 1.52 1.59 1.60 1.41 1.23 1.14 1.08 0.95 0.99 0.85 0.85 0.87 0.74 0.72 0.68 0.68 0.73 0.79 0.79 0.80 0.83 0.86 0.87
0.69 0.62 0.57 0.53 0.50 0.50 0.54 0.61 0.65 0.67 0.69 0.74 0.80 0.85 0.90 0.91 0.99 1.04 1.06 1.10 1.21 1.30 1.34 1.23 1.09 1.02 0.96 0.89 0.86 0.87 0.85 0.79 0.70 0.72 0.68 0.67 0.68 0.68 0.68 0.68 0.69 0.73 0.78
0.55 0.49 0.44 0.42 0.42 0.43 0.45 0.47 0.50 0.54 0.61 0.65 0.69 0.73 0.78 0.79 0.84 0.87 0.90 0.92 1.00 1.10 1.18 1.20 1.13 1.06 0.99 0.92 0.87 0.89 0.74 0.63 0.62 0.65 0.59 0.55 0.54 0.54 0.56 0.57 0.57 0.57 0.59
0.53 0.47 0.41 0.40 0.37 0.35 0.36 0.36 0.38 0.41 0.49 0.56 0.59 0.65 0.70 0.71 0.70 0.68 0.73 0.79 0.86 0.95 1.09 1.12 1.05 0.96 0.89 0.82 0.85 0.79 0.72 0.77 0.58 0.54 0.50 0.45 0.44 0.44 0.44 0.44 0.44 0.44 0.44
0.42 0.41 0.39 0.38 0.35 0.32 0.31 0.31 0.32 0.34 0.39 0.44 0.45 0.50 0.58 0.62 0.62 0.64 0.64 0.75 0.83 0.95 1.04 1.05 0.98 0.89 0.84 0.79 0.88 0.89 0.83 0.79 0.65 0.46 0.46 0.41 0.40 0.39 0.40 0.40 0.39 0.38 0.37
0.39 0.36 0.33 0.32 0.27 0.25 0.23 0.24 0.28 0.33 0.39 0.39 0.40 0.40 0.41 0.47 0.55 0.58 0.59 0.66 0.77 0.92 0.94 0.93 0.92 0.88 0.82 0.85 0.87 0.84 0.87 0.82 0.70 0.55 0.54 0.48 0.48 0.52 0.55 0.51 0.45 0.44 0.39
0.35 0.31 0.29 0.30 0.28 0.22 0.22 0.22 0.23 0.30 0.38 0.41 0.39 0.36 0.34 0.32 0.38 0.46 0.48 0.55 0.68 0.78 0.84 0.88 0.87 0.87 0.84 0.87 0.91 0.89 0.91 0.92 0.87 0.63 0.64 0.55 0.50 0.60 0.64 0.60 0.53 0.43 0.37
0.38 0.35 0.35 0.36 0.37 0.30 0.21 0.18 0.19 0.27 0.39 0.39 0.38 0.40 0.35 0.33 0.39 0.47 0.48 0.45 0.50 0.52 0.61 0.78 0.89 0.93 0.96 1.03 1.11 1.07 1.03 1.02 0.98 0.77 0.80 0.76 0.61 0.67 0.57 0.52 0.57 0.47 0.41
0.44 0.42 0.42 0.43 0.44 0.33 0.22 0.15 0.17 0.27 0.36 0.31 0.32 0.37 0.44 0.46 0.40 0.41 0.46 0.50 0.55 0.55 0.56 0.61 0.79 0.86 0.85 0.94 1.05 1.08 1.08 1.03 0.97 0.91 0.95 0.96 0.70 0.65 0.58 0.76 0.78 0.66 0.53
0.48 0.48 0.48 0.50 0.50 0.38 0.25 0.19 0.21 0.30 0.37 0.34 0.32 0.31 0.31 0.35 0.33 0.38 0.48 0.62 0.65 0.69 0.55 0.58 0.68 0.73 0.76 0.82 0.88 0.96 1.09 1.17 1.13 1.00 0.93 0.95 0.83 0.72 0.73 0.94 0.93 0.90 0.73
0.46 0.42 0.46 0.54 0.50 0.41 0.28 0.23 0.25 0.29 0.35 0.40 0.43 0.42 0.32 0.29 0.31 0.35 0.49 0.65 0.73 0.72 0.75 0.90 1.01 1.00 0.95 0.93 0.89 0.97 1.15 1.21 1.22 1.18 0.99 0.97 0.99 0.91 0.94 1.00 1.07 1.01 0.93

GEFSMA_prec_meanprecacc_204.txt.gz
Total_Precipitation_Accumulation
2.03 2.21 2.16 2.05 1.97 2.06 1.98 1.83 1.63 1.65 1.59 1.39 1.23 1.24 1.27 1.28 1.26 1.37 1.49 1.39 1.41 1.64 2.06 2.35 2.45 2.38 2.32 2.31 2.25 2.15 2.02 1.88 1.76 1.58 1.44 1.27 1.14 1.07 1.06 1.07 1.07 1.04 1.02
2.56 2.72 2.67 2.50 2.29 2.29 2.23 2.13 2.07 2.12 2.03 1.94 1.76 1.62 1.50 1.55 1.50 1.54 1.71 1.74 1.61 1.64 2.03 2.51 2.75 2.76 2.67 2.64 2.47 2.27 2.20 2.16 2.10 1.96 1.82 1.62 1.41 1.31 1.25 1.20 1.19 1.15 1.11
3.02 3.09 3.10 2.84 2.63 2.58 2.67 2.59 2.50 2.48 2.25 2.15 2.07 1.97 1.81 1.67 1.62 1.65 1.84 2.10 1.99 1.97 2.11 2.22 2.39 2.56 2.73 2.91 2.93 2.76 2.56 2.42 2.34 2.25 2.14 2.00 1.81 1.62 1.52 1.46 1.41 1.33 1.27
3.12 3.21 3.22 3.11 2.94 2.82 3.02 3.15 3.08 2.98 2.81 2.74 2.57 2.31 2.03 1.93 1.90 2.01 2.11 2.28 2.48 2.42 2.41 2.26 2.15 2.27 2.60 2.88 3.05 3.09 2.92 2.66 2.51 2.47 2.41 2.32 2.12 1.94 1.76 1.68 1.63 1.55 1.44
3.48 3.52 3.45 3.42 3.36 3.37 3.37 3.20 3.32 3.21 3.20 3.08 2.67 2.44 2.14 2.05 2.14 2.12 2.23 2.28 2.42 2.45 2.48 2.32 2.21 2.21 2.40 2.74 2.92 3.14 3.14 3.05 2.92 2.78 2.68 2.61 2.48 2.26 2.03 1.88 1.78 1.67 1.56
3.88 4.05 3.98 3.87 3.86 3.82 3.63 3.57 3.56 3.39 3.22 3.10 2.67 2.42 2.19 2.06 2.04 2.10 2.12 2.10 2.09 2.07 2.10 2.20 2.39 2.25 2.32 2.44 2.50 2.73 3.00 3.18 3.08 2.96 2.87 2.82 2.67 2.44 2.16 2.02 1.93 1.85 1.77
4.67 4.67 4.45 4.17 4.03 4.03 3.96 3.93 3.77 3.56 3.29 3.14 3.02 2.68 2.22 1.96 1.95 1.92 1.91 1.91 1.89 1.92 1.99 2.08 2.12 2.10 2.10 2.16 2.13 2.27 2.52 2.83 2.96 3.02 3.05 2.96 2.84 2.67 2.42 2.21 2.10 2.04 1.97
4.90 4.83 4.83 4.73 4.48 4.28 4.09 3.92 3.85 3.68 3.36 3.22 3.15 3.01 2.56 2.16 1.81 1.59 1.59 1.57 1.60 1.76 1.78 1.78 1.88 1.97 1.99 2.05 2.06 2.19 2.33 2.49 2.71 2.83 2.81 2.75 2.69 2.71 2.69 2.55 2.38 2.25 2.17
5.13 4.98 4.83 4.58 4.40 4.27 4.11 3.91 3.72 3.60 3.36 3.22 3.12 3.16 2.88 2.48 2.00 1.67 1.49 1.41 1.39 1.49 1.55 1.61 1.65 1.73 1.84 1.91 1.94 2.08 2.17 2.19 2.36 2.52 2.58 2.60 2.55 2.52 2.53 2.54 2.51 2.46 2.36
4.75 4.51 4.37 4.24 4.05 3.75 3.51 3.36 3.25 3.10 2.97 2.83 2.80 2.70 2.57 2.41 2.38 2.15 1.85 1.69 1.62 1.58 1.58 1.56 1.58 1.67 1.72 1.83 2.00 2.06 2.02 2.02 2.17 2.25 2.30 2.38 2.44 2.49 2.51 2.56 2.55 2.52 2.51
4.14 3.88 3.72 3.54 3.31 2.95 2.58 2.46 2.52 2.60 2.58 2.50 2.47 2.46 2.43 2.30 2.25 2.21 2.08 1.91 1.81 1.71 1.65 1.70 1.74 1.74 1.71 1.73 1.79 1.95 1.93 1.78 1.89 1.97 2.10 2.20 2.26 2.35 2.41 2.45 2.51 2.52 2.54
3.54 3.17 2.86 2.56 2.31 2.13 1.91 1.85 1.88 1.97 2.14 2.25 2.36 2.37 2.35 2.24 2.20 2.23 2.15 2.10 2.01 1.88 1.74 1.65 1.67 1.69 1.68 1.69 1.69 1.85 1.65 1.58 1.57 1.62 1.74 1.85 1.89 1.96 2.06 2.19 2.35 2.47 2.60
2.79 2.48 2.18 2.04 1.88 1.75 1.66 1.62 1.60 1.58 1.67 1.82 1.95 2.08 2.17 2.17 2.15 2.20 2.29 2.29 2.12 1.99 1.87 1.74 1.64 1.61 1.62 1.63 1.64 1.72 1.55 1.45 1.38 1.37 1.35 1.40 1.44 1.51 1.66 1.83 1.98 2.12 2.25
2.06 1.78 1.55 1.42 1.36 1.37 1.33 1.36 1.40 1.41 1.43 1.48 1.56 1.72 1.86 1.92 1.96 1.96 1.98 2.06 2.11 2.03 1.84 1.72 1.66 1.57 1.47 1.38 1.39 1.38 1.23 1.25 1.15 1.13 1.13 1.14 1.16 1.17 1.21 1.27 1.36 1.45 1.52
1.40 1.22 1.10 1.07 1.01 1.02 1.07 1.07 1.10 1.16 1.23 1.27 1.27 1.34 1.43 1.51 1.59 1.67 1.74 1.78 1.90 1.94 1.81 1.60 1.54 1.44 1.28 1.15 1.18 1.01 0.95 1.00 0.91 0.86 0.84 0.86 0.88 0.90 0.94 0.99 1.05 1.10 1.14
1.01 0.94 0.90 0.83 0.75 0.71 0.73 0.79 0.85 0.90 0.95 1.02 1.05 1.07 1.14 1.19 1.29 1.39 1.50 1.57 1.58 1.64 1.65 1.45 1.27 1.17 1.10 0.97 1.01 0.88 0.88 0.89 0.75 0.73 0.70 0.70 0.75 0.82 0.85 0.88 0.90 0.92 0.93
0.73 0.67 0.62 0.59 0.58 0.56 0.60 0.67 0.71 0.74 0.77 0.82 0.89 0.94 0.98 0.98 1.04 1.10 1.12 1.15 1.26 1.35 1.39 1.27 1.13 1.06 1.00 0.92 0.88 0.89 0.87 0.81 0.72 0.74 0.71 0.70 0.71 0.71 0.73 0.74 0.74 0.77 0.83
0.60 0.54 0.48 0.47 0.47 0.48 0.50 0.53 0.55 0.58 0.66 0.72 0.75 0.79 0.82 0.83 0.87 0.90 0.93 0.95 1.03 1.13 1.21 1.23 1.15 1.09 1.02 0.95 0.90 0.91 0.76 0.64 0.64 0.67 0.62 0.58 0.58 0.59 0.60 0.61 0.60 0.60 0.62
0.58 0.52 0.46 0.44 0.41 0.39 0.40 0.40 0.43 0.46 0.54 0.60 0.64 0.69 0.72 0.73 0.72 0.69 0.74 0.81 0.88 0.97 1.11 1.14 1.06 0.98 0.92 0.86 0.89 0.81 0.73 0.80 0.60 0.56 0.53 0.48 0.47 0.46 0.47 0.47 0.48 0.47 0.47
0.46 0.44 0.42 0.41 0.38 0.35 0.34 0.34 0.35 0.39 0.44 0.47 0.48 0.53 0.59 0.63 0.63 0.65 0.65 0.76 0.84 0.97 1.05 1.06 1.00 0.91 0.86 0.82 0.93 0.91 0.85 0.82 0.67 0.48 0.49 0.43 0.42 0.41 0.42 0.42 0.42 0.40 0.39
0.41 0.37 0.35 0.35 0.31 0.27 0.25 0.26 0.30 0.36 0.43 0.42 0.42 0.42 0.43 0.47 0.56 0.59 0.59 0.67 0.79 0.93 0.95 0.95 0.94 0.91 0.85 0.89 0.92 0.87 0.89 0.84 0.73 0.58 0.59 0.51 0.50 0.55 0.58 0.54 0.48 0.46 0.40
0.37 0.33 0.31 0.33 0.31 0.24 0.23 0.23 0.25 0.32 0.41 0.43 0.41 0.38 0.35 0.33 0.38 0.47 0.49 0.57 0.70 0.80 0.86 0.90 0.90 0.90 0.87 0.91 0.95 0.93 0.94 0.95 0.92 0.69 0.68 0.60 0.53 0.65 0.67 0.63 0.55 0.44 0.39
0.40 0.37 0.36 0.38 0.40 0.33 0.23 0.19 0.21 0.29 0.42 0.41 0.39 0.41 0.36 0.34 0.40 0.48 0.48 0.46 0.52 0.55 0.64 0.80 0.91 0.94 0.99 1.07 1.15 1.11 1.07 1.07 1.05 0.83 0.86 0.80 0.66 0.72 0.60 0.55 0.59 0.49 0.42
0.46 0.44 0.43 0.44 0.47 0.37 0.24 0.17 0.19 0.29 0.38 0.32 0.33 0.38 0.45 0.46 0.40 0.41 0.46 0.51 0.56 0.57 0.57 0.62 0.82 0.88 0.89 0.98 1.08 1.12 1.12 1.08 1.04 0.99 1.01 1.02 0.76 0.71 0.62 0.80 0.81 0.67 0.54
0.49 0.49 0.49 0.52 0.54 0.42 0.28 0.21 0.23 0.32 0.38 0.35 0.33 0.31 0.32 0.35 0.34 0.39 0.48 0.62 0.66 0.70 0.56 0.59 0.70 0.76 0.78 0.84 0.90 0.98 1.13 1.22 1.19 1.07 1.00 1.01 0.88 0.76 0.77 0.99 0.96 0.92 0.75
0.48 0.43 0.47 0.55 0.53 0.44 0.30 0.25 0.26 0.30 0.36 0.41 0.45 0.43 0.34 0.31 0.33 0.37 0.50 0.66 0.74 0.74 0.77 0.92 1.04 1.03 0.97 0.95 0.91 1.00 1.19 1.26 1.27 1.22 1.04 1.03 1.05 0.97 0.99 1.05 1.12 1.05 0.96

GEFSMA_prec_meanprecacc_210.txt.gz
Total_Precipitation_Accumulation
2.13 2.31 2.27 2.16 2.06 2.14 2.06 1.90 1.69 1.69 1.63 1.45 1.29 1.31 1.33 1.33 1.30 1.41 1.53 1.41 1.44 1.67 2.08 2.37 2.48 2.42 2.37 2.37 2.32 2.21 2.06 1.93 1.82 1.66 1.52 1.33 1.19 1.13 1.13 1.16 1.18 1.15 1.13
2.66 2.82 2.78 2.62 2.39 2.37 2.31 2.21 2.14 2.19 2.09 2.00 1.81 1.68 1.57 1.60 1.54 1.57 1.75 1.78 1.65 1.67 2.05 2.53 2.78 2.78 2.70 2.69 2.52 2.32 2.25 2.22 2.16 2.03 1.90 1.69 1.47 1.36 1.30 1.27 1.28 1.25 1.22
3.12 3.21 3.24 2.97 2.74 2.68 2.77 2.69 2.60 2.57 2.32 2.22 2.13 2.03 1.87 1.73 1.68 1.69 1.87 2.14 2.03 2.00 2.14 2.25 2.40 2.57 2.75 2.93 2.97 2.80 2.60 2.46 2.38 2.30 2.20 2.08 1.88 1.68 1.57 1.51 1.49 1.42 1.35
3.23 3.33 3.34 3.21 3.04 2.94 3.15 3.26 3.18 3.08 2.91 2.83 2.64 2.37 2.09 1.99 1.97 2.07 2.15 2.32 2.52 2.46 2.44 2.28 2.16 2.27 2.61 2.91 3.08 3.13 2.97 2.71 2.55 2.51 2.46 2.38 2.17 2.00 1.83 1.75 1.73 1.64 1.51
3.58 3.63 3.56 3.54 3.51 3.53 3.51 3.30 3.43 3.32 3.30 3.17 2.75 2.50 2.19 2.10 2.20 2.17 2.29 2.33 2.47 2.49 2.52 2.34 2.23 2.22 2.41 2.76 2.95 3.18 3.20 3.10 2.96 2.82 2.72 2.66 2.53 2.32 2.10 1.95 1.86 1.76 1.63
3.97 4.17 4.16 4.07 4.05 4.00 3.79 3.69 3.66 3.47 3.31 3.18 2.74 2.48 2.25 2.10 2.09 2.15 2.17 2.15 2.14 2.11 2.14 2.23 2.43 2.27 2.34 2.46 2.52 2.77 3.04 3.23 3.13 3.00 2.92 2.87 2.72 2.48 2.21 2.07 1.99 1.93 1.85
4.72 4.75 4.57 4.35 4.22 4.20 4.10 4.04 3.85 3.63 3.36 3.21 3.10 2.75 2.27 2.00 1.99 1.97 1.96 1.95 1.93 1.95 2.02 2.12 2.16 2.14 2.12 2.19 2.15 2.29 2.55 2.87 3.01 3.07 3.11 3.03 2.91 2.73 2.47 2.25 2.15 2.09 2.03
4.95 4.87 4.89 4.81 4.60 4.40 4.20 4.02 3.94 3.77 3.43 3.28 3.22 3.09 2.64 2.23 1.86 1.62 1.63 1.60 1.62 1.79 1.81 1.80 1.92 2.02 2.02 2.08 2.09 2.22 2.36 2.52 2.75 2.88 2.87 2.81 2.75 2.77 2.74 2.61 2.43 2.30 2.22
5.16 5.01 4.87 4.64 4.49 4.36 4.19 3.99 3.80 3.70 3.47 3.31 3.21 3.25 2.96 2.55 2.07 1.72 1.52 1.43 1.41 1.52 1.57 1.63 1.68 1.77 1.87 1.96 1.99 2.12 2.20 2.21 2.39 2.57 2.63 2.66 2.62 2.59 2.60 2.60 2.58 2.52 2.44
4.79 4.54 4.41 4.29 4.11 3.82 3.60 3.43 3.34 3.21 3.08 2.93 2.92 2.82 2.67 2.51 2.46 2.22 1.90 1.73 1.65 1.61 1.60 1.57 1.60 1.70 1.75 1.88 2.04 2.10 2.05 2.03 2.18 2.28 2.35 2.44 2.50 2.56 2.59 2.64 2.62 2.59 2.60
4.17 3.91 3.76 3.58 3.36 3.01 2.66 2.53 2.61 2.69 2.68 2.60 2.59 2.60 2.56 2.41 2.35 2.28 2.13 1.95 1.85 1.74 1.67 1.72 1.76 1.77 1.74 1.77 1.82 1.98 1.96 1.80 1.90 1.98 2.12 2.24 2.30 2.40 2.48 2.54 2.59 2.60 2.62
3.58 3.22 2.91 2.61 2.38 2.21 2.01 1.95 1.97 2.06 2.23 2.34 2.47 2.49 2.49 2.39 2.33 2.32 2.21 2.14 2.05 1.92 1.77 1.68 1.70 1.72 1.71 1.72 1.72 1.87 1.68 1.60 1.58 1.63 1.75 1.87 1.93 2.00 2.09 2.24 2.42 2.54 2.67
2.83 2.53 2.23 2.11 1.96 1.85 1.77 1.72 1.69 1.66 1.76 1.91 2.05 2.18 2.27 2.27 2.28 2.33 2.40 2.37 2.18 2.03 1.92 1.78 1.67 1.64 1.65 1.67 1.68 1.75 1.57 1.47 1.40 1.39 1.36 1.42 1.46 1.55 1.70 1.86 2.03 2.19 2.33
2.11 1.85 1.63 1.51 1.48 1.50 1.43 1.46 1.49 1.49 1.51 1.57 1.65 1.82 1.96 2.01 2.05 2.06 2.09 2.17 2.20 2.09 1.89 1.76 1.69 1.59 1.49 1.41 1.43 1.42 1.25 1.28 1.17 1.14 1.14 1.16 1.18 1.19 1.24 1.31 1.40 1.50 1.58
1.47 1.30 1.20 1.19 1.14 1.14 1.17 1.17 1.18 1.23 1.32 1.37 1.37 1.44 1.53 1.59 1.66 1.74 1.82 1.88 1.99 2.03 1.88 1.67 1.59 1.48 1.32 1.18 1.21 1.03 0.98 1.02 0.92 0.87 0.85 0.88 0.89 0.93 0.96 1.01 1.08 1.14 1.18
1.11 1.04 1.00 0.94 0.86 0.82 0.82 0.87 0.92 0.97 1.03 1.12 1.15 1.17 1.24 1.28 1.38 1.47 1.59 1.67 1.69 1.75 1.74 1.52 1.33 1.22 1.14 1.01 1.04 0.91 0.92 0.93 0.78 0.76 0.72 0.72 0.77 0.84 0.86 0.89 0.92 0.95 0.98
0.83 0.77 0.71 0.67 0.65 0.66 0.69 0.74 0.79 0.83 0.87 0.93 1.01 1.06 1.09 1.07 1.14 1.21 1.24 1.28 1.40 1.47 1.48 1.34 1.19 1.12 1.08 0.99 0.95 0.95 0.91 0.84 0.75 0.77 0.73 0.72 0.72 0.73 0.74 0.75 0.76 0.80 0.87
0.67 0.60 0.54 0.52 0.52 0.54 0.57 0.60 0.64 0.68 0.77 0.82 0.86 0.90 0.91 0.91 0.94 0.98 1.02 1.03 1.12 1.21 1.27 1.28 1.20 1.13 1.07 1.00 0.94 0.95 0.79 0.66 0.65 0.69 0.64 0.59 0.59 0.59 0.61 0.62 0.62 0.63 0.65
0.63 0.56 0.50 0.49 0.47 0.46 0.47 0.48 0.50 0.53 0.61 0.70 0.74 0.78 0.79 0.79 0.77 0.75 0.80 0.87 0.94 1.02 1.17 1.18 1.09 1.02 0.95 0.90 0.93 0.85 0.77 0.83 0.63 0.58 0.54 0.49 0.48 0.47 0.47 0.48 0.49 0.50 0.50
0.51 0.50 0.48 0.47 0.44 0.41 0.41 0.40 0.39 0.43 0.48 0.53 0.56 0.60 0.64 0.67 0.68 0.69 0.69 0.81 0.89 1.01 1.09 1.11 1.04 0.95 0.91 0.87 0.98 0.97 0.91 0.87 0.71 0.50 0.51 0.45 0.44 0.42 0.43 0.43 0.43 0.42 0.41
0.46 0.43 0.42 0.42 0.37 0.32 0.28 0.28 0.32 0.38 0.45 0.46 0.49 0.48 0.47 0.51 0.59 0.62 0.62 0.70 0.82 0.97 0.99 0.99 0.99 0.95 0.89 0.93 0.96 0.91 0.92 0.88 0.76 0.61 0.62 0.54 0.53 0.57 0.60 0.55 0.49 0.47 0.41
0.44 0.42 0.41 0.39 0.34 0.26 0.25 0.25 0.26 0.35 0.45 0.48 0.46 0.43 0.39 0.36 0.40 0.48 0.51 0.58 0.71 0.82 0.90 0.95 0.95 0.94 0.91 0.95 1.00 0.97 0.99 1.00 0.96 0.72 0.72 0.64 0.58 0.69 0.71 0.66 0.58 0.46 0.39
0.49 0.45 0.42 0.41 0.43 0.36 0.24 0.20 0.22 0.32 0.46 0.45 0.43 0.45 0.39 0.36 0.42 0.50 0.50 0.48 0.53 0.56 0.66 0.83 0.95 0.98 1.03 1.11 1.20 1.16 1.13 1.11 1.09 0.88 0.91 0.85 0.71 0.77 0.64 0.58 0.61 0.51 0.43
0.51 0.49 0.46 0.47 0.51 0.40 0.26 0.17 0.21 0.31 0.41 0.37 0.36 0.40 0.47 0.49 0.42 0.44 0.49 0.53 0.58 0.59 0.61 0.65 0.84 0.92 0.92 1.01 1.12 1.17 1.17 1.12 1.09 1.04 1.07 1.07 0.82 0.78 0.68 0.86 0.85 0.70 0.56
0.55 0.53 0.52 0.55 0.57 0.45 0.30 0.23 0.26 0.34 0.40 0.39 0.37 0.34 0.34 0.38 0.37 0.43 0.52 0.66 0.69 0.73 0.59 0.62 0.72 0.78 0.81 0.87 0.93 1.02 1.16 1.26 1.23 1.11 1.05 1.08 0.96 0.85 0.85 1.06 1.03 0.97 0.79
0.52 0.47 0.50 0.58 0.57 0.49 0.34 0.27 0.28 0.32 0.39 0.45 0.48 0.46 0.37 0.34 0.36 0.40 0.53 0.70 0.78 0.78 0.80 0.96 1.07 1.06 1.00 0.98 0.94 1.04 1.22 1.30 1.31 1.26 1.09 1.09 1.12 1.05 1.08 1.12 1.18 1.12 1.04

GEFSMA_prec_meanprecacc_216.txt.gz
Total_Precipitation_Accumulation
2.16 2.35 2.30 2.20 2.12 2.21 2.13 1.96 1.75 1.76 1.70 1.51 1.34 1.35 1.38 1.38 1.36 1.45 1.56 1.45 1.48 1.73 2.17 2.47 2.57 2.49 2.43 2.41 2.36 2.25 2.10 1.98 1.87 1.70 1.56 1.39 1.24 1.17 1.17 1.21 1.23 1.20 1.19
2.69 2.86 2.82 2.65 2.44 2.44 2.38 2.28 2.21 2.26 2.17 2.08 1.86 1.72 1.60 1.64 1.58 1.60 1.79 1.83 1.70 1.72 2.13 2.62 2.87 2.86 2.76 2.73 2.57 2.36 2.29 2.25 2.20 2.07 1.94 1.74 1.52 1.41 1.34 1.31 1.33 1.30 1.26
3.15 3.24 3.27 3.01 2.78 2.75 2.86 2.80 2.71 2.67 2.41 2.30 2.20 2.08 1.90 1.76 1.71 1.73 1.90 2.19 2.08 2.06 2.20 2.31 2.47 2.63 2.80 2.98 3.02 2.84 2.64 2.50 2.41 2.33 2.23 2.11 1.92 1.73 1.62 1.56 1.54 1.47 1.40
3.26 3.36 3.39 3.27 3.13 3.06 3.29 3.40 3.32 3.21 3.03 2.93 2.73 2.45 2.15 2.04 2.02 2.12 2.19 2.36 2.57 2.50 2.49 2.34 2.21 2.32 2.65 2.95 3.12 3.16 3.00 2.74 2.58 2.54 2.47 2.40 2.21 2.04 1.89 1.80 1.79 1.70 1.56
3.61 3.66 3.60 3.60 3.62 3.68 3.67 3.47 3.56 3.41 3.40 3.28 2.84 2.58 2.25 2.15 2.24 2.22 2.32 2.36 2.52 2.54 2.56 2.38 2.26 2.26 2.45 2.80 2.98 3.22 3.24 3.14 3.00 2.85 2.75 2.68 2.55 2.35 2.15 2.01 1.91 1.83 1.69
4.00 4.21 4.19 4.10 4.11 4.07 3.88 3.81 3.78 3.59 3.42 3.28 2.83 2.56 2.30 2.15 2.13 2.19 2.21 2.19 2.18 2.17 2.19 2.27 2.45 2.30 2.37 2.50 2.56 2.80 3.08 3.26 3.16 3.04 2.95 2.90 2.74 2.50 2.25 2.12 2.04 1.99 1.91
4.76 4.78 4.60 4.38 4.25 4.24 4.16 4.12 3.94 3.72 3.47 3.32 3.21 2.84 2.35 2.07 2.06 2.03 2.02 2.00 1.97 1.99 2.08 2.17 2.20 2.16 2.14 2.21 2.18 2.32 2.58 2.91 3.04 3.11 3.15 3.06 2.93 2.75 2.49 2.29 2.19 2.14 2.08
4.99 4.90 4.92 4.84 4.63 4.44 4.25 4.07 3.99 3.83 3.50 3.37 3.31 3.17 2.69 2.28 1.91 1.68 1.70 1.66 1.67 1.83 1.86 1.85 1.96 2.04 2.04 2.10 2.11 2.24 2.38 2.55 2.78 2.92 2.91 2.86 2.80 2.81 2.77 2.64 2.48 2.35 2.26
5.22 5.07 4.91 4.69 4.52 4.39 4.23 4.02 3.84 3.74 3.52 3.39 3.31 3.35 3.03 2.59 2.09 1.74 1.56 1.48 1.44 1.55 1.62 1.67 1.71 1.79 1.89 1.98 2.01 2.14 2.22 2.23 2.42 2.60 2.67 2.70 2.67 2.65 2.65 2.65 2.62 2.57 2.49
4.85 4.61 4.48 4.36 4.16 3.86 3.63 3.47 3.39 3.25 3.13 2.99 2.99 2.93 2.76 2.57 2.52 2.27 1.96 1.78 1.69 1.64 1.63 1.60 1.63 1.73 1.78 1.91 2.06 2.12 2.08 2.06 2.20 2.30 2.38 2.48 2.54 2.61 2.64 2.68 2.66 2.65 2.65
4.23 3.98 3.84 3.66 3.43 3.06 2.70 2.57 2.65 2.74 2.75 2.67 2.65 2.68 2.66 2.51 2.44 2.36 2.19 2.01 1.89 1.77 1.70 1.75 1.80 1.80 1.78 1.79 1.84 1.99 1.98 1.83 1.92 2.00 2.14 2.27 2.34 2.45 2.54 2.59 2.64 2.64 2.67
3.62 3.27 2.96 2.67 2.44 2.27 2.06 2.01 2.05 2.14 2.32 2.43 2.54 2.57 2.56 2.47 2.39 2.38 2.26 2.17 2.09 1.95 1.80 1.72 1.74 1.77 1.76 1.75 1.75 1.90 1.72 1.63 1.61 1.66 1.78 1.89 1.96 2.04 2.14 2.30 2.48 2.60 2.72
2.86 2.57 2.29 2.15 2.01 1.90 1.83 1.79 1.76 1.73 1.83 1.98 2.10 2.23 2.32 2.32 2.32 2.38 2.44 2.41 2.22 2.06 1.96 1.81 1.71 1.68 1.69 1.71 1.71 1.79 1.61 1.51 1.43 1.41 1.38 1.43 1.48 1.57 1.73 1.90 2.08 2.25 2.38
2.15 1.89 1.68 1.56 1.54 1.56 1.49 1.52 1.54 1.54 1.55 1.61 1.68 1.86 2.00 2.05 2.09 2.11 2.14 2.22 2.25 2.13 1.93 1.79 1.73 1.64 1.55 1.47 1.48 1.47 1.30 1.31 1.20 1.17 1.17 1.18 1.20 1.22 1.27 1.35 1.44 1.55 1.63
1.53 1.37 1.26 1.24 1.21 1.21 1.23 1.22 1.22 1.27 1.35 1.40 1.41 1.48 1.58 1.64 1.71 1.79 1.87 1.93 2.05 2.08 1.92 1.70 1.62 1.52 1.36 1.23 1.26 1.08 1.02 1.06 0.96 0.90 0.88 0.90 0.92 0.95 0.99 1.03 1.10 1.17 1.22
1.17 1.12 1.07 1.01 0.94 0.91 0.90 0.91 0.94 0.99 1.06 1.15 1.18 1.21 1.28 1.31 1.40 1.50 1.64 1.73 1.75 1.81 1.79 1.56 1.37 1.26 1.17 1.04 1.08 0.95 0.95 0.97 0.83 0.80 0.75 0.75 0.80 0.87 0.89 0.92 0.95 0.98 1.01
0.87 0.81 0.76 0.72 0.69 0.71 0.74 0.78 0.81 0.85 0.89 0.96 1.04 1.08 1.12 1.11 1.17 1.24 1.27 1.33 1.46 1.55 1.57 1.40 1.23 1.16 1.11 1.02 0.98 0.97 0.94 0.87 0.79 0.81 0.76 0.74 0.74 0.74 0.76 0.77 0.78 0.82 0.89
0.71 0.62 0.56 0.55 0.55 0.57 0.59 0.62 0.66 0.70 0.79 0.84 0.88 0.92 0.94 0.94 0.98 1.01 1.05 1.07 1.16 1.27 1.34 1.34 1.24 1.16 1.11 1.04 0.98 0.99 0.82 0.69 0.68 0.72 0.67 0.62 0.61 0.61 0.62 0.64 0.64 0.65 0.66
0.66 0.59 0.52 0.52 0.50 0.48 0.49 0.50 0.52 0.54 0.63 0.71 0.75 0.80 0.82 0.82 0.81 0.78 0.82 0.90 0.97 1.05 1.20 1.22 1.13 1.05 0.98 0.93 0.97 0.88 0.80 0.87 0.66 0.62 0.57 0.51 0.50 0.49 0.49 0.50 0.51 0.51 0.51
0.53 0.52 0.51 0.49 0.47 0.44 0.44 0.43 0.40 0.44 0.49 0.54 0.57 0.62 0.66 0.70 0.71 0.73 0.72 0.84 0.92 1.05 1.13 1.14 1.07 0.99 0.94 0.89 0.99 0.99 0.93 0.89 0.73 0.52 0.53 0.46 0.45 0.43 0.44 0.44 0.44 0.44 0.43
0.48 0.45 0.44 0.44 0.40 0.35 0.30 0.29 0.33 0.39 0.46 0.47 0.50 0.49 0.49 0.54 0.63 0.65 0.65 0.73 0.84 0.99 1.02 1.02 1.02 0.98 0.93 0.96 0.98 0.94 0.95 0.90 0.78 0.62 0.63 0.55 0.54 0.57 0.60 0.56 0.50 0.48 0.43
0.46 0.44 0.43 0.41 0.36 0.27 0.26 0.25 0.27 0.36 0.46 0.49 0.48 0.46 0.42 0.39 0.44 0.51 0.53 0.60 0.73 0.84 0.92 0.97 0.97 0.97 0.94 0.99 1.03 1.00 1.02 1.03 0.98 0.73 0.73 0.65 0.59 0.69 0.71 0.67 0.59 0.47 0.41
0.52 0.47 0.44 0.43 0.44 0.37 0.24 0.20 0.22 0.33 0.47 0.47 0.47 0.50 0.45 0.41 0.46 0.52 0.52 0.50 0.55 0.59 0.68 0.85 0.96 1.00 1.05 1.14 1.23 1.19 1.16 1.14 1.12 0.89 0.91 0.85 0.71 0.78 0.65 0.58 0.62 0.52 0.44
0.53 0.50 0.48 0.48 0.52 0.41 0.26 0.18 0.21 0.32 0.42 0.39 0.41 0.48 0.54 0.54 0.46 0.46 0.50 0.54 0.59 0.61 0.63 0.67 0.86 0.93 0.94 1.03 1.15 1.19 1.19 1.14 1.10 1.05 1.08 1.08 0.83 0.78 0.68 0.87 0.87 0.72 0.57
0.57 0.55 0.53 0.56 0.58 0.46 0.31 0.24 0.26 0.35 0.41 0.42 0.43 0.41 0.40 0.42 0.40 0.45 0.53 0.67 0.70 0.75 0.61 0.65 0.75 0.81 0.84 0.89 0.94 1.03 1.17 1.28 1.25 1.12 1.06 1.09 0.97 0.86 0.86 1.07 1.04 0.99 0.81
0.54 0.48 0.51 0.59 0.58 0.50 0.34 0.27 0.29 0.32 0.40 0.50 0.54 0.51 0.42 0.37 0.39 0.42 0.55 0.71 0.81 0.81 0.83 0.99 1.10 1.09 1.03 1.00 0.96 1.05 1.24 1.31 1.32 1.28 1.10 1.11 1.13 1.07 1.09 1.14 1.19 1.14 1.05

GEFSMA_prec_meanprecacc_222.txt.gz
Total_Precipitation_Accumulation
2.17 2.36 2.32 2.23 2.15 2.25 2.17 2.01 1.81 1.82 1.76 1.58 1.43 1.44 1.46 1.44 1.41 1.48 1.59 1.49 1.52 1.76 2.21 2.52 2.64 2.56 2.51 2.49 2.43 2.32 2.17 2.04 1.94 1.77 1.61 1.43 1.29 1.23 1.23 1.27 1.29 1.26 1.26
2.71 2.88 2.83 2.67 2.46 2.46 2.42 2.32 2.26 2.32 2.23 2.15 1.95 1.81 1.70 1.74 1.67 1.67 1.83 1.87 1.73 1.76 2.18 2.69 2.94 2.94 2.85 2.83 2.65 2.42 2.35 2.30 2.24 2.12 1.99 1.77 1.55 1.45 1.39 1.36 1.39 1.36 1.32
3.19 3.26 3.28 3.01 2.79 2.76 2.87 2.82 2.74 2.72 2.46 2.36 2.27 2.17 2.01 1.88 1.83 1.83 1.98 2.25 2.12 2.09 2.24 2.37 2.54 2.71 2.88 3.07 3.11 2.92 2.70 2.55 2.45 2.36 2.27 2.14 1.95 1.78 1.67 1.61 1.59 1.52 1.46
3.30 3.38 3.40 3.28 3.13 3.06 3.29 3.41 3.34 3.25 3.07 2.97 2.79 2.52 2.23 2.13 2.11 2.21 2.27 2.42 2.61 2.53 2.53 2.40 2.28 2.40 2.73 3.02 3.19 3.24 3.07 2.80 2.62 2.57 2.50 2.43 2.24 2.09 1.94 1.85 1.83 1.74 1.60
3.65 3.69 3.62 3.61 3.62 3.69 3.68 3.48 3.58 3.44 3.43 3.32 2.90 2.65 2.33 2.22 2.30 2.29 2.39 2.41 2.56 2.58 2.59 2.42 2.33 2.33 2.52 2.86 3.05 3.29 3.31 3.20 3.05 2.89 2.78 2.71 2.58 2.38 2.18 2.05 1.96 1.87 1.73
4.06 4.26 4.24 4.14 4.13 4.09 3.89 3.82 3.80 3.61 3.44 3.31 2.88 2.61 2.37 2.21 2.19 2.25 2.27 2.24 2.22 2.20 2.22 2.30 2.50 2.37 2.45 2.58 2.63 2.87 3.15 3.32 3.22 3.09 2.99 2.93 2.77 2.53 2.27 2.15 2.08 2.03 1.96
4.85 4.86 4.68 4.46 4.32 4.28 4.18 4.14 3.96 3.75 3.49 3.37 3.25 2.89 2.39 2.11 2.10 2.08 2.08 2.06 2.02 2.04 2.12 2.20 2.23 2.20 2.18 2.27 2.24 2.38 2.65 2.97 3.09 3.16 3.19 3.10 2.96 2.77 2.51 2.31 2.22 2.17 2.12
5.08 4.98 4.98 4.90 4.70 4.50 4.29 4.10 4.01 3.85 3.53 3.41 3.35 3.21 2.74 2.32 1.95 1.73 1.75 1.73 1.73 1.88 1.89 1.88 1.98 2.07 2.07 2.13 2.14 2.29 2.44 2.61 2.84 2.97 2.95 2.90 2.84 2.83 2.80 2.66 2.50 2.37 2.30
5.26 5.09 4.94 4.72 4.56 4.43 4.26 4.05 3.87 3.77 3.54 3.41 3.34 3.40 3.09 2.65 2.15 1.79 1.60 1.53 1.50 1.60 1.65 1.70 1.74 1.82 1.92 2.01 2.02 2.16 2.26 2.28 2.48 2.66 2.74 2.75 2.71 2.68 2.67 2.67 2.65 2.60 2.52
4.88 4.63 4.50 4.38 4.19 3.89 3.65 3.50 3.41 3.27 3.14 3.01 3.02 2.97 2.81 2.63 2.59 2.33 2.02 1.84 1.74 1.69 1.68 1.64 1.66 1.76 1.80 1.93 2.09 2.14 2.11 2.09 2.24 2.36 2.45 2.55 2.60 2.66 2.68 2.71 2.69 2.67 2.67
4.25 3.99 3.85 3.67 3.45 3.09 2.73 2.60 2.68 2.77 2.77 2.70 2.68 2.71 2.70 2.54 2.48 2.41 2.26 2.08 1.96 1.82 1.75 1.79 1.82 1.82 1.81 1.82 1.88 2.03 2.02 1.86 1.94 2.04 2.20 2.33 2.40 2.51 2.59 2.64 2.68 2.68 2.70
3.64 3.29 2.98 2.70 2.47 2.31 2.11 2.05 2.08 2.16 2.35 2.46 2.59 2.62 2.60 2.50 2.42 2.42 2.31 2.24 2.17 2.01 1.85 1.75 1.77 1.79 1.79 1.78 1.77 1.94 1.76 1.67 1.64 1.69 1.81 1.94 2.02 2.10 2.20 2.36 2.54 2.64 2.76
2.88 2.59 2.32 2.18 2.04 1.93 1.86 1.83 1.80 1.77 1.86 2.02 2.15 2.28 2.36 2.35 2.34 2.40 2.48 2.46 2.28 2.11 2.00 1.86 1.74 1.71 1.73 1.76 1.75 1.82 1.64 1.55 1.47 1.44 1.41 1.47 1.52 1.62 1.78 1.96 2.13 2.30 2.43
2.16 1.92 1.72 1.60 1.58 1.61 1.54 1.56 1.58 1.58 1.59 1.66 1.74 1.92 2.05 2.09 2.11 2.13 2.17 2.26 2.31 2.18 1.97 1.83 1.76 1.67 1.58 1.51 1.53 1.53 1.34 1.36 1.25 1.20 1.20 1.21 1.23 1.25 1.32 1.41 1.50 1.60 1.67
1.55 1.39 1.29 1.28 1.27 1.28 1.32 1.30 1.28 1.32 1.41 1.46 1.47 1.55 1.63 1.68 1.74 1.82 1.90 1.97 2.10 2.14 1.97 1.73 1.66 1.55 1.39 1.25 1.31 1.14 1.10 1.15 1.04 0.97 0.93 0.94 0.96 0.99 1.02 1.08 1.15 1.21 1.25
1.21 1.19 1.13 1.06 1.00 0.99 1.00 1.04 1.06 1.08 1.13 1.22 1.25 1.27 1.33 1.35 1.43 1.52 1.66 1.75 1.78 1.85 1.83 1.59 1.40 1.29 1.20 1.05 1.10 0.97 0.99 1.03 0.89 0.87 0.83 0.82 0.86 0.92 0.94 0.97 1.00 1.02 1.05
0.94 0.91 0.82 0.77 0.74 0.77 0.82 0.87 0.90 0.94 0.98 1.03 1.10 1.14 1.16 1.14 1.20 1.26 1.28 1.34 1.47 1.57 1.60 1.44 1.27 1.19 1.14 1.04 1.00 1.00 0.97 0.91 0.83 0.86 0.81 0.79 0.80 0.80 0.81 0.83 0.84 0.87 0.92
0.78 0.71 0.62 0.60 0.59 0.62 0.65 0.68 0.72 0.76 0.86 0.89 0.91 0.95 0.97 0.97 1.01 1.03 1.06 1.08 1.18 1.30 1.37 1.38 1.29 1.21 1.16 1.08 1.01 1.02 0.85 0.72 0.72 0.77 0.71 0.66 0.65 0.65 0.66 0.68 0.69 0.69 0.70
0.72 0.64 0.56 0.54 0.53 0.51 0.52 0.53 0.56 0.58 0.66 0.74 0.78 0.82 0.84 0.85 0.84 0.80 0.85 0.92 1.00 1.08 1.23 1.26 1.19 1.11 1.02 0.97 1.01 0.93 0.85 0.91 0.69 0.65 0.61 0.55 0.53 0.52 0.53 0.54 0.55 0.55 0.55
0.58 0.56 0.53 0.50 0.48 0.45 0.46 0.45 0.42 0.45 0.51 0.56 0.59 0.64 0.68 0.72 0.74 0.75 0.76 0.87 0.94 1.07 1.16 1.17 1.12 1.04 0.98 0.92 1.02 1.03 0.98 0.94 0.77 0.57 0.57 0.50 0.49 0.47 0.47 0.48 0.48 0.47 0.47
0.52 0.49 0.47 0.46 0.41 0.35 0.31 0.31 0.34 0.40 0.48 0.49 0.52 0.51 0.52 0.57 0.67 0.68 0.68 0.76 0.87 1.01 1.04 1.04 1.05 1.01 0.95 0.98 1.00 0.95 0.97 0.94 0.82 0.67 0.69 0.60 0.57 0.61 0.63 0.59 0.54 0.52 0.46
0.50 0.47 0.45 0.42 0.37 0.29 0.27 0.26 0.28 0.37 0.47 0.50 0.49 0.47 0.44 0.42 0.47 0.54 0.56 0.62 0.75 0.86 0.93 0.99 0.99 0.99 0.96 1.01 1.04 1.01 1.03 1.04 0.99 0.75 0.76 0.69 0.63 0.72 0.73 0.68 0.61 0.49 0.43
0.53 0.48 0.45 0.44 0.45 0.39 0.25 0.21 0.23 0.33 0.48 0.48 0.48 0.52 0.46 0.42 0.48 0.54 0.55 0.52 0.57 0.61 0.70 0.87 0.98 1.01 1.06 1.15 1.24 1.20 1.17 1.15 1.13 0.91 0.93 0.87 0.74 0.81 0.67 0.60 0.64 0.54 0.46
0.55 0.51 0.48 0.49 0.53 0.42 0.27 0.19 0.22 0.32 0.43 0.39 0.42 0.49 0.56 0.57 0.49 0.49 0.52 0.56 0.60 0.62 0.64 0.69 0.87 0.95 0.96 1.05 1.17 1.21 1.21 1.16 1.12 1.07 1.10 1.10 0.84 0.80 0.70 0.89 0.89 0.73 0.58
0.58 0.56 0.54 0.57 0.59 0.47 0.31 0.24 0.27 0.35 0.41 0.42 0.44 0.42 0.43 0.48 0.45 0.49 0.55 0.69 0.72 0.76 0.62 0.67 0.77 0.83 0.86 0.91 0.97 1.07 1.21 1.31 1.27 1.15 1.08 1.11 0.98 0.87 0.88 1.09 1.05 1.00 0.81
0.54 0.49 0.53 0.60 0.59 0.51 0.35 0.28 0.30 0.34 0.42 0.51 0.55 0.53 0.48 0.45 0.43 0.46 0.57 0.73 0.82 0.82 0.84 1.00 1.11 1.11 1.04 1.02 0.98 1.08 1.27 1.35 1.34 1.29 1.12 1.13 1.15 1.09 1.12 1.15 1.21 1.15 1.06

GEFSMA_prec_meanprecacc_228.txt.gz
Total_Precipitation_Accumulation
2.22 2.41 2.38 2.27 2.17 2.26 2.19 2.04 1.84 1.85 1.81 1.64 1.48 1.50 1.52 1.51 1.48 1.57 1.69 1.58 1.60 1.83 2.27 2.58 2.71 2.64 2.59 2.57 2.50 2.38 2.23 2.11 2.01 1.84 1.68 1.48 1.35 1.29 1.29 1.33 1.35 1.32 1.32
2.75 2.91 2.87 2.69 2.47 2.47 2.42 2.34 2.28 2.34 2.26 2.19 1.99 1.86 1.77 1.83 1.77 1.76 1.92 1.96 1.81 1.82 2.23 2.73 2.99 3.01 2.93 2.90 2.71 2.48 2.39 2.36 2.31 2.18 2.04 1.81 1.59 1.49 1.44 1.40 1.44 1.41 1.37
3.22 3.29 3.31 3.03 2.80 2.76 2.88 2.83 2.76 2.73 2.48 2.39 2.30 2.21 2.07 1.95 1.93 1.95 2.10 2.35 2.20 2.17 2.30 2.42 2.59 2.77 2.95 3.14 3.18 2.98 2.76 2.60 2.52 2.42 2.32 2.19 2.00 1.82 1.71 1.66 1.62 1.56 1.49
3.34 3.42 3.43 3.30 3.15 3.08 3.30 3.42 3.35 3.26 3.08 2.99 2.81 2.54 2.27 2.17 2.17 2.28 2.36 2.51 2.69 2.59 2.58 2.45 2.32 2.45 2.78 3.07 3.25 3.31 3.14 2.87 2.68 2.62 2.56 2.48 2.29 2.14 1.97 1.89 1.88 1.78 1.64
3.70 3.73 3.65 3.64 3.65 3.71 3.70 3.50 3.59 3.45 3.44 3.34 2.92 2.68 2.36 2.26 2.36 2.35 2.44 2.47 2.63 2.63 2.64 2.47 2.37 2.37 2.57 2.92 3.10 3.36 3.40 3.28 3.12 2.95 2.83 2.76 2.62 2.42 2.22 2.09 2.00 1.91 1.76
4.12 4.31 4.28 4.19 4.18 4.14 3.94 3.86 3.83 3.64 3.47 3.34 2.90 2.64 2.39 2.25 2.23 2.30 2.30 2.27 2.26 2.25 2.26 2.34 2.54 2.41 2.50 2.63 2.69 2.94 3.24 3.42 3.31 3.15 3.04 2.97 2.80 2.55 2.30 2.17 2.11 2.06 1.99
4.90 4.94 4.75 4.52 4.38 4.37 4.28 4.23 4.03 3.79 3.52 3.40 3.29 2.93 2.41 2.13 2.14 2.11 2.11 2.11 2.07 2.08 2.16 2.24 2.27 2.24 2.23 2.31 2.30 2.44 2.72 3.06 3.21 3.25 3.25 3.14 2.99 2.79 2.53 2.32 2.23 2.20 2.14
5.10 5.02 5.05 4.95 4.75 4.56 4.36 4.17 4.09 3.90 3.56 3.45 3.40 3.26 2.77 2.35 1.97 1.75 1.77 1.78 1.80 1.94 1.94 1.92 2.02 2.11 2.11 2.17 2.17 2.33 2.49 2.68 2.94 3.09 3.05 2.96 2.87 2.86 2.81 2.67 2.51 2.39 2.31
5.27 5.11 4.98 4.75 4.60 4.47 4.30 4.10 3.92 3.81 3.58 3.44 3.38 3.46 3.15 2.69 2.18 1.82 1.63 1.57 1.55 1.68 1.73 1.76 1.78 1.86 1.96 2.05 2.06 2.19 2.30 2.32 2.54 2.77 2.89 2.85 2.77 2.72 2.70 2.69 2.66 2.61 2.53
4.90 4.66 4.53 4.41 4.24 3.94 3.70 3.54 3.45 3.30 3.18 3.04 3.07 3.03 2.88 2.69 2.64 2.38 2.06 1.88 1.79 1.77 1.78 1.72 1.72 1.81 1.84 1.97 2.13 2.16 2.13 2.12 2.28 2.42 2.58 2.70 2.70 2.72 2.73 2.75 2.72 2.70 2.69
4.27 4.01 3.87 3.70 3.49 3.14 2.79 2.65 2.72 2.80 2.81 2.74 2.74 2.77 2.76 2.60 2.53 2.48 2.31 2.13 2.01 1.89 1.84 1.89 1.90 1.89 1.86 1.86 1.91 2.05 2.03 1.88 1.97 2.07 2.25 2.45 2.53 2.59 2.66 2.69 2.72 2.72 2.73
3.67 3.32 3.01 2.74 2.51 2.35 2.16 2.11 2.13 2.21 2.40 2.52 2.65 2.68 2.67 2.56 2.47 2.48 2.37 2.29 2.22 2.07 1.92 1.82 1.84 1.85 1.83 1.83 1.80 1.96 1.77 1.69 1.66 1.71 1.84 1.99 2.12 2.21 2.28 2.42 2.59 2.69 2.81
2.91 2.63 2.35 2.22 2.07 1.96 1.90 1.88 1.84 1.80 1.91 2.09 2.21 2.33 2.42 2.41 2.40 2.46 2.54 2.51 2.33 2.17 2.06 1.90 1.77 1.74 1.76 1.79 1.79 1.84 1.65 1.56 1.49 1.46 1.43 1.50 1.56 1.70 1.87 2.03 2.19 2.36 2.49
2.19 1.95 1.75 1.63 1.61 1.65 1.59 1.62 1.61 1.61 1.63 1.70 1.78 1.96 2.10 2.14 2.18 2.19 2.21 2.31 2.37 2.24 2.03 1.88 1.80 1.70 1.60 1.53 1.56 1.55 1.35 1.37 1.26 1.22 1.21 1.23 1.26 1.29 1.39 1.50 1.57 1.65 1.72
1.59 1.43 1.33 1.33 1.31 1.33 1.38 1.37 1.33 1.36 1.45 1.50 1.51 1.59 1.69 1.73 1.81 1.88 1.95 2.01 2.16 2.19 2.02 1.78 1.70 1.58 1.42 1.28 1.34 1.17 1.12 1.16 1.05 0.98 0.94 0.96 0.98 1.02 1.07 1.14 1.23 1.27 1.29
1.25 1.24 1.17 1.11 1.04 1.03 1.04 1.08 1.11 1.15 1.20 1.28 1.31 1.34 1.39 1.41 1.49 1.58 1.71 1.80 1.83 1.89 1.87 1.63 1.43 1.32 1.24 1.09 1.14 1.00 1.02 1.05 0.91 0.89 0.85 0.85 0.88 0.94 0.97 1.02 1.05 1.08 1.10
1.01 0.97 0.88 0.82 0.79 0.82 0.88 0.93 0.96 1.01 1.05 1.09 1.17 1.21 1.24 1.22 1.28 1.32 1.34 1.40 1.53 1.61 1.64 1.47 1.30 1.22 1.17 1.07 1.04 1.03 1.00 0.94 0.86 0.88 0.83 0.81 0.83 0.84 0.85 0.87 0.88 0.92 0.99
0.84 0.76 0.66 0.64 0.64 0.68 0.72 0.75 0.78 0.81 0.91 0.94 0.96 0.98 1.01 1.02 1.07 1.10 1.13 1.15 1.25 1.36 1.42 1.43 1.33 1.24 1.19 1.11 1.05 1.06 0.89 0.75 0.75 0.79 0.73 0.67 0.67 0.67 0.69 0.71 0.73 0.74 0.76
0.77 0.68 0.59 0.57 0.56 0.56 0.58 0.60 0.64 0.64 0.70 0.77 0.81 0.84 0.86 0.88 0.87 0.84 0.89 0.97 1.05 1.13 1.28 1.30 1.23 1.14 1.05 1.00 1.05 0.98 0.89 0.95 0.73 0.68 0.64 0.58 0.56 0.55 0.55 0.56 0.58 0.59 0.59
0.63 0.60 0.56 0.52 0.51 0.50 0.50 0.49 0.46 0.50 0.55 0.59 0.62 0.66 0.71 0.76 0.77 0.79 0.80 0.92 0.98 1.10 1.19 1.20 1.14 1.08 1.01 0.95 1.06 1.08 1.04 0.98 0.82 0.60 0.60 0.53 0.52 0.50 0.50 0.50 0.50 0.50 0.49
0.57 0.53 0.50 0.49 0.43 0.39 0.35 0.35 0.37 0.43 0.52 0.53 0.55 0.55 0.55 0.61 0.71 0.72 0.72 0.80 0.90 1.04 1.06 1.07 1.07 1.05 1.00 1.01 1.04 1.00 1.03 0.99 0.87 0.72 0.74 0.63 0.61 0.64 0.66 0.61 0.55 0.53 0.48
0.52 0.49 0.47 0.44 0.39 0.30 0.30 0.30 0.31 0.39 0.49 0.53 0.52 0.50 0.47 0.45 0.51 0.58 0.60 0.67 0.79 0.89 0.96 1.01 1.03 1.03 1.01 1.06 1.09 1.05 1.08 1.10 1.06 0.82 0.84 0.77 0.69 0.77 0.76 0.71 0.62 0.51 0.45
0.55 0.50 0.46 0.45 0.47 0.40 0.26 0.23 0.25 0.35 0.50 0.50 0.50 0.54 0.49 0.45 0.51 0.57 0.58 0.56 0.60 0.63 0.73 0.90 1.02 1.06 1.10 1.20 1.29 1.24 1.21 1.20 1.17 0.94 0.98 0.94 0.81 0.88 0.72 0.63 0.66 0.56 0.48
0.56 0.53 0.49 0.50 0.54 0.43 0.27 0.19 0.22 0.34 0.44 0.41 0.43 0.51 0.59 0.60 0.53 0.52 0.56 0.60 0.64 0.65 0.68 0.72 0.92 0.99 0.98 1.08 1.20 1.24 1.24 1.19 1.16 1.11 1.14 1.14 0.87 0.83 0.74 0.93 0.92 0.76 0.61
0.58 0.57 0.54 0.58 0.60 0.48 0.32 0.24 0.28 0.37 0.43 0.43 0.45 0.44 0.45 0.52 0.49 0.52 0.60 0.74 0.77 0.80 0.65 0.69 0.79 0.85 0.87 0.92 0.99 1.10 1.24 1.34 1.31 1.19 1.12 1.15 1.01 0.89 0.90 1.12 1.08 1.03 0.84
0.55 0.50 0.53 0.61 0.60 0.52 0.36 0.28 0.30 0.35 0.43 0.52 0.58 0.57 0.52 0.49 0.47 0.52 0.64 0.78 0.86 0.85 0.86 1.01 1.12 1.12 1.05 1.03 0.99 1.10 1.31 1.39 1.37 1.33 1.16 1.17 1.19 1.12 1.15 1.18 1.23 1.18 1.09

GEFSMA_prec_meanprecacc_234.txt.gz
Total_Precipitation_Accumulation
2.26 2.45 2.41 2.32 2.22 2.29 2.23 2.08 1.89 1.90 1.85 1.68 1.52 1.54 1.58 1.57 1.57 1.67 1.77 1.66 1.69 1.94 2.37 2.67 2.78 2.71 2.66 2.63 2.57 2.46 2.31 2.19 2.08 1.91 1.75 1.55 1.41 1.35 1.34 1.39 1.44 1.38 1.37
2.81 2.97 2.92 2.74 2.50 2.48 2.44 2.37 2.31 2.37 2.30 2.24 2.04 1.90 1.81 1.87 1.83 1.84 2.00 2.05 1.91 1.91 2.32 2.82 3.08 3.09 2.99 2.97 2.79 2.57 2.49 2.45 2.40 2.25 2.11 1.87 1.65 1.54 1.48 1.45 1.50 1.48 1.42
3.29 3.36 3.36 3.08 2.84 2.80 2.92 2.86 2.78 2.76 2.51 2.42 2.34 2.25 2.11 2.00 1.97 2.00 2.16 2.42 2.29 2.28 2.43 2.53 2.68 2.85 3.02 3.21 3.25 3.06 2.84 2.69 2.60 2.50 2.39 2.26 2.06 1.87 1.76 1.70 1.68 1.63 1.55
3.40 3.48 3.47 3.33 3.19 3.12 3.35 3.46 3.38 3.29 3.11 3.02 2.84 2.58 2.32 2.23 2.22 2.35 2.44 2.58 2.77 2.70 2.72 2.57 2.43 2.53 2.85 3.13 3.31 3.37 3.21 2.94 2.75 2.69 2.62 2.54 2.35 2.19 2.03 1.94 1.93 1.83 1.68
3.75 3.79 3.70 3.69 3.71 3.78 3.76 3.54 3.64 3.50 3.49 3.38 2.94 2.72 2.40 2.31 2.41 2.39 2.49 2.53 2.69 2.69 2.70 2.54 2.44 2.42 2.61 2.95 3.15 3.40 3.44 3.33 3.17 3.00 2.89 2.82 2.68 2.46 2.27 2.13 2.05 1.94 1.79
4.16 4.37 4.33 4.25 4.24 4.21 4.00 3.92 3.89 3.70 3.52 3.39 2.93 2.67 2.44 2.29 2.27 2.34 2.34 2.31 2.31 2.29 2.30 2.37 2.58 2.44 2.53 2.66 2.72 2.97 3.29 3.49 3.37 3.21 3.10 3.03 2.86 2.60 2.33 2.21 2.15 2.10 2.02
4.95 5.00 4.79 4.58 4.44 4.43 4.34 4.30 4.09 3.87 3.61 3.49 3.38 3.00 2.46 2.17 2.18 2.16 2.16 2.16 2.12 2.13 2.22 2.29 2.30 2.27 2.26 2.34 2.33 2.48 2.77 3.13 3.29 3.33 3.33 3.22 3.05 2.84 2.57 2.35 2.27 2.24 2.18
5.15 5.08 5.11 5.01 4.81 4.63 4.42 4.23 4.16 3.98 3.64 3.56 3.53 3.39 2.88 2.44 2.04 1.80 1.82 1.82 1.84 1.99 1.99 1.97 2.05 2.14 2.13 2.21 2.21 2.37 2.54 2.73 2.99 3.16 3.13 3.03 2.94 2.92 2.87 2.72 2.55 2.42 2.34
5.31 5.16 5.03 4.81 4.67 4.54 4.35 4.15 3.98 3.88 3.65 3.52 3.48 3.57 3.26 2.79 2.27 1.88 1.67 1.60 1.60 1.72 1.76 1.80 1.83 1.90 2.00 2.09 2.11 2.24 2.35 2.36 2.59 2.82 2.96 2.92 2.84 2.79 2.76 2.74 2.71 2.65 2.56
4.94 4.71 4.58 4.47 4.30 3.99 3.75 3.59 3.50 3.36 3.24 3.10 3.15 3.12 2.97 2.79 2.74 2.47 2.12 1.93 1.84 1.81 1.82 1.76 1.76 1.86 1.89 2.01 2.17 2.21 2.15 2.15 2.32 2.47 2.65 2.77 2.77 2.81 2.81 2.81 2.78 2.75 2.73
4.33 4.06 3.93 3.76 3.54 3.19 2.84 2.71 2.77 2.85 2.86 2.80 2.80 2.84 2.84 2.69 2.63 2.57 2.39 2.20 2.08 1.94 1.89 1.95 1.95 1.93 1.91 1.91 1.97 2.11 2.06 1.90 1.99 2.11 2.30 2.49 2.60 2.66 2.74 2.76 2.79 2.77 2.79
3.74 3.38 3.06 2.79 2.56 2.40 2.21 2.17 2.20 2.28 2.48 2.60 2.73 2.76 2.76 2.65 2.56 2.56 2.46 2.38 2.29 2.12 1.96 1.89 1.90 1.90 1.88 1.88 1.86 2.01 1.81 1.71 1.68 1.73 1.86 2.02 2.15 2.24 2.32 2.48 2.65 2.74 2.86
2.97 2.69 2.40 2.27 2.13 2.01 1.95 1.95 1.94 1.90 2.00 2.18 2.31 2.42 2.51 2.50 2.50 2.56 2.65 2.62 2.43 2.23 2.12 1.97 1.85 1.80 1.80 1.85 1.84 1.89 1.70 1.60 1.51 1.47 1.44 1.51 1.58 1.72 1.89 2.07 2.24 2.41 2.53
2.25 2.01 1.81 1.69 1.66 1.69 1.64 1.68 1.69 1.69 1.70 1.78 1.87 2.05 2.17 2.22 2.27 2.28 2.33 2.43 2.48 2.34 2.11 1.96 1.87 1.75 1.66 1.58 1.61 1.59 1.39 1.41 1.29 1.24 1.22 1.24 1.27 1.30 1.40 1.52 1.61 1.71 1.77
1.64 1.50 1.40 1.38 1.36 1.38 1.44 1.44 1.40 1.43 1.52 1.56 1.57 1.66 1.74 1.78 1.87 1.95 2.03 2.10 2.27 2.30 2.11 1.86 1.76 1.63 1.47 1.33 1.39 1.22 1.17 1.20 1.09 1.01 0.96 0.96 0.98 1.02 1.08 1.15 1.25 1.31 1.33
1.32 1.31 1.24 1.18 1.10 1.09 1.10 1.14 1.17 1.20 1.25 1.34 1.37 1.38 1.44 1.45 1.54 1.64 1.78 1.88 1.92 1.99 1.96 1.69 1.48 1.36 1.29 1.13 1.19 1.04 1.06 1.08 0.93 0.91 0.87 0.85 0.89 0.95 0.98 1.02 1.06 1.13 1.15
1.08 1.05 0.95 0.88 0.85 0.88 0.93 0.98 1.02 1.06 1.10 1.15 1.23 1.26 1.28 1.27 1.33 1.38 1.41 1.47 1.60 1.70 1.73 1.54 1.34 1.27 1.23 1.13 1.09 1.08 1.05 0.97 0.89 0.90 0.84 0.82 0.83 0.84 0.85 0.87 0.89 0.94 1.03
0.92 0.85 0.74 0.71 0.70 0.73 0.78 0.81 0.85 0.88 0.98 1.00 1.01 1.04 1.06 1.08 1.13 1.16 1.20 1.23 1.32 1.45 1.52 1.52 1.41 1.33 1.26 1.16 1.11 1.13 0.94 0.78 0.78 0.82 0.74 0.69 0.67 0.67 0.70 0.71 0.73 0.74 0.77
0.84 0.77 0.67 0.65 0.63 0.63 0.64 0.66 0.70 0.70 0.76 0.83 0.86 0.91 0.93 0.95 0.93 0.90 0.96 1.04 1.12 1.20 1.37 1.38 1.31 1.22 1.12 1.05 1.12 1.03 0.94 1.00 0.76 0.71 0.66 0.59 0.57 0.55 0.55 0.56 0.58 0.59 0.60
0.70 0.67 0.64 0.60 0.59 0.56 0.55 0.54 0.51 0.54 0.59 0.65 0.68 0.74 0.77 0.82 0.83 0.83 0.86 0.99 1.06 1.18 1.27 1.27 1.22 1.16 1.08 1.01 1.12 1.13 1.09 1.04 0.87 0.64 0.62 0.55 0.54 0.51 0.51 0.51 0.51 0.50 0.50
0.62 0.59 0.56 0.54 0.49 0.44 0.40 0.39 0.42 0.48 0.56 0.57 0.60 0.60 0.60 0.67 0.77 0.77 0.77 0.86 0.97 1.12 1.14 1.15 1.15 1.12 1.06 1.08 1.09 1.05 1.09 1.06 0.94 0.79 0.80 0.67 0.64 0.66 0.68 0.63 0.57 0.55 0.49
0.58 0.54 0.51 0.48 0.43 0.33 0.32 0.32 0.34 0.44 0.54 0.58 0.58 0.56 0.53 0.52 0.56 0.62 0.64 0.72 0.84 0.95 1.03 1.08 1.09 1.09 1.06 1.12 1.15 1.11 1.14 1.17 1.12 0.88 0.90 0.83 0.74 0.82 0.79 0.73 0.64 0.53 0.47
0.60 0.53 0.49 0.48 0.49 0.41 0.27 0.23 0.26 0.38 0.54 0.55 0.55 0.59 0.54 0.50 0.57 0.62 0.62 0.61 0.65 0.66 0.76 0.94 1.07 1.12 1.18 1.27 1.34 1.30 1.27 1.26 1.25 1.00 1.03 1.00 0.87 0.94 0.77 0.66 0.68 0.57 0.49
0.58 0.55 0.52 0.53 0.57 0.44 0.28 0.20 0.24 0.38 0.49 0.45 0.47 0.55 0.63 0.65 0.59 0.58 0.61 0.66 0.70 0.69 0.70 0.74 0.95 1.04 1.04 1.14 1.26 1.30 1.31 1.26 1.25 1.19 1.21 1.20 0.93 0.89 0.79 0.98 0.97 0.80 0.64
0.60 0.58 0.56 0.60 0.63 0.50 0.33 0.26 0.29 0.40 0.47 0.46 0.48 0.46 0.48 0.56 0.55 0.59 0.66 0.81 0.85 0.85 0.67 0.71 0.81 0.88 0.90 0.96 1.02 1.14 1.30 1.41 1.39 1.28 1.21 1.21 1.06 0.95 0.96 1.18 1.15 1.08 0.88
0.57 0.51 0.54 0.62 0.62 0.54 0.37 0.29 0.31 0.36 0.45 0.55 0.60 0.59 0.54 0.52 0.51 0.57 0.70 0.84 0.91 0.91 0.91 1.04 1.15 1.14 1.08 1.06 1.01 1.14 1.37 1.46 1.45 1.39 1.23 1.23 1.25 1.18 1.22 1.26 1.30 1.24 1.15

GEFSMA_prec_meanprecacc_240.txt.gz
Total_Precipitation_Accumulation
2.31 2.49 2.44 2.34 2.23 2.31 2.24 2.10 1.91 1.93 1.87 1.69 1.54 1.56 1.60 1.60 1.61 1.73 1.81 1.72 1.77 2.03 2.47 2.80 2.91 2.81 2.76 2.73 2.66 2.56 2.42 2.31 2.24 2.07 1.90 1.68 1.50 1.41 1.40 1.45 1.49 1.42 1.42
2.82 2.98 2.94 2.77 2.52 2.50 2.46 2.38 2.32 2.38 2.31 2.25 2.06 1.92 1.84 1.90 1.86 1.88 2.04 2.11 1.99 2.00 2.41 2.92 3.21 3.23 3.13 3.08 2.88 2.64 2.57 2.53 2.47 2.34 2.21 1.98 1.75 1.62 1.54 1.50 1.55 1.53 1.47
3.30 3.37 3.38 3.10 2.86 2.82 2.95 2.88 2.80 2.77 2.52 2.43 2.36 2.27 2.13 2.02 1.99 2.02 2.18 2.46 2.35 2.35 2.50 2.62 2.79 2.97 3.15 3.35 3.37 3.14 2.91 2.76 2.66 2.56 2.46 2.33 2.14 1.94 1.81 1.74 1.72 1.67 1.59
3.42 3.50 3.49 3.35 3.20 3.14 3.38 3.49 3.40 3.31 3.13 3.04 2.87 2.61 2.34 2.25 2.24 2.36 2.46 2.62 2.80 2.73 2.76 2.63 2.50 2.64 2.98 3.25 3.43 3.49 3.30 3.02 2.83 2.78 2.71 2.61 2.41 2.25 2.07 1.97 1.96 1.87 1.74
3.77 3.80 3.71 3.70 3.73 3.80 3.79 3.57 3.66 3.54 3.53 3.41 2.98 2.74 2.43 2.34 2.43 2.41 2.52 2.56 2.73 2.71 2.72 2.58 2.50 2.52 2.75 3.12 3.29 3.53 3.55 3.43 3.26 3.09 2.99 2.91 2.75 2.52 2.32 2.17 2.08 1.98 1.84
4.18 4.38 4.34 4.27 4.26 4.23 4.03 3.96 3.94 3.75 3.58 3.45 2.98 2.71 2.47 2.31 2.29 2.36 2.36 2.33 2.34 2.31 2.32 2.41 2.64 2.52 2.63 2.77 2.83 3.08 3.38 3.58 3.46 3.28 3.17 3.12 2.95 2.67 2.39 2.26 2.20 2.14 2.04
4.97 5.02 4.81 4.60 4.47 4.46 4.37 4.33 4.14 3.92 3.66 3.54 3.44 3.04 2.50 2.20 2.20 2.17 2.17 2.18 2.14 2.16 2.26 2.33 2.35 2.33 2.34 2.44 2.41 2.55 2.84 3.21 3.36 3.39 3.39 3.30 3.15 2.93 2.64 2.42 2.34 2.30 2.22
5.17 5.10 5.12 5.03 4.84 4.66 4.46 4.28 4.20 4.03 3.69 3.60 3.57 3.43 2.92 2.47 2.08 1.83 1.85 1.86 1.87 2.02 2.03 2.02 2.11 2.19 2.19 2.27 2.26 2.42 2.59 2.79 3.07 3.23 3.20 3.11 3.02 3.01 2.96 2.79 2.63 2.50 2.42
5.32 5.17 5.05 4.83 4.68 4.56 4.39 4.19 4.02 3.91 3.69 3.56 3.52 3.61 3.29 2.83 2.30 1.91 1.70 1.64 1.63 1.75 1.79 1.83 1.85 1.93 2.06 2.17 2.16 2.27 2.39 2.41 2.65 2.90 3.03 2.99 2.90 2.84 2.82 2.81 2.77 2.70 2.63
4.96 4.73 4.61 4.50 4.32 4.01 3.78 3.63 3.55 3.40 3.28 3.13 3.18 3.15 3.00 2.82 2.77 2.49 2.14 1.96 1.87 1.85 1.86 1.80 1.78 1.88 1.92 2.05 2.21 2.23 2.18 2.18 2.37 2.54 2.73 2.85 2.83 2.86 2.88 2.87 2.83 2.80 2.79
4.36 4.10 3.97 3.81 3.59 3.22 2.87 2.74 2.82 2.90 2.91 2.84 2.83 2.87 2.86 2.71 2.66 2.60 2.42 2.23 2.11 1.98 1.94 1.99 1.99 1.97 1.94 1.93 2.00 2.13 2.09 1.92 2.02 2.15 2.36 2.57 2.68 2.81 2.89 2.84 2.84 2.82 2.83
3.76 3.41 3.10 2.85 2.62 2.45 2.26 2.21 2.25 2.34 2.54 2.65 2.77 2.79 2.78 2.68 2.60 2.61 2.50 2.40 2.31 2.15 2.00 1.93 1.95 1.94 1.92 1.91 1.88 2.04 1.84 1.73 1.70 1.76 1.91 2.09 2.24 2.36 2.40 2.55 2.72 2.79 2.90
2.98 2.70 2.43 2.32 2.19 2.08 2.01 2.00 1.98 1.94 2.06 2.25 2.38 2.48 2.54 2.54 2.54 2.59 2.69 2.65 2.46 2.26 2.15 2.00 1.89 1.84 1.84 1.89 1.87 1.92 1.73 1.62 1.54 1.51 1.49 1.57 1.64 1.79 1.95 2.12 2.30 2.47 2.58
2.26 2.02 1.83 1.72 1.71 1.76 1.70 1.73 1.74 1.73 1.74 1.82 1.93 2.13 2.24 2.27 2.30 2.31 2.35 2.47 2.51 2.36 2.14 1.99 1.90 1.78 1.69 1.63 1.66 1.63 1.42 1.44 1.32 1.28 1.28 1.30 1.33 1.36 1.46 1.56 1.65 1.75 1.82
1.65 1.51 1.43 1.41 1.40 1.43 1.49 1.49 1.45 1.47 1.54 1.58 1.60 1.70 1.79 1.82 1.89 1.97 2.05 2.13 2.32 2.36 2.15 1.90 1.79 1.66 1.48 1.36 1.42 1.25 1.20 1.23 1.12 1.05 1.02 1.04 1.05 1.08 1.12 1.19 1.28 1.34 1.36
1.33 1.33 1.26 1.20 1.14 1.13 1.15 1.19 1.22 1.25 1.29 1.35 1.39 1.40 1.45 1.47 1.56 1.66 1.80 1.91 1.98 2.05 2.02 1.73 1.52 1.39 1.30 1.15 1.21 1.07 1.09 1.11 0.97 0.96 0.92 0.91 0.95 1.00 1.01 1.05 1.08 1.15 1.18
1.10 1.07 0.97 0.91 0.88 0.91 0.97 1.02 1.06 1.11 1.15 1.18 1.25 1.27 1.30 1.29 1.36 1.40 1.43 1.50 1.64 1.74 1.78 1.59 1.40 1.32 1.26 1.16 1.11 1.10 1.07 1.00 0.92 0.94 0.89 0.88 0.88 0.89 0.90 0.90 0.91 0.96 1.05
0.93 0.87 0.76 0.73 0.72 0.76 0.82 0.85 0.88 0.92 1.01 1.02 1.03 1.06 1.08 1.09 1.14 1.17 1.22 1.25 1.34 1.47 1.55 1.56 1.46 1.37 1.29 1.19 1.14 1.16 0.97 0.81 0.80 0.85 0.78 0.73 0.72 0.71 0.73 0.74 0.75 0.76 0.78
0.86 0.78 0.69 0.67 0.66 0.67 0.68 0.71 0.75 0.74 0.79 0.86 0.88 0.93 0.94 0.96 0.94 0.91 0.97 1.05 1.13 1.22 1.39 1.41 1.34 1.26 1.15 1.08 1.16 1.07 0.99 1.05 0.79 0.75 0.69 0.63 0.61 0.59 0.58 0.58 0.59 0.60 0.61
0.72 0.68 0.65 0.61 0.60 0.60 0.62 0.62 0.59 0.64 0.70 0.75 0.77 0.81 0.82 0.84 0.85 0.85 0.86 1.00 1.07 1.20 1.28 1.29 1.26 1.20 1.12 1.05 1.16 1.16 1.13 1.09 0.91 0.68 0.66 0.58 0.57 0.54 0.53 0.53 0.52 0.51 0.50
0.63 0.59 0.57 0.54 0.50 0.46 0.44 0.44 0.46 0.52 0.61 0.63 0.67 0.68 0.69 0.75 0.84 0.82 0.80 0.89 0.99 1.14 1.17 1.18 1.19 1.16 1.10 1.11 1.13 1.08 1.12 1.10 0.99 0.83 0.84 0.70 0.67 0.69 0.69 0.64 0.58 0.56 0.50
0.59 0.54 0.52 0.49 0.45 0.35 0.36 0.36 0.37 0.45 0.56 0.60 0.60 0.59 0.56 0.57 0.64 0.71 0.73 0.80 0.91 1.00 1.07 1.12 1.13 1.12 1.09 1.15 1.20 1.15 1.18 1.21 1.17 0.92 0.94 0.87 0.78 0.85 0.82 0.75 0.66 0.55 0.48
0.61 0.55 0.51 0.50 0.52 0.44 0.29 0.25 0.28 0.40 0.55 0.56 0.57 0.61 0.55 0.52 0.60 0.64 0.66 0.66 0.72 0.75 0.84 1.02 1.13 1.18 1.22 1.31 1.37 1.33 1.31 1.30 1.29 1.05 1.07 1.02 0.90 0.97 0.80 0.69 0.71 0.59 0.50
0.59 0.56 0.53 0.56 0.60 0.46 0.30 0.21 0.25 0.39 0.49 0.46 0.48 0.56 0.64 0.67 0.62 0.61 0.63 0.68 0.72 0.73 0.75 0.82 1.04 1.12 1.11 1.19 1.29 1.34 1.34 1.29 1.28 1.24 1.25 1.22 0.95 0.91 0.82 1.00 0.99 0.81 0.64
0.61 0.59 0.57 0.62 0.65 0.51 0.34 0.26 0.29 0.40 0.48 0.47 0.49 0.48 0.50 0.57 0.56 0.61 0.68 0.82 0.86 0.87 0.70 0.74 0.86 0.94 0.97 1.02 1.07 1.18 1.33 1.44 1.42 1.33 1.27 1.25 1.09 0.97 0.98 1.19 1.16 1.09 0.89
0.57 0.52 0.55 0.63 0.62 0.54 0.37 0.29 0.31 0.36 0.46 0.55 0.61 0.60 0.56 0.53 0.52 0.58 0.71 0.85 0.91 0.92 0.93 1.06 1.17 1.17 1.12 1.11 1.07 1.20 1.41 1.49 1.47 1.43 1.30 1.29 1.29 1.21 1.25 1.29 1.33 1.26 1.17

GEFSMA_prec_meanprecacc_246.txt.gz
Total_Precipitation_Accumulation
2.34 2.54 2.48 2.37 2.26 2.33 2.26 2.12 1.93 1.96 1.90 1.72 1.56 1.58 1.63 1.63 1.63 1.76 1.85 1.77 1.83 2.09 2.54 2.88 2.99 2.89 2.84 2.82 2.76 2.65 2.52 2.41 2.35 2.18 2.02 1.86 1.74 1.64 1.58 1.59 1.60 1.51 1.49
2.83 3.00 2.95 2.78 2.54 2.53 2.49 2.41 2.34 2.42 2.34 2.27 2.08 1.94 1.85 1.91 1.87 1.90 2.08 2.17 2.04 2.05 2.47 2.99 3.29 3.31 3.22 3.18 2.97 2.73 2.66 2.62 2.56 2.42 2.28 2.05 1.87 1.81 1.74 1.66 1.65 1.61 1.54
3.32 3.39 3.39 3.11 2.87 2.85 3.01 2.96 2.85 2.81 2.55 2.46 2.38 2.29 2.14 2.03 2.00 2.03 2.21 2.49 2.39 2.41 2.58 2.70 2.87 3.05 3.23 3.44 3.47 3.23 2.99 2.84 2.75 2.65 2.54 2.40 2.19 2.00 1.90 1.84 1.80 1.73 1.65
3.44 3.52 3.51 3.36 3.22 3.16 3.42 3.57 3.48 3.37 3.18 3.08 2.91 2.66 2.37 2.27 2.26 2.37 2.48 2.64 2.84 2.78 2.83 2.70 2.57 2.70 3.05 3.32 3.50 3.56 3.38 3.09 2.91 2.86 2.79 2.68 2.47 2.30 2.12 2.02 2.02 1.93 1.78
3.83 3.85 3.75 3.72 3.75 3.81 3.81 3.61 3.73 3.60 3.59 3.47 3.04 2.80 2.46 2.35 2.44 2.42 2.53 2.58 2.75 2.76 2.77 2.63 2.57 2.59 2.82 3.21 3.38 3.60 3.63 3.52 3.33 3.15 3.06 2.98 2.82 2.59 2.37 2.22 2.11 2.02 1.88
4.23 4.43 4.40 4.30 4.29 4.25 4.04 3.99 4.00 3.81 3.64 3.50 3.05 2.77 2.50 2.33 2.31 2.37 2.37 2.35 2.35 2.36 2.36 2.44 2.70 2.59 2.70 2.85 2.93 3.17 3.48 3.68 3.55 3.35 3.24 3.19 3.02 2.73 2.44 2.31 2.24 2.18 2.09
5.00 5.05 4.84 4.63 4.49 4.48 4.39 4.36 4.18 3.97 3.71 3.59 3.51 3.10 2.54 2.24 2.22 2.18 2.19 2.19 2.16 2.20 2.29 2.36 2.38 2.38 2.39 2.50 2.49 2.65 2.94 3.32 3.47 3.47 3.47 3.37 3.22 3.01 2.70 2.47 2.39 2.35 2.28
5.19 5.11 5.14 5.05 4.86 4.68 4.50 4.32 4.24 4.06 3.72 3.64 3.62 3.47 2.95 2.51 2.10 1.84 1.86 1.87 1.89 2.04 2.07 2.05 2.14 2.22 2.23 2.32 2.30 2.48 2.66 2.88 3.16 3.33 3.29 3.19 3.09 3.08 3.03 2.87 2.70 2.56 2.48
5.34 5.19 5.07 4.84 4.69 4.58 4.42 4.22 4.05 3.94 3.72 3.59 3.55 3.64 3.31 2.84 2.32 1.93 1.71 1.65 1.65 1.77 1.82 1.86 1.88 1.95 2.08 2.21 2.20 2.32 2.45 2.47 2.72 3.01 3.14 3.07 2.98 2.91 2.89 2.88 2.84 2.78 2.71
4.97 4.74 4.62 4.51 4.33 4.02 3.79 3.65 3.57 3.43 3.30 3.15 3.20 3.17 3.02 2.83 2.78 2.50 2.16 1.97 1.88 1.87 1.88 1.82 1.80 1.89 1.93 2.07 2.23 2.25 2.21 2.22 2.42 2.63 2.84 2.96 2.92 2.95 2.96 2.94 2.89 2.88 2.87
4.37 4.11 3.98 3.82 3.59 3.23 2.88 2.76 2.83 2.92 2.93 2.86 2.85 2.89 2.88 2.72 2.66 2.61 2.44 2.25 2.13 2.00 1.96 2.01 2.00 1.98 1.95 1.94 2.00 2.14 2.10 1.94 2.05 2.20 2.44 2.67 2.79 2.93 3.00 2.93 2.92 2.88 2.91
3.77 3.43 3.12 2.86 2.63 2.46 2.27 2.23 2.27 2.36 2.56 2.67 2.80 2.81 2.80 2.69 2.61 2.62 2.51 2.42 2.33 2.17 2.02 1.95 1.97 1.95 1.92 1.92 1.88 2.05 1.84 1.74 1.72 1.79 1.96 2.16 2.37 2.51 2.52 2.65 2.81 2.88 2.97
2.99 2.72 2.44 2.34 2.21 2.09 2.02 2.01 2.00 1.97 2.09 2.28 2.41 2.50 2.56 2.56 2.55 2.60 2.70 2.66 2.47 2.27 2.17 2.03 1.92 1.86 1.85 1.89 1.87 1.92 1.74 1.64 1.55 1.53 1.52 1.62 1.74 1.91 2.05 2.21 2.39 2.56 2.67
2.28 2.04 1.84 1.73 1.72 1.78 1.72 1.75 1.76 1.76 1.78 1.86 1.96 2.15 2.27 2.29 2.32 2.32 2.37 2.48 2.53 2.37 2.15 2.01 1.93 1.81 1.71 1.64 1.66 1.64 1.44 1.46 1.34 1.30 1.31 1.34 1.39 1.45 1.56 1.64 1.73 1.83 1.90
1.67 1.54 1.45 1.43 1.41 1.45 1.52 1.52 1.47 1.50 1.58 1.62 1.63 1.74 1.83 1.86 1.92 2.00 2.08 2.16 2.34 2.38 2.17 1.91 1.82 1.69 1.51 1.37 1.44 1.27 1.22 1.25 1.15 1.08 1.05 1.07 1.10 1.16 1.22 1.26 1.35 1.40 1.41
1.35 1.35 1.27 1.21 1.15 1.15 1.17 1.22 1.25 1.28 1.32 1.39 1.42 1.43 1.48 1.50 1.59 1.69 1.82 1.93 2.01 2.10 2.05 1.76 1.55 1.43 1.33 1.18 1.24 1.10 1.11 1.14 1.00 0.99 0.96 0.97 1.01 1.08 1.10 1.14 1.15 1.20 1.22
1.11 1.08 0.98 0.92 0.88 0.92 0.98 1.06 1.10 1.15 1.19 1.22 1.27 1.29 1.32 1.31 1.38 1.43 1.46 1.52 1.67 1.77 1.80 1.61 1.44 1.37 1.30 1.19 1.15 1.13 1.10 1.03 0.95 0.98 0.94 0.95 0.98 0.99 0.98 0.99 0.98 1.01 1.09
0.95 0.88 0.77 0.73 0.73 0.77 0.83 0.88 0.93 0.97 1.07 1.09 1.08 1.09 1.10 1.11 1.16 1.18 1.23 1.26 1.35 1.48 1.57 1.58 1.49 1.43 1.35 1.22 1.17 1.19 1.01 0.84 0.83 0.88 0.83 0.80 0.82 0.83 0.84 0.84 0.82 0.80 0.83
0.87 0.80 0.70 0.68 0.67 0.67 0.69 0.73 0.78 0.77 0.82 0.89 0.93 0.98 1.00 1.01 0.98 0.93 0.99 1.07 1.14 1.24 1.41 1.44 1.39 1.32 1.23 1.13 1.21 1.12 1.03 1.08 0.82 0.78 0.73 0.68 0.69 0.67 0.67 0.67 0.68 0.66 0.64
0.76 0.71 0.67 0.63 0.62 0.61 0.63 0.64 0.62 0.66 0.72 0.77 0.79 0.83 0.86 0.90 0.91 0.90 0.91 1.03 1.09 1.22 1.32 1.34 1.33 1.28 1.18 1.10 1.20 1.21 1.18 1.13 0.95 0.71 0.70 0.63 0.65 0.62 0.60 0.60 0.59 0.56 0.54
0.69 0.65 0.60 0.57 0.52 0.48 0.45 0.46 0.47 0.53 0.62 0.64 0.69 0.69 0.70 0.77 0.86 0.85 0.83 0.92 1.02 1.17 1.19 1.21 1.25 1.25 1.17 1.17 1.18 1.14 1.16 1.14 1.03 0.87 0.88 0.75 0.73 0.76 0.77 0.71 0.65 0.60 0.53
0.64 0.60 0.56 0.52 0.47 0.36 0.38 0.37 0.38 0.46 0.57 0.62 0.61 0.60 0.57 0.58 0.65 0.73 0.75 0.83 0.94 1.03 1.09 1.15 1.16 1.17 1.15 1.21 1.25 1.21 1.22 1.25 1.22 0.97 0.99 0.93 0.83 0.91 0.87 0.80 0.72 0.60 0.52
0.67 0.59 0.54 0.53 0.54 0.46 0.30 0.26 0.29 0.40 0.56 0.57 0.57 0.62 0.56 0.53 0.61 0.65 0.68 0.69 0.74 0.77 0.87 1.04 1.16 1.21 1.27 1.37 1.43 1.39 1.35 1.33 1.32 1.09 1.10 1.07 0.95 1.03 0.86 0.74 0.77 0.64 0.54
0.64 0.62 0.57 0.59 0.63 0.48 0.31 0.21 0.25 0.40 0.51 0.47 0.49 0.57 0.65 0.68 0.63 0.62 0.65 0.70 0.75 0.76 0.78 0.84 1.06 1.14 1.15 1.26 1.35 1.39 1.39 1.33 1.31 1.26 1.28 1.26 0.99 0.97 0.88 1.05 1.04 0.86 0.69
0.62 0.61 0.60 0.64 0.67 0.52 0.35 0.26 0.29 0.41 0.48 0.48 0.49 0.48 0.51 0.58 0.57 0.62 0.69 0.83 0.89 0.91 0.73 0.77 0.88 0.95 0.98 1.05 1.11 1.23 1.39 1.48 1.46 1.37 1.30 1.29 1.14 1.02 1.03 1.24 1.21 1.13 0.93
0.58 0.52 0.56 0.64 0.63 0.55 0.37 0.29 0.31 0.36 0.46 0.55 0.61 0.61 0.56 0.54 0.53 0.59 0.72 0.86 0.93 0.95 0.96 1.08 1.19 1.18 1.13 1.14 1.10 1.24 1.46 1.54 1.52 1.47 1.34 1.34 1.35 1.26 1.30 1.34 1.37 1.29 1.20

GEFSMA_prec_meanprecacc_252.txt.gz
Total_Precipitation_Accumulation
2.37 2.57 2.51 2.40 2.29 2.37 2.31 2.17 1.99 2.02 1.95 1.77 1.62 1.64 1.71 1.74 1.76 1.87 1.92 1.83 1.88 2.15 2.62 2.96 3.06 2.96 2.91 2.90 2.84 2.72 2.58 2.48 2.42 2.27 2.13 1.98 1.87 1.76 1.68 1.68 1.70 1.60 1.57
2.87 3.03 2.99 2.81 2.57 2.57 2.55 2.46 2.38 2.47 2.40 2.33 2.14 2.00 1.90 1.98 1.95 1.99 2.16 2.24 2.10 2.10 2.55 3.08 3.39 3.40 3.31 3.27 3.06 2.81 2.73 2.68 2.64 2.52 2.40 2.17 1.99 1.96 1.88 1.81 1.79 1.72 1.63
3.39 3.47 3.46 3.16 2.91 2.89 3.05 3.02 2.91 2.87 2.61 2.51 2.42 2.32 2.18 2.07 2.06 2.11 2.29 2.56 2.46 2.47 2.65 2.79 2.98 3.15 3.32 3.52 3.55 3.32 3.07 2.90 2.82 2.73 2.63 2.49 2.29 2.11 2.03 1.97 1.95 1.88 1.77
3.50 3.59 3.60 3.44 3.29 3.21 3.47 3.62 3.52 3.43 3.25 3.13 2.94 2.68 2.40 2.32 2.31 2.44 2.54 2.70 2.90 2.84 2.88 2.76 2.66 2.81 3.14 3.41 3.59 3.65 3.47 3.17 2.97 2.92 2.86 2.76 2.54 2.38 2.23 2.13 2.11 2.03 1.89
3.87 3.91 3.82 3.80 3.81 3.87 3.85 3.65 3.76 3.63 3.65 3.54 3.09 2.85 2.50 2.40 2.50 2.48 2.59 2.64 2.82 2.82 2.82 2.68 2.63 2.67 2.93 3.32 3.47 3.69 3.72 3.60 3.39 3.21 3.11 3.03 2.87 2.65 2.45 2.32 2.21 2.09 1.95
4.27 4.49 4.45 4.37 4.34 4.30 4.08 4.02 4.03 3.85 3.70 3.56 3.11 2.83 2.56 2.39 2.37 2.43 2.41 2.39 2.40 2.40 2.40 2.48 2.75 2.64 2.76 2.96 3.04 3.26 3.56 3.75 3.62 3.42 3.28 3.23 3.06 2.78 2.50 2.37 2.30 2.23 2.14
5.03 5.09 4.89 4.68 4.54 4.52 4.43 4.40 4.22 4.01 3.75 3.65 3.57 3.15 2.60 2.30 2.28 2.24 2.23 2.23 2.20 2.25 2.33 2.39 2.43 2.43 2.44 2.56 2.58 2.75 3.04 3.41 3.55 3.55 3.53 3.41 3.26 3.05 2.75 2.52 2.43 2.39 2.33
5.21 5.14 5.17 5.09 4.90 4.72 4.54 4.37 4.28 4.10 3.75 3.67 3.67 3.52 3.00 2.55 2.14 1.87 1.89 1.91 1.93 2.11 2.12 2.08 2.17 2.25 2.26 2.36 2.34 2.54 2.75 2.97 3.25 3.40 3.36 3.26 3.15 3.13 3.08 2.91 2.74 2.61 2.53
5.36 5.20 5.09 4.88 4.73 4.62 4.46 4.27 4.09 3.97 3.75 3.62 3.58 3.69 3.36 2.88 2.35 1.96 1.74 1.68 1.68 1.81 1.88 1.91 1.91 1.99 2.11 2.24 2.23 2.34 2.48 2.54 2.81 3.08 3.21 3.14 3.05 2.97 2.95 2.94 2.90 2.83 2.75
4.99 4.77 4.65 4.55 4.37 4.05 3.83 3.68 3.60 3.46 3.34 3.19 3.23 3.20 3.06 2.87 2.82 2.54 2.19 2.00 1.91 1.90 1.92 1.86 1.83 1.93 1.95 2.09 2.26 2.27 2.22 2.24 2.47 2.69 2.90 3.02 2.98 3.01 3.01 3.00 2.97 2.94 2.93
4.40 4.13 4.00 3.85 3.62 3.26 2.92 2.80 2.88 2.95 2.96 2.89 2.89 2.93 2.92 2.77 2.70 2.64 2.47 2.27 2.15 2.03 1.98 2.03 2.03 2.01 1.97 1.96 2.03 2.16 2.10 1.95 2.07 2.23 2.49 2.72 2.85 3.00 3.06 2.99 2.99 2.96 2.99
3.80 3.46 3.14 2.88 2.66 2.49 2.31 2.28 2.32 2.41 2.60 2.71 2.84 2.86 2.85 2.74 2.65 2.64 2.54 2.44 2.36 2.19 2.04 1.97 1.99 1.98 1.94 1.93 1.90 2.05 1.85 1.74 1.73 1.81 1.99 2.20 2.41 2.58 2.60 2.72 2.88 2.96 3.06
3.01 2.73 2.46 2.36 2.23 2.11 2.05 2.05 2.05 2.02 2.12 2.32 2.46 2.55 2.62 2.61 2.59 2.63 2.72 2.68 2.48 2.29 2.18 2.05 1.94 1.89 1.87 1.90 1.89 1.93 1.75 1.64 1.56 1.55 1.56 1.65 1.76 1.95 2.11 2.28 2.46 2.64 2.76
2.30 2.06 1.86 1.75 1.74 1.79 1.73 1.78 1.79 1.80 1.81 1.89 2.00 2.21 2.32 2.33 2.36 2.36 2.40 2.50 2.54 2.38 2.16 2.02 1.94 1.83 1.73 1.66 1.67 1.65 1.45 1.46 1.34 1.31 1.32 1.37 1.42 1.48 1.60 1.69 1.79 1.90 1.97
1.70 1.56 1.47 1.45 1.43 1.46 1.53 1.54 1.50 1.53 1.62 1.65 1.68 1.81 1.88 1.90 1.96 2.03 2.11 2.19 2.38 2.41 2.19 1.93 1.84 1.71 1.54 1.41 1.46 1.29 1.24 1.27 1.15 1.08 1.05 1.09 1.12 1.18 1.25 1.31 1.40 1.44 1.47
1.37 1.37 1.30 1.24 1.17 1.17 1.19 1.24 1.28 1.31 1.36 1.44 1.48 1.49 1.53 1.54 1.62 1.73 1.87 1.98 2.05 2.14 2.09 1.78 1.57 1.45 1.37 1.21 1.26 1.12 1.14 1.16 1.01 1.00 0.97 0.98 1.03 1.10 1.13 1.17 1.19 1.25 1.28
1.14 1.10 1.00 0.94 0.91 0.94 1.00 1.08 1.14 1.19 1.24 1.27 1.32 1.34 1.36 1.36 1.42 1.47 1.50 1.58 1.72 1.82 1.84 1.64 1.46 1.39 1.33 1.22 1.18 1.16 1.13 1.06 0.97 0.99 0.95 0.96 0.99 1.01 1.01 1.02 1.01 1.05 1.15
0.98 0.91 0.80 0.76 0.75 0.79 0.85 0.90 0.95 0.99 1.10 1.12 1.11 1.13 1.14 1.16 1.21 1.23 1.28 1.30 1.40 1.54 1.62 1.62 1.53 1.47 1.38 1.26 1.21 1.24 1.05 0.88 0.86 0.90 0.84 0.81 0.84 0.85 0.87 0.88 0.86 0.84 0.87
0.91 0.84 0.74 0.71 0.69 0.69 0.71 0.75 0.80 0.79 0.84 0.92 0.95 1.01 1.04 1.07 1.05 0.99 1.04 1.12 1.20 1.28 1.46 1.49 1.44 1.37 1.28 1.18 1.25 1.16 1.07 1.12 0.85 0.79 0.74 0.70 0.71 0.69 0.71 0.72 0.73 0.71 0.69
0.82 0.77 0.72 0.67 0.66 0.64 0.66 0.67 0.64 0.69 0.74 0.79 0.81 0.85 0.88 0.93 0.95 0.97 0.99 1.11 1.18 1.30 1.38 1.39 1.38 1.35 1.26 1.17 1.26 1.28 1.23 1.18 0.99 0.75 0.73 0.65 0.67 0.66 0.65 0.65 0.64 0.62 0.60
0.77 0.70 0.65 0.62 0.57 0.53 0.50 0.52 0.52 0.57 0.65 0.66 0.71 0.71 0.71 0.78 0.87 0.87 0.87 0.97 1.10 1.26 1.28 1.29 1.30 1.32 1.25 1.25 1.26 1.23 1.23 1.20 1.08 0.92 0.93 0.79 0.78 0.82 0.83 0.77 0.69 0.66 0.59
0.69 0.64 0.60 0.57 0.52 0.42 0.44 0.44 0.44 0.51 0.61 0.65 0.64 0.62 0.59 0.60 0.67 0.74 0.77 0.84 0.97 1.07 1.16 1.23 1.25 1.25 1.24 1.30 1.34 1.34 1.32 1.32 1.29 1.04 1.04 0.98 0.89 0.98 0.94 0.86 0.77 0.65 0.58
0.69 0.62 0.58 0.57 0.60 0.53 0.38 0.32 0.35 0.45 0.60 0.61 0.61 0.64 0.58 0.55 0.63 0.67 0.70 0.71 0.75 0.78 0.89 1.08 1.22 1.29 1.36 1.47 1.54 1.50 1.44 1.41 1.41 1.17 1.17 1.14 1.03 1.11 0.92 0.80 0.82 0.70 0.61
0.67 0.64 0.61 0.65 0.70 0.56 0.38 0.27 0.31 0.45 0.55 0.50 0.51 0.59 0.66 0.69 0.65 0.64 0.67 0.71 0.76 0.77 0.80 0.87 1.09 1.18 1.20 1.34 1.48 1.50 1.47 1.40 1.39 1.35 1.36 1.34 1.07 1.04 0.95 1.13 1.11 0.92 0.75
0.64 0.62 0.63 0.71 0.73 0.59 0.42 0.32 0.35 0.46 0.53 0.50 0.51 0.50 0.52 0.59 0.58 0.63 0.70 0.85 0.90 0.92 0.74 0.78 0.90 0.97 1.01 1.10 1.21 1.35 1.49 1.57 1.55 1.46 1.39 1.37 1.20 1.10 1.13 1.35 1.30 1.21 0.98
0.60 0.54 0.59 0.68 0.67 0.59 0.41 0.32 0.33 0.38 0.47 0.57 0.63 0.63 0.58 0.55 0.53 0.59 0.73 0.87 0.95 0.97 0.98 1.09 1.21 1.20 1.16 1.18 1.17 1.33 1.57 1.64 1.61 1.57 1.42 1.40 1.41 1.33 1.39 1.45 1.47 1.36 1.26

GEFSMA_prec_meanprecacc_258.txt.gz
Total_Precipitation_Accumulation
2.42 2.62 2.58 2.47 2.36 2.43 2.36 2.22 2.04 2.07 2.01 1.83 1.67 1.68 1.75 1.79 1.84 1.99 2.05 1.94 1.95 2.21 2.67 3.00 3.10 3.00 2.95 2.93 2.87 2.74 2.61 2.52 2.48 2.34 2.20 2.05 1.94 1.82 1.75 1.77 1.79 1.67 1.64
2.93 3.09 3.05 2.87 2.63 2.64 2.61 2.51 2.43 2.52 2.46 2.39 2.20 2.06 1.96 2.05 2.03 2.08 2.26 2.35 2.18 2.17 2.60 3.13 3.43 3.45 3.36 3.31 3.09 2.84 2.76 2.72 2.69 2.57 2.46 2.24 2.06 2.03 1.95 1.89 1.89 1.80 1.69
3.46 3.53 3.52 3.23 2.97 2.94 3.11 3.08 2.97 2.94 2.69 2.59 2.49 2.38 2.24 2.14 2.14 2.20 2.38 2.68 2.58 2.59 2.73 2.84 3.02 3.19 3.36 3.57 3.59 3.36 3.10 2.94 2.86 2.77 2.68 2.56 2.36 2.19 2.10 2.04 2.04 1.98 1.84
3.58 3.67 3.66 3.51 3.35 3.26 3.51 3.67 3.57 3.47 3.30 3.20 3.01 2.74 2.45 2.38 2.39 2.52 2.63 2.80 3.01 2.95 3.00 2.85 2.72 2.86 3.20 3.46 3.64 3.69 3.51 3.22 3.02 2.97 2.91 2.81 2.62 2.46 2.30 2.20 2.19 2.12 1.98
3.94 3.99 3.89 3.88 3.89 3.93 3.90 3.68 3.80 3.67 3.70 3.59 3.14 2.90 2.54 2.45 2.57 2.56 2.67 2.72 2.89 2.89 2.89 2.75 2.71 2.73 2.99 3.38 3.52 3.75 3.77 3.64 3.44 3.26 3.17 3.10 2.94 2.71 2.51 2.39 2.28 2.19 2.06
4.34 4.57 4.53 4.45 4.43 4.38 4.15 4.08 4.09 3.90 3.74 3.60 3.13 2.86 2.59 2.42 2.41 2.48 2.48 2.46 2.46 2.44 2.44 2.53 2.83 2.71 2.81 3.01 3.10 3.32 3.62 3.80 3.67 3.46 3.34 3.29 3.13 2.84 2.55 2.43 2.37 2.29 2.22
5.09 5.16 4.96 4.76 4.63 4.61 4.51 4.46 4.28 4.07 3.81 3.70 3.60 3.19 2.64 2.33 2.31 2.27 2.26 2.27 2.24 2.27 2.36 2.42 2.46 2.46 2.47 2.60 2.63 2.81 3.11 3.48 3.60 3.59 3.57 3.45 3.31 3.11 2.81 2.56 2.49 2.44 2.36
5.25 5.19 5.24 5.15 4.98 4.81 4.63 4.44 4.34 4.15 3.81 3.73 3.72 3.57 3.05 2.60 2.18 1.90 1.91 1.93 1.96 2.14 2.15 2.10 2.19 2.27 2.28 2.39 2.38 2.59 2.81 3.05 3.32 3.46 3.40 3.30 3.20 3.17 3.12 2.96 2.78 2.66 2.57
5.39 5.24 5.13 4.93 4.81 4.69 4.53 4.33 4.15 4.03 3.82 3.68 3.64 3.74 3.41 2.92 2.39 2.00 1.76 1.70 1.71 1.85 1.90 1.93 1.93 2.02 2.13 2.26 2.26 2.37 2.52 2.59 2.89 3.17 3.27 3.18 3.09 3.02 2.99 2.98 2.94 2.88 2.81
5.03 4.80 4.68 4.60 4.44 4.12 3.90 3.74 3.67 3.53 3.41 3.25 3.29 3.26 3.10 2.91 2.85 2.58 2.23 2.03 1.94 1.93 1.95 1.89 1.86 1.96 1.99 2.13 2.29 2.30 2.25 2.27 2.51 2.77 3.00 3.09 3.02 3.05 3.06 3.04 3.01 2.98 2.97
4.44 4.17 4.04 3.89 3.68 3.33 2.98 2.85 2.94 3.02 3.03 2.94 2.94 2.99 2.98 2.82 2.74 2.69 2.53 2.33 2.20 2.06 2.01 2.06 2.06 2.04 2.00 1.99 2.07 2.18 2.12 1.97 2.08 2.26 2.55 2.81 2.92 3.04 3.10 3.03 3.04 3.01 3.03
3.84 3.49 3.18 2.93 2.71 2.55 2.37 2.33 2.38 2.46 2.66 2.77 2.89 2.91 2.91 2.80 2.70 2.69 2.59 2.50 2.42 2.24 2.08 2.00 2.02 2.01 1.97 1.96 1.91 2.07 1.86 1.75 1.74 1.82 2.00 2.25 2.49 2.63 2.63 2.75 2.92 3.01 3.11
3.05 2.77 2.49 2.40 2.27 2.16 2.09 2.09 2.10 2.07 2.18 2.38 2.51 2.60 2.67 2.66 2.64 2.68 2.77 2.73 2.54 2.34 2.23 2.08 1.96 1.91 1.88 1.92 1.90 1.94 1.75 1.65 1.56 1.55 1.56 1.66 1.80 2.00 2.14 2.31 2.49 2.67 2.80
2.35 2.11 1.90 1.78 1.76 1.82 1.76 1.82 1.84 1.86 1.87 1.95 2.05 2.27 2.39 2.39 2.39 2.39 2.44 2.55 2.60 2.44 2.21 2.06 1.97 1.85 1.75 1.67 1.68 1.65 1.46 1.47 1.35 1.31 1.32 1.38 1.43 1.50 1.63 1.72 1.81 1.92 2.00
1.73 1.60 1.51 1.48 1.46 1.50 1.57 1.58 1.55 1.58 1.67 1.70 1.73 1.86 1.95 1.97 2.01 2.07 2.16 2.25 2.44 2.47 2.24 1.97 1.86 1.73 1.55 1.42 1.47 1.30 1.26 1.28 1.16 1.09 1.06 1.09 1.12 1.20 1.27 1.32 1.42 1.46 1.48
1.41 1.41 1.33 1.27 1.21 1.21 1.24 1.30 1.32 1.36 1.41 1.49 1.52 1.54 1.59 1.59 1.67 1.78 1.92 2.04 2.12 2.21 2.15 1.83 1.59 1.47 1.38 1.22 1.28 1.13 1.15 1.17 1.02 1.00 0.97 0.98 1.03 1.11 1.14 1.18 1.20 1.27 1.30
1.18 1.14 1.04 0.98 0.95 0.99 1.06 1.14 1.18 1.24 1.29 1.33 1.38 1.39 1.41 1.40 1.47 1.53 1.56 1.64 1.81 1.92 1.94 1.69 1.50 1.42 1.37 1.26 1.21 1.19 1.15 1.09 0.99 1.00 0.95 0.96 1.00 1.01 1.02 1.04 1.03 1.07 1.17
1.03 0.97 0.85 0.81 0.80 0.84 0.90 0.96 0.99 1.03 1.14 1.16 1.15 1.17 1.17 1.20 1.26 1.29 1.34 1.39 1.49 1.63 1.71 1.70 1.58 1.51 1.42 1.31 1.27 1.28 1.07 0.90 0.88 0.91 0.84 0.81 0.84 0.85 0.88 0.89 0.89 0.86 0.89
0.98 0.91 0.80 0.77 0.76 0.75 0.76 0.81 0.85 0.83 0.87 0.94 0.98 1.04 1.06 1.10 1.11 1.05 1.10 1.20 1.27 1.35 1.54 1.57 1.49 1.43 1.33 1.22 1.31 1.22 1.11 1.16 0.87 0.81 0.75 0.70 0.71 0.70 0.71 0.73 0.75 0.74 0.71
0.91 0.84 0.79 0.73 0.71 0.69 0.71 0.72 0.70 0.74 0.78 0.84 0.85 0.89 0.92 0.96 1.00 1.02 1.04 1.18 1.24 1.36 1.45 1.47 1.44 1.41 1.33 1.24 1.33 1.34 1.29 1.24 1.02 0.76 0.74 0.66 0.68 0.67 0.67 0.67 0.66 0.64 0.62
0.91 0.85 0.76 0.69 0.62 0.57 0.54 0.57 0.58 0.62 0.70 0.71 0.75 0.75 0.75 0.80 0.89 0.89 0.89 1.01 1.15 1.32 1.34 1.36 1.36 1.38 1.32 1.34 1.33 1.28 1.28 1.27 1.14 0.96 0.97 0.82 0.80 0.85 0.85 0.79 0.71 0.67 0.60
0.78 0.75 0.70 0.64 0.58 0.47 0.48 0.49 0.48 0.56 0.66 0.70 0.69 0.66 0.62 0.62 0.68 0.75 0.78 0.85 0.99 1.11 1.20 1.29 1.30 1.32 1.33 1.42 1.44 1.41 1.39 1.39 1.36 1.10 1.09 1.03 0.94 1.04 0.98 0.88 0.78 0.66 0.59
0.76 0.69 0.64 0.62 0.64 0.57 0.42 0.37 0.40 0.50 0.65 0.66 0.65 0.69 0.62 0.57 0.64 0.68 0.71 0.72 0.77 0.81 0.93 1.12 1.27 1.35 1.45 1.57 1.64 1.59 1.52 1.48 1.49 1.25 1.24 1.20 1.09 1.17 0.96 0.82 0.84 0.72 0.62
0.74 0.71 0.66 0.69 0.72 0.58 0.41 0.31 0.35 0.49 0.60 0.55 0.56 0.65 0.72 0.75 0.68 0.66 0.68 0.73 0.78 0.79 0.82 0.89 1.13 1.22 1.24 1.40 1.56 1.59 1.55 1.48 1.47 1.44 1.45 1.41 1.13 1.09 0.98 1.15 1.12 0.93 0.77
0.70 0.68 0.68 0.74 0.76 0.61 0.44 0.35 0.38 0.50 0.57 0.55 0.56 0.55 0.57 0.64 0.63 0.66 0.73 0.88 0.93 0.94 0.76 0.80 0.92 1.00 1.05 1.18 1.29 1.41 1.56 1.66 1.64 1.54 1.49 1.46 1.27 1.15 1.16 1.38 1.32 1.23 1.01
0.65 0.58 0.63 0.72 0.70 0.62 0.45 0.35 0.35 0.40 0.50 0.61 0.67 0.66 0.61 0.58 0.56 0.61 0.75 0.90 0.98 1.00 1.01 1.13 1.25 1.26 1.25 1.30 1.24 1.37 1.63 1.73 1.71 1.67 1.53 1.50 1.48 1.38 1.44 1.51 1.51 1.41 1.31

GEFSMA_prec_meanprecacc_264.txt.gz
Total_Precipitation_Accumulation
2.44 2.64 2.59 2.49 2.38 2.45 2.38 2.25 2.06 2.10 2.04 1.85 1.69 1.70 1.79 1.85 1.92 2.08 2.14 2.07 2.07 2.31 2.78 3.11 3.18 3.06 3.00 2.98 2.91 2.78 2.64 2.55 2.51 2.36 2.23 2.09 1.97 1.86 1.80 1.82 1.85 1.74 1.70
2.99 3.13 3.09 2.91 2.66 2.67 2.63 2.53 2.45 2.55 2.49 2.42 2.22 2.07 1.98 2.08 2.08 2.15 2.33 2.44 2.29 2.26 2.69 3.23 3.53 3.54 3.43 3.36 3.14 2.88 2.79 2.75 2.72 2.60 2.49 2.27 2.08 2.05 1.99 1.94 1.95 1.86 1.77
3.54 3.59 3.58 3.28 3.02 2.98 3.14 3.11 2.99 2.97 2.71 2.63 2.52 2.40 2.25 2.16 2.17 2.25 2.44 2.76 2.69 2.71 2.87 2.97 3.13 3.29 3.45 3.64 3.66 3.43 3.16 2.98 2.90 2.80 2.71 2.59 2.39 2.21 2.12 2.08 2.09 2.03 1.89
3.63 3.72 3.71 3.56 3.40 3.31 3.56 3.71 3.61 3.50 3.33 3.24 3.05 2.76 2.47 2.40 2.41 2.56 2.67 2.85 3.08 3.05 3.13 2.98 2.82 2.95 3.29 3.53 3.71 3.77 3.58 3.26 3.06 3.01 2.96 2.86 2.66 2.50 2.33 2.23 2.23 2.17 2.03
3.98 4.04 3.93 3.92 3.94 3.97 3.94 3.72 3.83 3.68 3.71 3.61 3.16 2.92 2.56 2.46 2.59 2.59 2.70 2.75 2.93 2.95 2.95 2.83 2.79 2.82 3.08 3.46 3.59 3.80 3.83 3.69 3.48 3.30 3.21 3.13 2.97 2.75 2.54 2.42 2.31 2.23 2.12
4.40 4.62 4.57 4.49 4.47 4.42 4.20 4.12 4.13 3.94 3.76 3.61 3.15 2.89 2.62 2.44 2.44 2.52 2.52 2.50 2.51 2.50 2.49 2.57 2.87 2.75 2.87 3.07 3.15 3.37 3.67 3.84 3.71 3.50 3.38 3.33 3.16 2.87 2.57 2.45 2.40 2.32 2.25
5.15 5.21 5.01 4.81 4.67 4.65 4.55 4.50 4.32 4.10 3.83 3.71 3.62 3.22 2.68 2.36 2.34 2.30 2.29 2.31 2.29 2.34 2.42 2.46 2.49 2.48 2.50 2.64 2.68 2.85 3.16 3.53 3.65 3.63 3.61 3.50 3.35 3.14 2.83 2.59 2.51 2.47 2.40
5.31 5.23 5.30 5.22 5.03 4.85 4.65 4.46 4.37 4.18 3.84 3.75 3.74 3.60 3.09 2.64 2.21 1.94 1.96 1.97 2.01 2.18 2.19 2.14 2.22 2.30 2.31 2.41 2.41 2.62 2.85 3.09 3.37 3.51 3.45 3.33 3.22 3.20 3.15 2.99 2.81 2.69 2.60
5.44 5.27 5.17 4.98 4.85 4.72 4.55 4.35 4.17 4.05 3.85 3.71 3.68 3.78 3.44 2.96 2.42 2.06 1.82 1.75 1.75 1.88 1.93 1.95 1.96 2.04 2.15 2.28 2.27 2.40 2.55 2.62 2.92 3.21 3.31 3.23 3.12 3.04 3.02 3.01 2.98 2.91 2.85
5.07 4.82 4.70 4.62 4.46 4.14 3.91 3.76 3.68 3.54 3.43 3.27 3.32 3.30 3.15 2.94 2.88 2.63 2.29 2.09 2.00 1.96 1.97 1.90 1.88 1.97 2.01 2.14 2.30 2.30 2.27 2.29 2.53 2.80 3.04 3.14 3.07 3.10 3.09 3.07 3.04 3.02 3.02
4.47 4.19 4.06 3.91 3.70 3.34 2.99 2.87 2.96 3.03 3.04 2.96 2.97 3.03 3.03 2.87 2.78 2.72 2.58 2.39 2.27 2.10 2.03 2.08 2.07 2.05 2.02 2.00 2.08 2.18 2.13 1.98 2.09 2.27 2.57 2.84 2.96 3.08 3.15 3.07 3.07 3.04 3.06
3.90 3.53 3.22 2.97 2.74 2.57 2.38 2.34 2.39 2.48 2.67 2.78 2.91 2.94 2.94 2.85 2.75 2.73 2.62 2.54 2.47 2.29 2.10 2.01 2.03 2.02 1.98 1.97 1.92 2.07 1.87 1.76 1.75 1.82 2.01 2.26 2.51 2.67 2.69 2.81 2.96 3.05 3.14
3.13 2.82 2.54 2.44 2.32 2.19 2.12 2.12 2.12 2.09 2.20 2.40 2.53 2.62 2.70 2.70 2.69 2.72 2.80 2.75 2.57 2.38 2.26 2.09 1.97 1.92 1.90 1.93 1.91 1.95 1.76 1.66 1.57 1.55 1.57 1.67 1.81 2.02 2.17 2.36 2.54 2.71 2.84
2.40 2.14 1.93 1.82 1.80 1.85 1.78 1.83 1.85 1.88 1.88 1.97 2.07 2.28 2.41 2.43 2.45 2.44 2.48 2.58 2.62 2.46 2.23 2.07 1.98 1.86 1.76 1.68 1.70 1.67 1.47 1.48 1.36 1.32 1.33 1.38 1.43 1.51 1.64 1.74 1.85 1.95 2.03
1.75 1.63 1.54 1.51 1.48 1.52 1.58 1.59 1.56 1.59 1.69 1.72 1.75 1.89 1.96 1.98 2.04 2.11 2.20 2.28 2.47 2.49 2.26 1.98 1.88 1.75 1.57 1.44 1.49 1.31 1.27 1.30 1.17 1.10 1.07 1.09 1.13 1.21 1.27 1.33 1.44 1.48 1.50
1.44 1.44 1.37 1.30 1.23 1.24 1.27 1.32 1.34 1.37 1.43 1.51 1.55 1.57 1.61 1.61 1.68 1.79 1.94 2.06 2.14 2.24 2.18 1.85 1.61 1.48 1.40 1.24 1.30 1.16 1.18 1.20 1.04 1.02 0.98 0.99 1.03 1.11 1.14 1.18 1.22 1.29 1.31
1.20 1.17 1.08 1.01 0.97 1.01 1.07 1.16 1.20 1.25 1.30 1.35 1.41 1.42 1.45 1.43 1.48 1.53 1.56 1.65 1.82 1.94 1.96 1.71 1.52 1.44 1.39 1.27 1.24 1.21 1.17 1.11 1.00 1.02 0.96 0.97 1.00 1.01 1.02 1.04 1.04 1.08 1.19
1.07 1.01 0.89 0.83 0.81 0.85 0.91 0.97 1.01 1.05 1.15 1.17 1.17 1.20 1.22 1.24 1.27 1.30 1.35 1.39 1.49 1.64 1.73 1.71 1.60 1.53 1.43 1.32 1.28 1.30 1.09 0.92 0.90 0.94 0.87 0.83 0.85 0.86 0.88 0.89 0.89 0.87 0.90
1.04 0.94 0.84 0.79 0.77 0.77 0.78 0.83 0.88 0.86 0.89 0.97 1.01 1.06 1.09 1.13 1.12 1.06 1.11 1.21 1.27 1.36 1.55 1.58 1.50 1.44 1.34 1.23 1.32 1.23 1.13 1.19 0.91 0.84 0.78 0.73 0.73 0.71 0.72 0.74 0.76 0.75 0.72
0.95 0.88 0.82 0.76 0.74 0.72 0.73 0.75 0.73 0.77 0.82 0.87 0.88 0.92 0.94 0.98 1.00 1.03 1.05 1.18 1.25 1.37 1.46 1.48 1.45 1.42 1.34 1.25 1.34 1.35 1.31 1.27 1.05 0.78 0.76 0.67 0.69 0.68 0.67 0.68 0.67 0.65 0.63
0.94 0.89 0.81 0.74 0.65 0.61 0.59 0.61 0.62 0.65 0.73 0.75 0.79 0.78 0.77 0.83 0.91 0.91 0.90 1.02 1.16 1.33 1.35 1.36 1.37 1.40 1.34 1.36 1.35 1.30 1.30 1.29 1.17 0.98 0.99 0.84 0.81 0.86 0.86 0.79 0.72 0.69 0.62
0.85 0.82 0.75 0.69 0.62 0.52 0.54 0.54 0.53 0.59 0.69 0.73 0.72 0.70 0.66 0.66 0.73 0.79 0.80 0.88 1.01 1.13 1.22 1.30 1.32 1.35 1.36 1.44 1.45 1.43 1.40 1.41 1.39 1.13 1.13 1.05 0.95 1.05 0.99 0.89 0.80 0.68 0.61
0.85 0.78 0.71 0.67 0.68 0.62 0.48 0.41 0.43 0.53 0.68 0.69 0.67 0.72 0.65 0.61 0.70 0.73 0.76 0.76 0.80 0.83 0.95 1.15 1.30 1.37 1.46 1.59 1.66 1.60 1.52 1.49 1.50 1.28 1.29 1.24 1.11 1.18 0.97 0.84 0.86 0.74 0.64
0.80 0.78 0.75 0.76 0.78 0.64 0.46 0.33 0.37 0.51 0.62 0.56 0.57 0.66 0.73 0.76 0.70 0.70 0.71 0.76 0.80 0.81 0.84 0.91 1.15 1.24 1.26 1.42 1.59 1.62 1.57 1.50 1.49 1.46 1.51 1.47 1.16 1.11 0.99 1.16 1.14 0.95 0.78
0.74 0.73 0.74 0.81 0.83 0.68 0.48 0.36 0.39 0.51 0.58 0.56 0.57 0.56 0.58 0.65 0.64 0.69 0.75 0.90 0.95 0.96 0.78 0.82 0.94 1.02 1.07 1.20 1.31 1.44 1.60 1.69 1.66 1.56 1.52 1.53 1.33 1.18 1.19 1.40 1.34 1.24 1.01
0.68 0.63 0.68 0.76 0.76 0.68 0.48 0.36 0.37 0.42 0.52 0.62 0.68 0.68 0.63 0.59 0.57 0.63 0.77 0.92 1.00 1.02 1.04 1.17 1.29 1.30 1.28 1.32 1.26 1.40 1.66 1.77 1.73 1.69 1.54 1.55 1.55 1.45 1.49 1.54 1.53 1.41 1.31

GEFSMA_prec_meanprecacc_270.txt.gz
Total_Precipitation_Accumulation
2.47 2.68 2.62 2.51 2.40 2.47 2.40 2.27 2.08 2.11 2.05 1.87 1.73 1.77 1.85 1.91 2.00 2.16 2.23 2.16 2.15 2.40 2.88 3.20 3.26 3.12 3.06 3.04 2.97 2.84 2.70 2.61 2.57 2.43 2.29 2.14 2.02 1.92 1.86 1.88 1.90 1.78 1.75
3.05 3.19 3.13 2.94 2.69 2.68 2.65 2.54 2.46 2.56 2.50 2.44 2.25 2.13 2.04 2.13 2.13 2.20 2.40 2.52 2.36 2.34 2.77 3.31 3.62 3.62 3.50 3.44 3.22 2.97 2.87 2.80 2.77 2.66 2.53 2.32 2.13 2.11 2.05 2.00 2.00 1.90 1.81
3.60 3.64 3.62 3.31 3.04 3.00 3.16 3.13 3.01 2.99 2.74 2.66 2.55 2.45 2.31 2.20 2.20 2.29 2.50 2.82 2.75 2.79 2.94 3.04 3.21 3.36 3.52 3.70 3.73 3.50 3.24 3.05 2.96 2.86 2.76 2.64 2.44 2.26 2.18 2.14 2.15 2.09 1.95
3.66 3.75 3.74 3.58 3.43 3.33 3.58 3.73 3.63 3.52 3.35 3.28 3.10 2.81 2.53 2.45 2.44 2.58 2.70 2.89 3.15 3.13 3.21 3.08 2.91 3.03 3.35 3.60 3.77 3.83 3.64 3.34 3.14 3.08 3.03 2.92 2.72 2.56 2.39 2.29 2.28 2.22 2.09
4.01 4.05 3.95 3.94 3.96 4.01 3.98 3.75 3.86 3.71 3.73 3.63 3.19 2.95 2.60 2.50 2.62 2.62 2.74 2.80 3.01 3.02 3.03 2.92 2.90 2.90 3.14 3.52 3.65 3.87 3.89 3.75 3.54 3.37 3.28 3.20 3.03 2.81 2.61 2.48 2.36 2.28 2.17
4.43 4.65 4.60 4.52 4.50 4.45 4.25 4.17 4.17 3.95 3.78 3.63 3.16 2.91 2.64 2.47 2.46 2.55 2.55 2.56 2.61 2.59 2.55 2.64 2.95 2.84 2.95 3.14 3.22 3.44 3.73 3.90 3.76 3.55 3.43 3.39 3.22 2.92 2.62 2.50 2.45 2.37 2.29
5.19 5.24 5.04 4.85 4.71 4.69 4.60 4.55 4.36 4.12 3.85 3.74 3.64 3.25 2.70 2.39 2.37 2.33 2.33 2.37 2.41 2.45 2.46 2.51 2.55 2.55 2.57 2.72 2.74 2.92 3.22 3.59 3.71 3.68 3.66 3.54 3.39 3.19 2.88 2.64 2.56 2.52 2.44
5.37 5.27 5.33 5.26 5.06 4.90 4.71 4.51 4.40 4.20 3.86 3.78 3.76 3.62 3.10 2.66 2.25 1.97 1.99 2.02 2.12 2.32 2.24 2.18 2.27 2.35 2.36 2.47 2.47 2.68 2.91 3.15 3.43 3.57 3.50 3.37 3.26 3.23 3.19 3.03 2.86 2.74 2.65
5.54 5.34 5.25 5.05 4.90 4.77 4.61 4.39 4.19 4.07 3.86 3.73 3.69 3.79 3.45 2.97 2.44 2.09 1.86 1.80 1.84 1.99 1.98 1.99 2.00 2.08 2.19 2.32 2.31 2.45 2.60 2.65 2.96 3.25 3.37 3.28 3.17 3.08 3.05 3.05 3.01 2.95 2.89
5.14 4.90 4.78 4.70 4.53 4.19 3.95 3.78 3.70 3.56 3.44 3.28 3.33 3.31 3.16 2.95 2.89 2.66 2.34 2.14 2.07 2.04 2.03 1.95 1.92 2.00 2.03 2.16 2.32 2.33 2.30 2.32 2.56 2.83 3.07 3.17 3.10 3.13 3.13 3.11 3.08 3.06 3.06
4.50 4.24 4.12 3.98 3.75 3.38 3.02 2.89 2.97 3.05 3.06 2.98 2.98 3.04 3.05 2.88 2.79 2.74 2.62 2.45 2.35 2.17 2.08 2.12 2.11 2.08 2.03 2.01 2.08 2.19 2.15 2.00 2.12 2.29 2.60 2.87 2.99 3.12 3.18 3.11 3.11 3.09 3.11
3.92 3.56 3.26 3.01 2.78 2.61 2.41 2.37 2.41 2.50 2.69 2.80 2.93 2.96 2.96 2.86 2.76 2.75 2.64 2.58 2.54 2.36 2.16 2.05 2.06 2.04 1.99 1.98 1.93 2.08 1.88 1.77 1.76 1.84 2.03 2.29 2.53 2.70 2.72 2.85 3.01 3.10 3.19
3.15 2.85 2.57 2.47 2.36 2.23 2.15 2.14 2.14 2.10 2.21 2.42 2.55 2.65 2.72 2.71 2.70 2.74 2.83 2.79 2.61 2.43 2.30 2.13 1.99 1.93 1.91 1.94 1.92 1.96 1.77 1.66 1.58 1.56 1.58 1.68 1.83 2.04 2.20 2.40 2.58 2.75 2.88
2.42 2.16 1.97 1.85 1.84 1.88 1.81 1.86 1.88 1.90 1.91 2.00 2.10 2.31 2.43 2.45 2.47 2.47 2.50 2.60 2.65 2.49 2.25 2.10 2.01 1.87 1.77 1.69 1.70 1.68 1.48 1.49 1.36 1.32 1.34 1.39 1.45 1.53 1.66 1.76 1.87 1.98 2.06
1.77 1.64 1.56 1.53 1.50 1.54 1.60 1.61 1.58 1.61 1.71 1.74 1.77 1.91 1.99 2.02 2.07 2.14 2.22 2.31 2.50 2.52 2.29 2.01 1.90 1.77 1.58 1.44 1.50 1.32 1.27 1.30 1.18 1.11 1.07 1.10 1.14 1.22 1.29 1.35 1.45 1.50 1.52
1.46 1.45 1.39 1.32 1.25 1.26 1.29 1.33 1.36 1.39 1.45 1.53 1.57 1.59 1.64 1.64 1.72 1.82 1.97 2.09 2.17 2.26 2.20 1.87 1.63 1.50 1.42 1.25 1.31 1.16 1.18 1.21 1.05 1.03 0.99 1.00 1.04 1.11 1.15 1.19 1.22 1.30 1.32
1.22 1.18 1.09 1.02 0.99 1.03 1.09 1.18 1.22 1.27 1.32 1.37 1.44 1.46 1.48 1.46 1.52 1.57 1.60 1.68 1.84 1.96 1.97 1.72 1.53 1.46 1.40 1.29 1.25 1.22 1.18 1.12 1.01 1.03 0.97 0.98 1.00 1.01 1.02 1.04 1.04 1.09 1.19
1.10 1.03 0.92 0.86 0.84 0.87 0.93 0.99 1.03 1.07 1.17 1.19 1.21 1.25 1.25 1.27 1.30 1.32 1.37 1.41 1.50 1.64 1.73 1.72 1.60 1.54 1.45 1.33 1.30 1.31 1.10 0.93 0.91 0.94 0.87 0.83 0.85 0.86 0.88 0.89 0.89 0.87 0.90
1.08 0.99 0.88 0.83 0.81 0.80 0.81 0.86 0.90 0.89 0.92 0.99 1.04 1.11 1.13 1.16 1.14 1.07 1.12 1.22 1.28 1.36 1.55 1.58 1.51 1.45 1.35 1.24 1.33 1.25 1.15 1.20 0.91 0.85 0.78 0.73 0.73 0.71 0.72 0.74 0.76 0.75 0.72
0.97 0.91 0.85 0.79 0.77 0.74 0.75 0.77 0.75 0.79 0.83 0.89 0.92 0.95 0.97 1.00 1.02 1.04 1.06 1.19 1.26 1.38 1.47 1.49 1.46 1.42 1.34 1.25 1.35 1.36 1.33 1.28 1.06 0.79 0.76 0.67 0.70 0.68 0.67 0.68 0.67 0.66 0.63
0.97 0.91 0.84 0.78 0.68 0.63 0.62 0.63 0.63 0.67 0.75 0.77 0.81 0.80 0.79 0.84 0.93 0.93 0.92 1.03 1.16 1.33 1.36 1.37 1.38 1.41 1.35 1.37 1.36 1.31 1.31 1.31 1.19 1.00 1.00 0.84 0.81 0.86 0.86 0.80 0.73 0.69 0.62
0.90 0.86 0.79 0.72 0.65 0.55 0.58 0.58 0.55 0.61 0.71 0.75 0.74 0.72 0.68 0.68 0.74 0.81 0.82 0.89 1.02 1.14 1.23 1.31 1.34 1.36 1.37 1.44 1.46 1.43 1.41 1.42 1.40 1.16 1.14 1.06 0.96 1.05 0.99 0.90 0.81 0.69 0.61
0.90 0.83 0.76 0.73 0.72 0.65 0.51 0.44 0.46 0.55 0.70 0.70 0.69 0.73 0.67 0.63 0.71 0.75 0.78 0.77 0.82 0.84 0.96 1.17 1.32 1.38 1.47 1.60 1.67 1.61 1.53 1.50 1.51 1.30 1.31 1.26 1.13 1.19 0.97 0.84 0.87 0.75 0.65
0.84 0.82 0.80 0.82 0.83 0.68 0.50 0.37 0.41 0.56 0.65 0.59 0.59 0.68 0.74 0.77 0.72 0.71 0.73 0.78 0.81 0.82 0.85 0.92 1.16 1.25 1.26 1.42 1.60 1.64 1.58 1.51 1.50 1.47 1.53 1.49 1.18 1.12 0.99 1.17 1.15 0.96 0.79
0.78 0.77 0.78 0.85 0.88 0.73 0.53 0.41 0.44 0.56 0.63 0.61 0.60 0.59 0.60 0.67 0.66 0.70 0.78 0.93 0.97 0.98 0.79 0.84 0.96 1.03 1.08 1.21 1.33 1.46 1.63 1.71 1.68 1.57 1.54 1.54 1.35 1.20 1.20 1.42 1.36 1.27 1.03
0.72 0.67 0.72 0.81 0.81 0.73 0.54 0.42 0.42 0.46 0.56 0.66 0.72 0.71 0.66 0.61 0.58 0.65 0.80 0.96 1.04 1.05 1.06 1.19 1.31 1.31 1.29 1.33 1.27 1.41 1.67 1.79 1.75 1.71 1.56 1.56 1.57 1.47 1.53 1.57 1.55 1.44 1.34

GEFSMA_prec_meanprecacc_276.txt.gz
Total_Precipitation_Accumulation
2.52 2.76 2.71 2.60 2.54 2.60 2.51 2.36 2.16 2.18 2.11 1.94 1.81 1.88 1.97 2.01 2.10 2.26 2.35 2.29 2.30 2.55 3.02 3.33 3.37 3.22 3.15 3.12 3.04 2.91 2.76 2.67 2.66 2.54 2.42 2.25 2.10 1.99 1.96 2.01 2.00 1.85 1.80
3.09 3.24 3.19 3.01 2.81 2.87 2.79 2.64 2.54 2.63 2.57 2.51 2.32 2.24 2.17 2.25 2.25 2.31 2.52 2.65 2.50 2.48 2.91 3.46 3.74 3.71 3.59 3.53 3.28 3.03 2.93 2.87 2.84 2.74 2.63 2.42 2.20 2.16 2.11 2.11 2.09 1.96 1.87
3.63 3.68 3.66 3.37 3.11 3.10 3.29 3.25 3.10 3.06 2.81 2.72 2.61 2.54 2.44 2.32 2.32 2.40 2.59 2.93 2.88 2.93 3.08 3.17 3.33 3.45 3.59 3.78 3.81 3.58 3.32 3.12 3.01 2.92 2.83 2.71 2.51 2.31 2.23 2.21 2.24 2.17 2.04
3.69 3.79 3.78 3.62 3.48 3.39 3.64 3.81 3.70 3.58 3.40 3.33 3.13 2.86 2.62 2.54 2.53 2.67 2.78 2.99 3.26 3.25 3.34 3.19 3.04 3.14 3.43 3.67 3.85 3.91 3.73 3.41 3.20 3.15 3.10 3.01 2.80 2.62 2.44 2.33 2.34 2.30 2.17
4.05 4.09 3.99 3.97 4.00 4.06 4.03 3.79 3.91 3.76 3.77 3.66 3.22 2.99 2.68 2.58 2.67 2.67 2.79 2.88 3.09 3.09 3.11 3.01 3.00 3.02 3.23 3.60 3.72 3.92 3.95 3.81 3.60 3.44 3.39 3.33 3.14 2.89 2.69 2.54 2.42 2.34 2.24
4.48 4.69 4.63 4.55 4.53 4.50 4.30 4.22 4.22 3.99 3.81 3.66 3.19 2.94 2.72 2.57 2.51 2.58 2.59 2.62 2.68 2.65 2.60 2.69 3.01 2.92 3.03 3.22 3.30 3.51 3.80 3.96 3.80 3.59 3.49 3.48 3.32 2.99 2.69 2.56 2.50 2.41 2.34
5.24 5.28 5.06 4.87 4.73 4.73 4.66 4.61 4.41 4.17 3.89 3.77 3.68 3.28 2.76 2.49 2.45 2.37 2.37 2.42 2.47 2.52 2.52 2.56 2.60 2.60 2.63 2.79 2.82 3.00 3.30 3.66 3.77 3.73 3.70 3.58 3.43 3.22 2.91 2.67 2.60 2.55 2.48
5.40 5.31 5.36 5.28 5.08 4.93 4.76 4.57 4.45 4.25 3.90 3.81 3.80 3.65 3.14 2.75 2.36 2.04 2.04 2.08 2.18 2.38 2.29 2.23 2.31 2.40 2.42 2.54 2.54 2.76 2.97 3.20 3.49 3.64 3.55 3.41 3.29 3.25 3.21 3.06 2.89 2.77 2.68
5.57 5.38 5.27 5.08 4.93 4.80 4.66 4.45 4.24 4.11 3.90 3.76 3.72 3.81 3.48 3.02 2.55 2.19 1.91 1.88 1.91 2.05 2.04 2.04 2.05 2.14 2.26 2.40 2.38 2.52 2.66 2.70 3.02 3.30 3.41 3.32 3.20 3.10 3.07 3.07 3.04 2.98 2.92
5.19 4.94 4.83 4.74 4.57 4.23 4.01 3.84 3.75 3.61 3.49 3.32 3.35 3.32 3.17 2.97 2.94 2.75 2.42 2.24 2.14 2.08 2.08 2.01 1.97 2.07 2.10 2.23 2.39 2.40 2.38 2.38 2.60 2.87 3.10 3.20 3.13 3.15 3.14 3.13 3.11 3.08 3.09
4.57 4.30 4.18 4.04 3.81 3.43 3.08 2.95 3.03 3.09 3.10 3.01 3.00 3.06 3.06 2.89 2.82 2.79 2.68 2.54 2.43 2.23 2.12 2.17 2.17 2.14 2.10 2.08 2.14 2.25 2.21 2.06 2.16 2.32 2.63 2.90 3.02 3.14 3.20 3.13 3.13 3.11 3.13
3.98 3.62 3.30 3.05 2.82 2.65 2.46 2.41 2.46 2.53 2.73 2.83 2.96 2.98 2.98 2.88 2.78 2.79 2.69 2.63 2.59 2.42 2.20 2.09 2.11 2.07 2.04 2.02 1.96 2.12 1.92 1.81 1.80 1.87 2.05 2.31 2.56 2.72 2.74 2.87 3.04 3.14 3.22
3.20 2.90 2.61 2.50 2.38 2.26 2.18 2.18 2.18 2.16 2.26 2.45 2.58 2.67 2.75 2.75 2.74 2.78 2.87 2.82 2.64 2.47 2.35 2.18 2.03 1.96 1.94 1.96 1.95 1.98 1.79 1.68 1.60 1.58 1.59 1.70 1.84 2.06 2.22 2.41 2.60 2.79 2.91
2.44 2.19 2.00 1.88 1.86 1.90 1.85 1.92 1.93 1.95 1.96 2.04 2.14 2.34 2.47 2.48 2.51 2.50 2.53 2.64 2.68 2.52 2.30 2.14 2.04 1.90 1.79 1.71 1.72 1.69 1.50 1.51 1.37 1.33 1.34 1.40 1.46 1.54 1.68 1.78 1.89 2.00 2.08
1.79 1.67 1.59 1.56 1.52 1.56 1.64 1.66 1.64 1.67 1.77 1.79 1.82 1.96 2.03 2.06 2.11 2.17 2.25 2.34 2.52 2.55 2.32 2.04 1.93 1.79 1.60 1.46 1.51 1.33 1.29 1.32 1.19 1.11 1.08 1.10 1.14 1.23 1.30 1.36 1.46 1.51 1.53
1.48 1.48 1.41 1.34 1.27 1.28 1.32 1.38 1.40 1.43 1.49 1.56 1.60 1.63 1.69 1.70 1.77 1.85 1.99 2.12 2.20 2.29 2.23 1.89 1.65 1.52 1.44 1.27 1.32 1.17 1.20 1.23 1.06 1.04 0.99 1.00 1.05 1.12 1.16 1.20 1.23 1.31 1.33
1.24 1.21 1.11 1.04 1.01 1.05 1.12 1.21 1.25 1.30 1.35 1.41 1.48 1.48 1.51 1.51 1.58 1.60 1.63 1.71 1.88 1.99 2.00 1.74 1.55 1.48 1.42 1.31 1.27 1.24 1.21 1.14 1.02 1.03 0.98 0.98 1.01 1.02 1.03 1.05 1.05 1.09 1.19
1.12 1.06 0.94 0.88 0.86 0.89 0.96 1.02 1.06 1.10 1.21 1.24 1.25 1.28 1.29 1.33 1.37 1.38 1.42 1.46 1.55 1.68 1.76 1.74 1.62 1.55 1.47 1.36 1.33 1.34 1.12 0.95 0.93 0.95 0.87 0.84 0.86 0.86 0.88 0.90 0.90 0.88 0.91
1.10 1.01 0.90 0.85 0.83 0.83 0.84 0.89 0.94 0.93 0.96 1.03 1.07 1.14 1.16 1.21 1.18 1.12 1.18 1.27 1.33 1.40 1.59 1.61 1.53 1.47 1.37 1.26 1.35 1.27 1.17 1.23 0.93 0.86 0.79 0.73 0.73 0.71 0.72 0.74 0.76 0.76 0.72
1.00 0.93 0.87 0.82 0.79 0.77 0.78 0.80 0.78 0.81 0.86 0.91 0.93 0.97 1.00 1.04 1.06 1.09 1.11 1.24 1.30 1.41 1.50 1.52 1.48 1.44 1.36 1.27 1.37 1.38 1.35 1.32 1.09 0.81 0.77 0.68 0.70 0.69 0.68 0.68 0.67 0.66 0.63
0.99 0.94 0.87 0.80 0.71 0.65 0.64 0.66 0.67 0.70 0.79 0.80 0.84 0.83 0.82 0.87 0.96 0.97 0.95 1.06 1.20 1.36 1.38 1.40 1.40 1.43 1.37 1.39 1.37 1.32 1.33 1.34 1.23 1.03 1.02 0.85 0.82 0.87 0.87 0.81 0.73 0.69 0.62
0.91 0.88 0.81 0.74 0.66 0.56 0.59 0.60 0.59 0.64 0.74 0.78 0.77 0.75 0.71 0.70 0.77 0.84 0.85 0.92 1.05 1.17 1.25 1.33 1.35 1.38 1.39 1.47 1.49 1.45 1.43 1.44 1.44 1.19 1.17 1.09 0.97 1.06 1.00 0.91 0.81 0.69 0.61
0.93 0.86 0.78 0.74 0.73 0.66 0.52 0.45 0.48 0.57 0.72 0.73 0.72 0.76 0.70 0.65 0.74 0.78 0.81 0.80 0.84 0.86 0.98 1.19 1.34 1.40 1.50 1.63 1.71 1.64 1.56 1.53 1.54 1.33 1.35 1.30 1.15 1.21 0.98 0.85 0.88 0.75 0.65
0.87 0.87 0.85 0.86 0.87 0.72 0.52 0.39 0.44 0.59 0.68 0.62 0.62 0.71 0.77 0.80 0.75 0.74 0.76 0.80 0.83 0.83 0.86 0.94 1.18 1.27 1.28 1.45 1.64 1.67 1.62 1.54 1.53 1.51 1.57 1.54 1.21 1.14 1.01 1.18 1.16 0.97 0.80
0.80 0.80 0.82 0.90 0.92 0.78 0.59 0.46 0.47 0.59 0.66 0.64 0.63 0.61 0.63 0.70 0.69 0.73 0.81 0.95 0.99 0.99 0.80 0.85 0.97 1.05 1.09 1.22 1.34 1.49 1.65 1.74 1.71 1.60 1.57 1.59 1.39 1.23 1.22 1.43 1.37 1.28 1.04
0.73 0.68 0.74 0.83 0.84 0.76 0.58 0.46 0.46 0.50 0.60 0.71 0.77 0.75 0.70 0.66 0.64 0.69 0.84 1.00 1.07 1.07 1.08 1.21 1.33 1.33 1.31 1.35 1.29 1.44 1.71 1.82 1.78 1.74 1.59 1.60 1.61 1.52 1.57 1.60 1.57 1.45 1.36